<?xml version='1.0' encoding='UTF-8'?><gpx version="1.1" creator="JPX - https://github.com/jenetics/jpx" xmlns="http://www.topografix.com/GPX/1/1"><trk><trkseg><trkpt lat="45.0428361879806" lon="7.44664949194366"><ele>427.99999999999994</ele><time>2026-04-03T15:59:40Z</time></trkpt><trkpt lat="45.042905651128876" lon="7.446744335550618"><ele>428.0</ele><time>2026-04-03T15:59:41.999Z</time></trkpt><trkpt lat="45.04296492660638" lon="7.446800065705391"><ele>428.0</ele><time>2026-04-03T15:59:42.999Z</time></trkpt><trkpt lat="45.04302683604777" lon="7.446851145034965"><ele>428.0</ele><time>2026-04-03T15:59:43.999Z</time></trkpt><trkpt lat="45.043078317961736" lon="7.446917311123082"><ele>427.99999999999994</ele><time>2026-04-03T15:59:44.999Z</time></trkpt><trkpt lat="45.04312032311362" lon="7.44701941115038"><ele>428.0</ele><time>2026-04-03T15:59:45.999Z</time></trkpt><trkpt lat="45.04310205433811" lon="7.447124384738424"><ele>429.0</ele><time>2026-04-03T15:59:46.999Z</time></trkpt><trkpt lat="45.04308604155016" lon="7.447246490199463"><ele>429.99999999999994</ele><time>2026-04-03T15:59:47.999Z</time></trkpt><trkpt lat="45.04306677090948" lon="7.44738590584279"><ele>430.99999999999994</ele><time>2026-04-03T15:59:48.999Z</time></trkpt><trkpt lat="45.04304322068171" lon="7.447530863297504"><ele>432.0</ele><time>2026-04-03T15:59:49.999Z</time></trkpt><trkpt lat="45.043028318952516" lon="7.447682490642567"><ele>433.0</ele><time>2026-04-03T15:59:50.999Z</time></trkpt><trkpt lat="45.043004832954615" lon="7.447838187713318"><ele>435.2</ele><time>2026-04-03T15:59:51.999Z</time></trkpt><trkpt lat="45.04298056047266" lon="7.447996030389854"><ele>437.4</ele><time>2026-04-03T15:59:52.999Z</time></trkpt><trkpt lat="45.04297937503347" lon="7.448161564202896"><ele>439.59999999999997</ele><time>2026-04-03T15:59:53.999Z</time></trkpt><trkpt lat="45.043049616245256" lon="7.448286250816539"><ele>441.79999999999995</ele><time>2026-04-03T15:59:54.999Z</time></trkpt><trkpt lat="45.043110759721024" lon="7.448408142187166"><ele>444.0</ele><time>2026-04-03T15:59:55.999Z</time></trkpt><trkpt lat="45.043186590431105" lon="7.44851573722308"><ele>444.0</ele><time>2026-04-03T15:59:56.999Z</time></trkpt><trkpt lat="45.04327139078555" lon="7.4486329349786855"><ele>444.0</ele><time>2026-04-03T15:59:57.999Z</time></trkpt><trkpt lat="45.04335915018955" lon="7.448752650003962"><ele>444.0</ele><time>2026-04-03T15:59:58.999Z</time></trkpt><trkpt lat="45.04344583756307" lon="7.448875318912533"><ele>444.0</ele><time>2026-04-03T15:59:59.999Z</time></trkpt><trkpt lat="45.04354549004903" lon="7.448983617195694"><ele>446.5</ele><time>2026-04-03T16:00:00.999Z</time></trkpt><trkpt lat="45.04362953286045" lon="7.449104276897705"><ele>449.0</ele><time>2026-04-03T16:00:01.999Z</time></trkpt><trkpt lat="45.04372629867795" lon="7.449199679937353"><ele>451.5</ele><time>2026-04-03T16:00:02.999Z</time></trkpt><trkpt lat="45.04383101711411" lon="7.449263370515251"><ele>454.0</ele><time>2026-04-03T16:00:03.999Z</time></trkpt><trkpt lat="45.04393708845272" lon="7.449290066107963"><ele>454.0</ele><time>2026-04-03T16:00:04.999Z</time></trkpt><trkpt lat="45.044046864112396" lon="7.4492887864287365"><ele>454.0</ele><time>2026-04-03T16:00:05.999Z</time></trkpt><trkpt lat="45.044153488992364" lon="7.449269755519662"><ele>454.0</ele><time>2026-04-03T16:00:06.999Z</time></trkpt><trkpt lat="45.04426347392567" lon="7.44924789502879"><ele>454.0</ele><time>2026-04-03T16:00:07.999Z</time></trkpt><trkpt lat="45.044378843192305" lon="7.4492256794616365"><ele>454.0</ele><time>2026-04-03T16:00:08.999Z</time></trkpt><trkpt lat="45.044497794640726" lon="7.449207867891273"><ele>452.6</ele><time>2026-04-03T16:00:09.999Z</time></trkpt><trkpt lat="45.04461107734529" lon="7.449184443010551"><ele>451.2</ele><time>2026-04-03T16:00:10.999Z</time></trkpt><trkpt lat="45.04472611100007" lon="7.449162338886174"><ele>449.80000000000007</ele><time>2026-04-03T16:00:11.999Z</time></trkpt><trkpt lat="45.044834568089236" lon="7.44914360202433"><ele>448.40000000000003</ele><time>2026-04-03T16:00:12.999Z</time></trkpt><trkpt lat="45.04494262021848" lon="7.449122821225476"><ele>447.0</ele><time>2026-04-03T16:00:13.999Z</time></trkpt><trkpt lat="45.04505646603358" lon="7.449111726436193"><ele>447.0</ele><time>2026-04-03T16:00:14.999Z</time></trkpt><trkpt lat="45.04515549484717" lon="7.4490953180672435"><ele>447.00000000000006</ele><time>2026-04-03T16:00:15.999Z</time></trkpt><trkpt lat="45.045239342740985" lon="7.4490827106565485"><ele>447.00000000000006</ele><time>2026-04-03T16:00:16.999Z</time></trkpt><trkpt lat="45.04531045984374" lon="7.449074874622151"><ele>447.0</ele><time>2026-04-03T16:00:17.999Z</time></trkpt><trkpt lat="45.04541179747645" lon="7.449050363783647"><ele>447.0</ele><time>2026-04-03T16:00:19.999Z</time></trkpt><trkpt lat="45.045476131282264" lon="7.448854917046937"><ele>446.1666666666667</ele><time>2026-04-03T16:00:22.999Z</time></trkpt><trkpt lat="45.04549010660505" lon="7.44874537650547"><ele>445.33333333333337</ele><time>2026-04-03T16:00:23.999Z</time></trkpt><trkpt lat="45.045526005113004" lon="7.448639973179826"><ele>444.5</ele><time>2026-04-03T16:00:24.999Z</time></trkpt><trkpt lat="45.04554481396042" lon="7.44853611929496"><ele>443.6666666666667</ele><time>2026-04-03T16:00:25.999Z</time></trkpt><trkpt lat="45.04556303455589" lon="7.44843109188432"><ele>442.83333333333337</ele><time>2026-04-03T16:00:26.999Z</time></trkpt><trkpt lat="45.0455841571487" lon="7.448309336730057"><ele>442.0</ele><time>2026-04-03T16:00:27.999Z</time></trkpt><trkpt lat="45.045595008438575" lon="7.448178119416827"><ele>442.0</ele><time>2026-04-03T16:00:28.999Z</time></trkpt><trkpt lat="45.0456143604852" lon="7.448053517133856"><ele>442.00000000000006</ele><time>2026-04-03T16:00:29.999Z</time></trkpt><trkpt lat="45.045624602879045" lon="7.447908879037726"><ele>442.00000000000006</ele><time>2026-04-03T16:00:30.998Z</time></trkpt><trkpt lat="45.045646715353726" lon="7.447771619630521"><ele>442.0</ele><time>2026-04-03T16:00:31.998Z</time></trkpt><trkpt lat="45.045632048768226" lon="7.4476440179835715"><ele>442.0</ele><time>2026-04-03T16:00:32.998Z</time></trkpt><trkpt lat="45.045648359643536" lon="7.447538396783973"><ele>442.20000000000005</ele><time>2026-04-03T16:00:33.998Z</time></trkpt><trkpt lat="45.045646688086435" lon="7.44743086034779"><ele>442.40000000000003</ele><time>2026-04-03T16:00:34.998Z</time></trkpt><trkpt lat="45.045651308732886" lon="7.447321161912007"><ele>442.59999999999997</ele><time>2026-04-03T16:00:35.998Z</time></trkpt><trkpt lat="45.04565529753658" lon="7.447225598580705"><ele>442.79999999999995</ele><time>2026-04-03T16:00:36.998Z</time></trkpt><trkpt lat="45.04570466060905" lon="7.447120979407557"><ele>443.0</ele><time>2026-04-03T16:00:38.998Z</time></trkpt><trkpt lat="45.04585096671496" lon="7.447128138275254"><ele>444.49999999999994</ele><time>2026-04-03T16:00:41.998Z</time></trkpt><trkpt lat="45.04592833349676" lon="7.447124076051298"><ele>446.0</ele><time>2026-04-03T16:00:42.998Z</time></trkpt><trkpt lat="45.04601801667417" lon="7.447107341991352"><ele>447.5</ele><time>2026-04-03T16:00:43.998Z</time></trkpt><trkpt lat="45.046105485040286" lon="7.447089468155284"><ele>449.0</ele><time>2026-04-03T16:00:44.998Z</time></trkpt><trkpt lat="45.04619691333919" lon="7.447074434755513"><ele>450.49999999999994</ele><time>2026-04-03T16:00:45.998Z</time></trkpt><trkpt lat="45.046283726380494" lon="7.447041913063746"><ele>452.0</ele><time>2026-04-03T16:00:46.998Z</time></trkpt><trkpt lat="45.046387747640175" lon="7.447010929721751"><ele>451.99999999999994</ele><time>2026-04-03T16:00:47.998Z</time></trkpt><trkpt lat="45.04647398065286" lon="7.446989447276865"><ele>452.0</ele><time>2026-04-03T16:00:48.998Z</time></trkpt><trkpt lat="45.04654934173992" lon="7.446937545191691"><ele>452.0</ele><time>2026-04-03T16:00:49.998Z</time></trkpt><trkpt lat="45.0466435646331" lon="7.446887444801453"><ele>452.0</ele><time>2026-04-03T16:00:50.998Z</time></trkpt><trkpt lat="45.04672507542145" lon="7.44684726510785"><ele>451.99999999999994</ele><time>2026-04-03T16:00:51.998Z</time></trkpt><trkpt lat="45.04678619721576" lon="7.446805659897794"><ele>452.0</ele><time>2026-04-03T16:00:52.998Z</time></trkpt><trkpt lat="45.04685920515096" lon="7.446777254582031"><ele>453.20000000000005</ele><time>2026-04-03T16:00:53.998Z</time></trkpt><trkpt lat="45.04692883162298" lon="7.446721027072447"><ele>454.40000000000003</ele><time>2026-04-03T16:00:54.998Z</time></trkpt><trkpt lat="45.04701746156794" lon="7.446694755000491"><ele>455.59999999999997</ele><time>2026-04-03T16:00:55.998Z</time></trkpt><trkpt lat="45.04710363739164" lon="7.4466692805219035"><ele>456.79999999999995</ele><time>2026-04-03T16:00:56.998Z</time></trkpt><trkpt lat="45.04719861864811" lon="7.446628246435502"><ele>458.0</ele><time>2026-04-03T16:00:57.998Z</time></trkpt><trkpt lat="45.047289957637254" lon="7.44659072436745"><ele>458.0</ele><time>2026-04-03T16:00:58.998Z</time></trkpt><trkpt lat="45.04738170022564" lon="7.446541193933126"><ele>457.99999999999994</ele><time>2026-04-03T16:00:59.998Z</time></trkpt><trkpt lat="45.04746874847675" lon="7.446486541439507"><ele>457.99999999999994</ele><time>2026-04-03T16:01:00.998Z</time></trkpt><trkpt lat="45.047554916058644" lon="7.446432017355483"><ele>458.0</ele><time>2026-04-03T16:01:01.998Z</time></trkpt><trkpt lat="45.04764343669772" lon="7.446380313249159"><ele>458.0</ele><time>2026-04-03T16:01:02.998Z</time></trkpt><trkpt lat="45.047726595767806" lon="7.446321352193015"><ele>460.99999999999994</ele><time>2026-04-03T16:01:03.998Z</time></trkpt><trkpt lat="45.047802610034516" lon="7.446270125654278"><ele>464.0</ele><time>2026-04-03T16:01:04.998Z</time></trkpt><trkpt lat="45.04787784076625" lon="7.446200530161535"><ele>467.0</ele><time>2026-04-03T16:01:05.998Z</time></trkpt><trkpt lat="45.04795338594743" lon="7.446131653306363"><ele>470.0</ele><time>2026-04-03T16:01:06.998Z</time></trkpt><trkpt lat="45.048027123322754" lon="7.4460636097471795"><ele>472.99999999999994</ele><time>2026-04-03T16:01:07.998Z</time></trkpt><trkpt lat="45.0481009334214" lon="7.4460008497228145"><ele>476.0</ele><time>2026-04-03T16:01:08.998Z</time></trkpt><trkpt lat="45.04818252916027" lon="7.445932264639858"><ele>476.0</ele><time>2026-04-03T16:01:09.998Z</time></trkpt><trkpt lat="45.048274299836685" lon="7.445867466557714"><ele>476.0</ele><time>2026-04-03T16:01:10.998Z</time></trkpt><trkpt lat="45.04836845046924" lon="7.445797731621652"><ele>476.0</ele><time>2026-04-03T16:01:11.998Z</time></trkpt><trkpt lat="45.0484330688198" lon="7.445725979772835"><ele>476.0</ele><time>2026-04-03T16:01:12.998Z</time></trkpt><trkpt lat="45.04850977496184" lon="7.44566030523839"><ele>476.0</ele><time>2026-04-03T16:01:13.999Z</time></trkpt><trkpt lat="45.04857243810941" lon="7.4455859037203505"><ele>475.25</ele><time>2026-04-03T16:01:14.999Z</time></trkpt><trkpt lat="45.04864434821878" lon="7.445513203224896"><ele>474.5</ele><time>2026-04-03T16:01:15.999Z</time></trkpt><trkpt lat="45.048770315775066" lon="7.445382716100124"><ele>473.75</ele><time>2026-04-03T16:01:17.999Z</time></trkpt><trkpt lat="45.04883364822672" lon="7.445195601158463"><ele>473.0</ele><time>2026-04-03T16:01:19.999Z</time></trkpt><trkpt lat="45.048874401293794" lon="7.445104414313611"><ele>475.66666666666663</ele><time>2026-04-03T16:01:20.999Z</time></trkpt><trkpt lat="45.048927832691234" lon="7.4450240732974065"><ele>478.3333333333333</ele><time>2026-04-03T16:01:21.999Z</time></trkpt><trkpt lat="45.04897502307642" lon="7.444936956316284"><ele>481.0</ele><time>2026-04-03T16:01:22.999Z</time></trkpt><trkpt lat="45.04900895343676" lon="7.444823416818798"><ele>483.66666666666663</ele><time>2026-04-03T16:01:23.999Z</time></trkpt><trkpt lat="45.04902464256468" lon="7.444704715050346"><ele>486.3333333333333</ele><time>2026-04-03T16:01:24.999Z</time></trkpt><trkpt lat="45.04906713781603" lon="7.444586617845715"><ele>489.0</ele><time>2026-04-03T16:01:25.999Z</time></trkpt><trkpt lat="45.04909149131201" lon="7.4444633837176575"><ele>489.0</ele><time>2026-04-03T16:01:26.999Z</time></trkpt><trkpt lat="45.04911515644364" lon="7.444335319499662"><ele>489.0</ele><time>2026-04-03T16:01:27.999Z</time></trkpt><trkpt lat="45.04913855612469" lon="7.444200019970201"><ele>489.0</ele><time>2026-04-03T16:01:28.999Z</time></trkpt><trkpt lat="45.04916265292211" lon="7.444060872327073"><ele>489.0</ele><time>2026-04-03T16:01:29.999Z</time></trkpt><trkpt lat="45.04918711325596" lon="7.44392677079989"><ele>489.0</ele><time>2026-04-03T16:01:30.999Z</time></trkpt><trkpt lat="45.0492138717764" lon="7.443791796951856"><ele>489.4</ele><time>2026-04-03T16:01:31.999Z</time></trkpt><trkpt lat="45.04924379740777" lon="7.443648412260445"><ele>489.79999999999995</ele><time>2026-04-03T16:01:32.999Z</time></trkpt><trkpt lat="45.04927175692965" lon="7.44351707582054"><ele>490.20000000000005</ele><time>2026-04-03T16:01:33.999Z</time></trkpt><trkpt lat="45.04929925659732" lon="7.443393191843232"><ele>490.6</ele><time>2026-04-03T16:01:34.999Z</time></trkpt><trkpt lat="45.049324606779834" lon="7.443285892364928"><ele>491.0</ele><time>2026-04-03T16:01:35.999Z</time></trkpt><trkpt lat="45.04935983628312" lon="7.443136776780712"><ele>491.0</ele><time>2026-04-03T16:01:37.999Z</time></trkpt><trkpt lat="45.049364929079886" lon="7.443046138846424"><ele>491.0</ele><time>2026-04-03T16:01:39.999Z</time></trkpt><trkpt lat="45.04937489174573" lon="7.4429134969948745"><ele>491.0</ele><time>2026-04-03T16:01:47.999Z</time></trkpt><trkpt lat="45.049359367364765" lon="7.442770449996884"><ele>491.0</ele><time>2026-04-03T16:01:49.999Z</time></trkpt><trkpt lat="45.04931556609798" lon="7.442690147000985"><ele>491.0</ele><time>2026-04-03T16:01:50.999Z</time></trkpt><trkpt lat="45.049227194023956" lon="7.442563770413545"><ele>490.0</ele><time>2026-04-03T16:01:52.999Z</time></trkpt><trkpt lat="45.04919054317554" lon="7.442481094245188"><ele>489.0</ele><time>2026-04-03T16:01:53.999Z</time></trkpt><trkpt lat="45.04906796093589" lon="7.44244306519928"><ele>488.0</ele><time>2026-04-03T16:01:55.999Z</time></trkpt><trkpt lat="45.048998299851576" lon="7.442445070562007"><ele>487.0</ele><time>2026-04-03T16:01:56.999Z</time></trkpt><trkpt lat="45.048910104462344" lon="7.442354305679985"><ele>486.0</ele><time>2026-04-03T16:01:58.999Z</time></trkpt><trkpt lat="45.0489531487146" lon="7.44218392863535"><ele>483.6</ele><time>2026-04-03T16:02:00.999Z</time></trkpt><trkpt lat="45.04895386793307" lon="7.442072125322405"><ele>481.20000000000005</ele><time>2026-04-03T16:02:01.999Z</time></trkpt><trkpt lat="45.0489471198694" lon="7.4419480665574405"><ele>478.79999999999995</ele><time>2026-04-03T16:02:02.999Z</time></trkpt><trkpt lat="45.048936985653775" lon="7.441817902957102"><ele>476.4</ele><time>2026-04-03T16:02:03.999Z</time></trkpt><trkpt lat="45.04895314910453" lon="7.441684351759418"><ele>474.0</ele><time>2026-04-03T16:02:04.999Z</time></trkpt><trkpt lat="45.04893320289711" lon="7.441552434544967"><ele>474.0</ele><time>2026-04-03T16:02:05.999Z</time></trkpt><trkpt lat="45.04893505341136" lon="7.441406615672814"><ele>474.0</ele><time>2026-04-03T16:02:06.999Z</time></trkpt><trkpt lat="45.04891788634933" lon="7.4412723054927445"><ele>474.0</ele><time>2026-04-03T16:02:07.999Z</time></trkpt><trkpt lat="45.04887375642681" lon="7.4411421774781505"><ele>474.0</ele><time>2026-04-03T16:02:08.999Z</time></trkpt><trkpt lat="45.048815255517766" lon="7.441042807174191"><ele>474.0</ele><time>2026-04-03T16:02:09.999Z</time></trkpt><trkpt lat="45.04873474555204" lon="7.440980558124213"><ele>474.1666666666667</ele><time>2026-04-03T16:02:10.999Z</time></trkpt><trkpt lat="45.048674660640515" lon="7.440916506536265"><ele>474.33333333333337</ele><time>2026-04-03T16:02:11.999Z</time></trkpt><trkpt lat="45.04859573343206" lon="7.440860425635203"><ele>474.5</ele><time>2026-04-03T16:02:12.999Z</time></trkpt><trkpt lat="45.048509775055834" lon="7.440813283987079"><ele>474.6666666666667</ele><time>2026-04-03T16:02:13.999Z</time></trkpt><trkpt lat="45.048438840134786" lon="7.440767096713975"><ele>474.83333333333337</ele><time>2026-04-03T16:02:14.999Z</time></trkpt><trkpt lat="45.048364169242426" lon="7.440661062141666"><ele>475.0</ele><time>2026-04-03T16:02:16.999Z</time></trkpt><trkpt lat="45.04835694366288" lon="7.4404676703563855"><ele>476.25</ele><time>2026-04-03T16:02:18.999Z</time></trkpt><trkpt lat="45.048328149520145" lon="7.440330476580168"><ele>477.5</ele><time>2026-04-03T16:02:19.999Z</time></trkpt><trkpt lat="45.04826981330592" lon="7.440175471578336"><ele>478.75</ele><time>2026-04-03T16:02:20.999Z</time></trkpt><trkpt lat="45.04820537686898" lon="7.4400396212335735"><ele>480.0</ele><time>2026-04-03T16:02:21.999Z</time></trkpt><trkpt lat="45.04814186156547" lon="7.439912411999972"><ele>477.6</ele><time>2026-04-03T16:02:22.999Z</time></trkpt><trkpt lat="45.04808382619324" lon="7.43979505963546"><ele>475.2</ele><time>2026-04-03T16:02:23.999Z</time></trkpt><trkpt lat="45.048018255170774" lon="7.439665380897245"><ele>472.79999999999995</ele><time>2026-04-03T16:02:24.999Z</time></trkpt><trkpt lat="45.04795699521446" lon="7.439549324174361"><ele>470.4</ele><time>2026-04-03T16:02:25.999Z</time></trkpt><trkpt lat="45.047901758090326" lon="7.439440691012718"><ele>468.0</ele><time>2026-04-03T16:02:26.999Z</time></trkpt><trkpt lat="45.04786045355488" lon="7.439348388166357"><ele>468.0</ele><time>2026-04-03T16:02:27.999Z</time></trkpt><trkpt lat="45.04782427872405" lon="7.439244771813907"><ele>468.0</ele><time>2026-04-03T16:02:28.999Z</time></trkpt><trkpt lat="45.047800327928584" lon="7.439154200862575"><ele>468.0</ele><time>2026-04-03T16:02:29.999Z</time></trkpt><trkpt lat="45.04777580901176" lon="7.439027565987475"><ele>468.0</ele><time>2026-04-03T16:02:30.999Z</time></trkpt><trkpt lat="45.047758660553164" lon="7.438904790253155"><ele>468.0</ele><time>2026-04-03T16:02:31.999Z</time></trkpt><trkpt lat="45.04774404889955" lon="7.438775526695416"><ele>468.0</ele><time>2026-04-03T16:02:32.999Z</time></trkpt><trkpt lat="45.04773109990544" lon="7.43865825148356"><ele>467.5</ele><time>2026-04-03T16:02:33.998Z</time></trkpt><trkpt lat="45.047717667860766" lon="7.438536601467017"><ele>467.0</ele><time>2026-04-03T16:02:34.998Z</time></trkpt><trkpt lat="45.04770873887967" lon="7.438428769087803"><ele>466.5</ele><time>2026-04-03T16:02:35.998Z</time></trkpt><trkpt lat="45.04770378893199" lon="7.438313185318379"><ele>466.0</ele><time>2026-04-03T16:02:36.998Z</time></trkpt><trkpt lat="45.047705570227755" lon="7.438213799604162"><ele>465.5</ele><time>2026-04-03T16:02:37.998Z</time></trkpt><trkpt lat="45.047718366379776" lon="7.438098317743681"><ele>465.0</ele><time>2026-04-03T16:02:38.998Z</time></trkpt><trkpt lat="45.047740211434416" lon="7.4379968613770755"><ele>463.6</ele><time>2026-04-03T16:02:39.998Z</time></trkpt><trkpt lat="45.04776590359861" lon="7.437909607357393"><ele>462.2</ele><time>2026-04-03T16:02:40.998Z</time></trkpt><trkpt lat="45.04780012635334" lon="7.437820235251833"><ele>460.79999999999995</ele><time>2026-04-03T16:02:41.998Z</time></trkpt><trkpt lat="45.047844330442125" lon="7.4376883287647875"><ele>459.4</ele><time>2026-04-03T16:02:42.998Z</time></trkpt><trkpt lat="45.04789776604683" lon="7.437558111809787"><ele>458.0</ele><time>2026-04-03T16:02:43.998Z</time></trkpt><trkpt lat="45.047946414694316" lon="7.437426452107403"><ele>458.0</ele><time>2026-04-03T16:02:44.998Z</time></trkpt><trkpt lat="45.04801006983228" lon="7.437304550350776"><ele>457.99999999999994</ele><time>2026-04-03T16:02:45.998Z</time></trkpt><trkpt lat="45.048067258392116" lon="7.437173613574027"><ele>457.99999999999994</ele><time>2026-04-03T16:02:46.998Z</time></trkpt><trkpt lat="45.04812758952399" lon="7.437060634624059"><ele>458.0</ele><time>2026-04-03T16:02:47.998Z</time></trkpt><trkpt lat="45.048185588068485" lon="7.4369410556060975"><ele>458.0</ele><time>2026-04-03T16:02:48.998Z</time></trkpt><trkpt lat="45.04824903536925" lon="7.436826668187371"><ele>457.2</ele><time>2026-04-03T16:02:49.998Z</time></trkpt><trkpt lat="45.04829394795253" lon="7.43670153178907"><ele>456.4</ele><time>2026-04-03T16:02:50.998Z</time></trkpt><trkpt lat="45.048342928881226" lon="7.436604969160935"><ele>455.59999999999997</ele><time>2026-04-03T16:02:51.998Z</time></trkpt><trkpt lat="45.048384259797366" lon="7.436472189252362"><ele>454.79999999999995</ele><time>2026-04-03T16:02:52.998Z</time></trkpt><trkpt lat="45.04843304521953" lon="7.436349088911316"><ele>454.0</ele><time>2026-04-03T16:02:53.998Z</time></trkpt><trkpt lat="45.04847102128303" lon="7.4362248066783065"><ele>454.0</ele><time>2026-04-03T16:02:54.998Z</time></trkpt><trkpt lat="45.04850084369956" lon="7.436121567084344"><ele>454.0</ele><time>2026-04-03T16:02:55.998Z</time></trkpt><trkpt lat="45.048527721538484" lon="7.43603945261351"><ele>454.0</ele><time>2026-04-03T16:02:56.998Z</time></trkpt><trkpt lat="45.04859734298049" lon="7.43593885004068"><ele>454.0</ele><time>2026-04-03T16:02:58.998Z</time></trkpt><trkpt lat="45.048722345657126" lon="7.435892379072279"><ele>454.0</ele><time>2026-04-03T16:03:00.998Z</time></trkpt><trkpt lat="45.04880800855286" lon="7.435888472209584"><ele>454.0</ele><time>2026-04-03T16:03:01.998Z</time></trkpt><trkpt lat="45.048899884449085" lon="7.435891522815868"><ele>454.0</ele><time>2026-04-03T16:03:02.998Z</time></trkpt><trkpt lat="45.049013448099494" lon="7.43587873767621"><ele>454.0</ele><time>2026-04-03T16:03:03.998Z</time></trkpt><trkpt lat="45.04913070726363" lon="7.4358925928725865"><ele>454.0</ele><time>2026-04-03T16:03:04.998Z</time></trkpt><trkpt lat="45.049247362926536" lon="7.435914812925949"><ele>454.0</ele><time>2026-04-03T16:03:05.998Z</time></trkpt><trkpt lat="45.04936216596794" lon="7.435946105320508"><ele>455.5</ele><time>2026-04-03T16:03:06.998Z</time></trkpt><trkpt lat="45.049485110789796" lon="7.435950855496391"><ele>457.0</ele><time>2026-04-03T16:03:07.998Z</time></trkpt><trkpt lat="45.0496023247057" lon="7.435939065553329"><ele>458.5</ele><time>2026-04-03T16:03:08.998Z</time></trkpt><trkpt lat="45.049713407243026" lon="7.435914797956329"><ele>460.0</ele><time>2026-04-03T16:03:09.998Z</time></trkpt><trkpt lat="45.04983057937167" lon="7.4358807040449335"><ele>460.0</ele><time>2026-04-03T16:03:10.998Z</time></trkpt><trkpt lat="45.04994592233864" lon="7.435833843503208"><ele>460.0</ele><time>2026-04-03T16:03:11.998Z</time></trkpt><trkpt lat="45.05007019808336" lon="7.435815635902361"><ele>460.0</ele><time>2026-04-03T16:03:12.998Z</time></trkpt><trkpt lat="45.05018149127434" lon="7.435793197085911"><ele>460.0</ele><time>2026-04-03T16:03:13.998Z</time></trkpt><trkpt lat="45.05029369879894" lon="7.435779206360055"><ele>460.0</ele><time>2026-04-03T16:03:14.998Z</time></trkpt><trkpt lat="45.0504031935668" lon="7.4357474044841245"><ele>460.0</ele><time>2026-04-03T16:03:15.998Z</time></trkpt><trkpt lat="45.050511705064906" lon="7.435712749562577"><ele>460.0</ele><time>2026-04-03T16:03:16.998Z</time></trkpt><trkpt lat="45.050618736198174" lon="7.435681963999783"><ele>460.0</ele><time>2026-04-03T16:03:17.998Z</time></trkpt><trkpt lat="45.05071962155603" lon="7.435658256144154"><ele>460.0</ele><time>2026-04-03T16:03:18.998Z</time></trkpt><trkpt lat="45.05081108856756" lon="7.435660266590859"><ele>460.0</ele><time>2026-04-03T16:03:19.999Z</time></trkpt><trkpt lat="45.05089869294343" lon="7.435645336939478"><ele>460.0</ele><time>2026-04-03T16:03:20.999Z</time></trkpt><trkpt lat="45.05097132269329" lon="7.435480369488726"><ele>460.0</ele><time>2026-04-03T16:03:21.999Z</time></trkpt><trkpt lat="45.05106458838445" lon="7.435384959085148"><ele>460.0</ele><time>2026-04-03T16:03:22.999Z</time></trkpt><trkpt lat="45.05113431756857" lon="7.435271346537447"><ele>460.0</ele><time>2026-04-03T16:03:23.999Z</time></trkpt><trkpt lat="45.05115744878872" lon="7.435131640420053"><ele>458.8</ele><time>2026-04-03T16:03:24.999Z</time></trkpt><trkpt lat="45.05117778645382" lon="7.435009367790902"><ele>457.6</ele><time>2026-04-03T16:03:25.999Z</time></trkpt><trkpt lat="45.051173623423125" lon="7.434886014053356"><ele>456.4</ele><time>2026-04-03T16:03:26.999Z</time></trkpt><trkpt lat="45.051157311580255" lon="7.4347466013922"><ele>455.2</ele><time>2026-04-03T16:03:27.999Z</time></trkpt><trkpt lat="45.05114823815237" lon="7.43461299859131"><ele>454.0</ele><time>2026-04-03T16:03:28.999Z</time></trkpt><trkpt lat="45.051146446538255" lon="7.434494628594611"><ele>454.00000000000006</ele><time>2026-04-03T16:03:29.999Z</time></trkpt><trkpt lat="45.051122917439166" lon="7.434409720510779"><ele>454.0</ele><time>2026-04-03T16:03:30.999Z</time></trkpt><trkpt lat="45.05113542247431" lon="7.434314372563748"><ele>454.0</ele><time>2026-04-03T16:03:32.999Z</time></trkpt><trkpt lat="45.05121987945315" lon="7.434381691025271"><ele>454.0</ele><time>2026-04-03T16:03:34.999Z</time></trkpt><trkpt lat="45.051280013285144" lon="7.434439490192751"><ele>454.00000000000006</ele><time>2026-04-03T16:03:35.999Z</time></trkpt><trkpt lat="45.05135499676287" lon="7.434515441976229"><ele>454.0</ele><time>2026-04-03T16:03:36.999Z</time></trkpt><trkpt lat="45.05144253376477" lon="7.434586417551102"><ele>453.5</ele><time>2026-04-03T16:03:37.999Z</time></trkpt><trkpt lat="45.05152615744277" lon="7.434680018124379"><ele>453.0</ele><time>2026-04-03T16:03:38.999Z</time></trkpt><trkpt lat="45.05162645558824" lon="7.434810292968793"><ele>452.5</ele><time>2026-04-03T16:03:39.999Z</time></trkpt><trkpt lat="45.05173543088466" lon="7.434930095096802"><ele>452.0</ele><time>2026-04-03T16:03:40.999Z</time></trkpt><trkpt lat="45.051852888432336" lon="7.435052114574599"><ele>453.25</ele><time>2026-04-03T16:03:41.999Z</time></trkpt><trkpt lat="45.05196119631673" lon="7.435176787004872"><ele>454.5</ele><time>2026-04-03T16:03:42.999Z</time></trkpt><trkpt lat="45.05207350998273" lon="7.435280363780246"><ele>455.75</ele><time>2026-04-03T16:03:43.999Z</time></trkpt><trkpt lat="45.052204192811566" lon="7.4353390758647135"><ele>457.0</ele><time>2026-04-03T16:03:44.999Z</time></trkpt><trkpt lat="45.05231849390805" lon="7.435423331441067"><ele>457.25</ele><time>2026-04-03T16:03:45.999Z</time></trkpt><trkpt lat="45.052404632004695" lon="7.435471520581981"><ele>457.5</ele><time>2026-04-03T16:03:46.999Z</time></trkpt><trkpt lat="45.05247061890221" lon="7.435492662928749"><ele>457.75</ele><time>2026-04-03T16:03:47.999Z</time></trkpt><trkpt lat="45.05240186757716" lon="7.435750150539885"><ele>458.0</ele><time>2026-04-03T16:03:51.999Z</time></trkpt><trkpt lat="45.05236769693197" lon="7.435888492361013"><ele>458.75</ele><time>2026-04-03T16:03:52.999Z</time></trkpt><trkpt lat="45.05233282036729" lon="7.436032910749058"><ele>459.5</ele><time>2026-04-03T16:03:53.999Z</time></trkpt><trkpt lat="45.052268881411734" lon="7.436203020490384"><ele>460.25</ele><time>2026-04-03T16:03:54.999Z</time></trkpt><trkpt lat="45.05223275822703" lon="7.436354802421841"><ele>461.0</ele><time>2026-04-03T16:03:55.999Z</time></trkpt><trkpt lat="45.05223085298303" lon="7.436492671122968"><ele>463.20000000000005</ele><time>2026-04-03T16:03:56.999Z</time></trkpt><trkpt lat="45.05224173583108" lon="7.436600158240484"><ele>465.40000000000003</ele><time>2026-04-03T16:03:57.999Z</time></trkpt><trkpt lat="45.05227976673894" lon="7.436715145033787"><ele>467.6</ele><time>2026-04-03T16:03:58.999Z</time></trkpt><trkpt lat="45.052335405023236" lon="7.436825068856877"><ele>469.8</ele><time>2026-04-03T16:03:59.999Z</time></trkpt><trkpt lat="45.052384676080294" lon="7.4369521823363955"><ele>472.0</ele><time>2026-04-03T16:04:00.999Z</time></trkpt><trkpt lat="45.052434634129" lon="7.437077229363583"><ele>471.8</ele><time>2026-04-03T16:04:01.999Z</time></trkpt><trkpt lat="45.05248078297226" lon="7.437202924169437"><ele>471.6</ele><time>2026-04-03T16:04:02.999Z</time></trkpt><trkpt lat="45.0525424299141" lon="7.437314994787666"><ele>471.40000000000003</ele><time>2026-04-03T16:04:03.999Z</time></trkpt><trkpt lat="45.052591770140495" lon="7.437454937650477"><ele>471.20000000000005</ele><time>2026-04-03T16:04:04.999Z</time></trkpt><trkpt lat="45.052621889372354" lon="7.4375899692027225"><ele>471.0</ele><time>2026-04-03T16:04:05.999Z</time></trkpt><trkpt lat="45.05265530979088" lon="7.437714625007667"><ele>471.0</ele><time>2026-04-03T16:04:06.999Z</time></trkpt><trkpt lat="45.05269666764279" lon="7.437857906697266"><ele>471.0</ele><time>2026-04-03T16:04:07.999Z</time></trkpt><trkpt lat="45.05273170145912" lon="7.43801174547379"><ele>471.0</ele><time>2026-04-03T16:04:08.999Z</time></trkpt><trkpt lat="45.052763646492075" lon="7.438158559049107"><ele>471.0</ele><time>2026-04-03T16:04:09.999Z</time></trkpt><trkpt lat="45.05279243431523" lon="7.438301829460256"><ele>471.0</ele><time>2026-04-03T16:04:10.999Z</time></trkpt><trkpt lat="45.052778254497625" lon="7.4384404744248505"><ele>473.1666666666667</ele><time>2026-04-03T16:04:11.999Z</time></trkpt><trkpt lat="45.05276126124949" lon="7.438546237570036"><ele>475.33333333333337</ele><time>2026-04-03T16:04:12.999Z</time></trkpt><trkpt lat="45.05274795534176" lon="7.438657441623893"><ele>477.5</ele><time>2026-04-03T16:04:16.999Z</time></trkpt><trkpt lat="45.052729672243025" lon="7.43876821559616"><ele>479.6666666666667</ele><time>2026-04-03T16:04:18.999Z</time></trkpt><trkpt lat="45.052706102001004" lon="7.438887217247483"><ele>481.83333333333337</ele><time>2026-04-03T16:04:20.999Z</time></trkpt><trkpt lat="45.05268273158684" lon="7.43901137199318"><ele>484.0</ele><time>2026-04-03T16:04:22.999Z</time></trkpt><trkpt lat="45.05266100043828" lon="7.439116600159489"><ele>485.00000000000006</ele><time>2026-04-03T16:04:24.999Z</time></trkpt><trkpt lat="45.05264073634414" lon="7.439223724244736"><ele>486.0</ele><time>2026-04-03T16:04:26.999Z</time></trkpt><trkpt lat="45.052618856101766" lon="7.439313760641363"><ele>487.0</ele><time>2026-04-03T16:04:29.999Z</time></trkpt><trkpt lat="45.05257865208757" lon="7.439412194799541"><ele>488.0</ele><time>2026-04-03T16:04:32.999Z</time></trkpt><trkpt lat="45.05254502946513" lon="7.4395277112367735"><ele>489.00000000000006</ele><time>2026-04-03T16:04:34.999Z</time></trkpt><trkpt lat="45.052520244055636" lon="7.439632974595556"><ele>490.0</ele><time>2026-04-03T16:04:36.999Z</time></trkpt><trkpt lat="45.052499641226085" lon="7.439820633834827"><ele>491.1666666666667</ele><time>2026-04-03T16:04:38.999Z</time></trkpt><trkpt lat="45.052508322517404" lon="7.439915544451978"><ele>492.33333333333337</ele><time>2026-04-03T16:04:39.999Z</time></trkpt><trkpt lat="45.05250883298193" lon="7.440019620516543"><ele>493.5</ele><time>2026-04-03T16:04:40.999Z</time></trkpt><trkpt lat="45.052516633123176" lon="7.440140237487249"><ele>494.66666666666663</ele><time>2026-04-03T16:04:42.999Z</time></trkpt><trkpt lat="45.052645418244715" lon="7.440207738769548"><ele>495.8333333333333</ele><time>2026-04-03T16:04:44.999Z</time></trkpt><trkpt lat="45.052712002635566" lon="7.440224076401451"><ele>497.0</ele><time>2026-04-03T16:04:45.998Z</time></trkpt><trkpt lat="45.05280483452025" lon="7.440228729547608"><ele>496.99999999999994</ele><time>2026-04-03T16:04:47.998Z</time></trkpt><trkpt lat="45.05287046369008" lon="7.440200179678531"><ele>497.0</ele><time>2026-04-03T16:04:48.998Z</time></trkpt><trkpt lat="45.052961539763096" lon="7.440172501520194"><ele>497.0</ele><time>2026-04-03T16:04:50.998Z</time></trkpt><trkpt lat="45.0530207245478" lon="7.440138869858204"><ele>497.0</ele><time>2026-04-03T16:04:51.998Z</time></trkpt><trkpt lat="45.053078673984274" lon="7.44009156017405"><ele>496.99999999999994</ele><time>2026-04-03T16:04:52.998Z</time></trkpt><trkpt lat="45.0531761140857" lon="7.440009894663915"><ele>497.0</ele><time>2026-04-03T16:04:54.998Z</time></trkpt><trkpt lat="45.05325388467313" lon="7.439937028207319"><ele>496.49999999999994</ele><time>2026-04-03T16:04:56.998Z</time></trkpt><trkpt lat="45.053370565058266" lon="7.43990663132109"><ele>496.0</ele><time>2026-04-03T16:04:58.998Z</time></trkpt><trkpt lat="45.05343289273354" lon="7.439927645280548"><ele>495.5</ele><time>2026-04-03T16:04:59.998Z</time></trkpt><trkpt lat="45.053490888714954" lon="7.439968754711871"><ele>495.0</ele><time>2026-04-03T16:05:00.998Z</time></trkpt><trkpt lat="45.05355093289765" lon="7.440002187483807"><ele>494.49999999999994</ele><time>2026-04-03T16:05:01.998Z</time></trkpt><trkpt lat="45.053631689109245" lon="7.440062490978002"><ele>494.0</ele><time>2026-04-03T16:05:03.998Z</time></trkpt><trkpt lat="45.05375615156768" lon="7.44010489587222"><ele>493.99999999999994</ele><time>2026-04-03T16:05:12.998Z</time></trkpt><trkpt lat="45.053821903184705" lon="7.440151475063534"><ele>494.0</ele><time>2026-04-03T16:05:14.998Z</time></trkpt><trkpt lat="45.0539226659075" lon="7.440218360549255"><ele>494.0</ele><time>2026-04-03T16:05:16.998Z</time></trkpt><trkpt lat="45.05398971718568" lon="7.440285769609338"><ele>494.0</ele><time>2026-04-03T16:05:18.998Z</time></trkpt><trkpt lat="45.05406350895706" lon="7.440355231284263"><ele>493.99999999999994</ele><time>2026-04-03T16:05:21.998Z</time></trkpt><trkpt lat="45.054124213735534" lon="7.440429023146222"><ele>494.0</ele><time>2026-04-03T16:05:23.998Z</time></trkpt><trkpt lat="45.054238728992665" lon="7.440446549387446"><ele>494.49999999999994</ele><time>2026-04-03T16:05:25.999Z</time></trkpt><trkpt lat="45.054373333141776" lon="7.440536643407626"><ele>495.0</ele><time>2026-04-03T16:05:27.999Z</time></trkpt><trkpt lat="45.05440295436491" lon="7.440627972509506"><ele>495.5</ele><time>2026-04-03T16:05:32Z</time></trkpt><trkpt lat="45.05440533067497" lon="7.4407514401360695"><ele>496.0</ele><time>2026-04-03T16:05:36Z</time></trkpt><trkpt lat="45.05446380207755" lon="7.440793911743387"><ele>496.49999999999994</ele><time>2026-04-03T16:05:42Z</time></trkpt><trkpt lat="45.054535402971894" lon="7.4408215719839745"><ele>497.0</ele><time>2026-04-03T16:05:49Z</time></trkpt><trkpt lat="45.05460325326895" lon="7.4408307561686895"><ele>497.0</ele><time>2026-04-03T16:05:58.999Z</time></trkpt><trkpt lat="45.05466423463516" lon="7.440687567918452"><ele>497.00000000000006</ele><time>2026-04-03T16:06:38.999Z</time></trkpt><trkpt lat="45.054706952462176" lon="7.440540829199843"><ele>497.00000000000006</ele><time>2026-04-03T16:06:40.999Z</time></trkpt><trkpt lat="45.05474949351521" lon="7.440376939292804"><ele>497.0</ele><time>2026-04-03T16:06:42.999Z</time></trkpt><trkpt lat="45.05476087182144" lon="7.440281928078502"><ele>497.0</ele><time>2026-04-03T16:06:43.999Z</time></trkpt><trkpt lat="45.054797874991465" lon="7.440193720721332"><ele>497.16666666666663</ele><time>2026-04-03T16:06:44.999Z</time></trkpt><trkpt lat="45.05485522400873" lon="7.440117629159128"><ele>497.3333333333333</ele><time>2026-04-03T16:06:45.999Z</time></trkpt><trkpt lat="45.0549210824433" lon="7.44003748491088"><ele>497.5</ele><time>2026-04-03T16:06:46.999Z</time></trkpt><trkpt lat="45.05497267304865" lon="7.439935946055808"><ele>497.66666666666663</ele><time>2026-04-03T16:06:47.999Z</time></trkpt><trkpt lat="45.05501766306628" lon="7.439829439246021"><ele>497.8333333333333</ele><time>2026-04-03T16:06:48.999Z</time></trkpt><trkpt lat="45.05504130720567" lon="7.4396898290955376"><ele>498.0</ele><time>2026-04-03T16:06:49.999Z</time></trkpt><trkpt lat="45.055090995916444" lon="7.439593401349657"><ele>497.1666666666667</ele><time>2026-04-03T16:06:50.999Z</time></trkpt><trkpt lat="45.0551620561238" lon="7.4395116440614935"><ele>496.33333333333337</ele><time>2026-04-03T16:06:51.999Z</time></trkpt><trkpt lat="45.055242097718434" lon="7.439438374826774"><ele>495.5</ele><time>2026-04-03T16:06:52.999Z</time></trkpt><trkpt lat="45.05532244428679" lon="7.439347701251769"><ele>494.6666666666667</ele><time>2026-04-03T16:06:53.999Z</time></trkpt><trkpt lat="45.055383716631944" lon="7.439284551053309"><ele>493.83333333333337</ele><time>2026-04-03T16:06:54.999Z</time></trkpt><trkpt lat="45.05543818614493" lon="7.439238856535839"><ele>493.0</ele><time>2026-04-03T16:06:55.999Z</time></trkpt><trkpt lat="45.05550235679253" lon="7.439230981544264"><ele>493.00000000000006</ele><time>2026-04-03T16:09:02.999Z</time></trkpt><trkpt lat="45.05544374965809" lon="7.439274192103935"><ele>493.0</ele><time>2026-04-03T16:09:19.999Z</time></trkpt><trkpt lat="45.055330986002865" lon="7.439380988721303"><ele>493.0</ele><time>2026-04-03T16:09:21.999Z</time></trkpt><trkpt lat="45.055260291405645" lon="7.439458480872147"><ele>493.0</ele><time>2026-04-03T16:09:22.999Z</time></trkpt><trkpt lat="45.055200576715784" lon="7.43952621619706"><ele>493.00000000000006</ele><time>2026-04-03T16:09:23.999Z</time></trkpt><trkpt lat="45.0551479522547" lon="7.439593006883436"><ele>493.0</ele><time>2026-04-03T16:09:24.999Z</time></trkpt><trkpt lat="45.05509128706934" lon="7.439668108715587"><ele>492.59999999999997</ele><time>2026-04-03T16:09:25.999Z</time></trkpt><trkpt lat="45.055041726534" lon="7.439752480182932"><ele>492.19999999999993</ele><time>2026-04-03T16:09:26.999Z</time></trkpt><trkpt lat="45.055001287356596" lon="7.43986509173401"><ele>491.8</ele><time>2026-04-03T16:09:27.999Z</time></trkpt><trkpt lat="45.05495945489652" lon="7.439992270692885"><ele>491.4</ele><time>2026-04-03T16:09:28.999Z</time></trkpt><trkpt lat="45.054932081347225" lon="7.440106250523813"><ele>491.0</ele><time>2026-04-03T16:09:29.999Z</time></trkpt><trkpt lat="45.05482780798918" lon="7.440213782543696"><ele>492.20000000000005</ele><time>2026-04-03T16:09:31.999Z</time></trkpt><trkpt lat="45.054764039979815" lon="7.440375305070094"><ele>493.40000000000003</ele><time>2026-04-03T16:09:33.998Z</time></trkpt><trkpt lat="45.05475116602479" lon="7.440491065188436"><ele>494.6</ele><time>2026-04-03T16:09:34.998Z</time></trkpt><trkpt lat="45.05472441958753" lon="7.4406056081277505"><ele>495.8</ele><time>2026-04-03T16:09:35.998Z</time></trkpt><trkpt lat="45.05468430254242" lon="7.440698277450531"><ele>497.0</ele><time>2026-04-03T16:09:36.998Z</time></trkpt><trkpt lat="45.05464432576565" lon="7.440805417758452"><ele>496.99999999999994</ele><time>2026-04-03T16:09:38.001Z</time></trkpt><trkpt lat="45.05460235703059" lon="7.440904373196998"><ele>497.0</ele><time>2026-04-03T16:09:39.001Z</time></trkpt><trkpt lat="45.05456105029031" lon="7.440995974058794"><ele>497.0</ele><time>2026-04-03T16:09:40.001Z</time></trkpt><trkpt lat="45.05452681468122" lon="7.441093709986485"><ele>497.0</ele><time>2026-04-03T16:09:41.001Z</time></trkpt><trkpt lat="45.054464607302336" lon="7.441179232823749"><ele>496.99999999999994</ele><time>2026-04-03T16:09:42.001Z</time></trkpt><trkpt lat="45.05440546185425" lon="7.441245720287932"><ele>497.0</ele><time>2026-04-03T16:09:43Z</time></trkpt><trkpt lat="45.0543747154594" lon="7.441331776446845"><ele>496.66666666666663</ele><time>2026-04-03T16:09:44Z</time></trkpt><trkpt lat="45.054365565377125" lon="7.4414651434760515"><ele>496.3333333333333</ele><time>2026-04-03T16:09:45Z</time></trkpt><trkpt lat="45.05433895993273" lon="7.441572193201337"><ele>496.0</ele><time>2026-04-03T16:09:46Z</time></trkpt><trkpt lat="45.05432290473441" lon="7.441701677287665"><ele>495.66666666666663</ele><time>2026-04-03T16:09:47Z</time></trkpt><trkpt lat="45.05432998112131" lon="7.441806166310279"><ele>495.3333333333333</ele><time>2026-04-03T16:09:48Z</time></trkpt><trkpt lat="45.05433837967155" lon="7.441913585615968"><ele>495.0</ele><time>2026-04-03T16:09:49Z</time></trkpt><trkpt lat="45.054346135209265" lon="7.442015034592085"><ele>495.0</ele><time>2026-04-03T16:09:50Z</time></trkpt><trkpt lat="45.0543597670075" lon="7.442158169502733"><ele>495.0</ele><time>2026-04-03T16:09:52Z</time></trkpt><trkpt lat="45.054393078553964" lon="7.442258863161044"><ele>495.0</ele><time>2026-04-03T16:09:54Z</time></trkpt><trkpt lat="45.0543933629056" lon="7.44239636244148"><ele>495.0</ele><time>2026-04-03T16:09:56Z</time></trkpt><trkpt lat="45.05438603398363" lon="7.4424850907174225"><ele>495.0</ele><time>2026-04-03T16:09:57Z</time></trkpt><trkpt lat="45.054381894047154" lon="7.442603168382746"><ele>495.0</ele><time>2026-04-03T16:09:59Z</time></trkpt><trkpt lat="45.05438628632729" lon="7.442718831043731"><ele>495.0</ele><time>2026-04-03T16:10:01Z</time></trkpt><trkpt lat="45.054415637947926" lon="7.442838583794793"><ele>495.0</ele><time>2026-04-03T16:10:03Z</time></trkpt><trkpt lat="45.054394083932934" lon="7.4429716947261975"><ele>495.0</ele><time>2026-04-03T16:10:05Z</time></trkpt><trkpt lat="45.05437717345193" lon="7.4430661943161205"><ele>495.0</ele><time>2026-04-03T16:10:09Z</time></trkpt><trkpt lat="45.05437861179016" lon="7.443181536478867"><ele>495.0</ele><time>2026-04-03T16:10:14Z</time></trkpt><trkpt lat="45.05437729729567" lon="7.443273205464438"><ele>495.0</ele><time>2026-04-03T16:10:16Z</time></trkpt><trkpt lat="45.054339030854926" lon="7.443349895269815"><ele>494.5</ele><time>2026-04-03T16:10:20Z</time></trkpt><trkpt lat="45.05429185933738" lon="7.443419053919085"><ele>494.0</ele><time>2026-04-03T16:10:24Z</time></trkpt><trkpt lat="45.05422093515984" lon="7.44344366994875"><ele>493.5</ele><time>2026-04-03T16:10:28Z</time></trkpt><trkpt lat="45.0541380087062" lon="7.443443182054817"><ele>493.0</ele><time>2026-04-03T16:12:57.999Z</time></trkpt><trkpt lat="45.05416415834435" lon="7.443534082293069"><ele>492.5</ele><time>2026-04-03T16:13:08.999Z</time></trkpt><trkpt lat="45.05416450811004" lon="7.443651103143188"><ele>492.0</ele><time>2026-04-03T16:15:24.999Z</time></trkpt><trkpt lat="45.05415936993562" lon="7.443764622642037"><ele>490.6666666666667</ele><time>2026-04-03T16:15:32.999Z</time></trkpt><trkpt lat="45.05411841538593" lon="7.443884057450243"><ele>489.33333333333337</ele><time>2026-04-03T16:15:35.998Z</time></trkpt><trkpt lat="45.05410672739018" lon="7.443986783701938"><ele>488.0</ele><time>2026-04-03T16:15:38.998Z</time></trkpt><trkpt lat="45.054085524085316" lon="7.444082146536717"><ele>486.6666666666667</ele><time>2026-04-03T16:15:41.998Z</time></trkpt><trkpt lat="45.05404226030905" lon="7.444168560264984"><ele>485.33333333333337</ele><time>2026-04-03T16:15:44.998Z</time></trkpt><trkpt lat="45.054016035617444" lon="7.44429333920848"><ele>484.0</ele><time>2026-04-03T16:15:46.998Z</time></trkpt><trkpt lat="45.053980900188755" lon="7.444412775242761"><ele>484.00000000000006</ele><time>2026-04-03T16:15:48.998Z</time></trkpt><trkpt lat="45.05391377283727" lon="7.444486162665354"><ele>484.0</ele><time>2026-04-03T16:15:51.998Z</time></trkpt><trkpt lat="45.053835006607436" lon="7.44452328668936"><ele>484.0</ele><time>2026-04-03T16:15:54.998Z</time></trkpt><trkpt lat="45.05379740287738" lon="7.444626184409403"><ele>484.0</ele><time>2026-04-03T16:15:58Z</time></trkpt><trkpt lat="45.05373535246687" lon="7.444720635962348"><ele>484.00000000000006</ele><time>2026-04-03T16:16:00Z</time></trkpt><trkpt lat="45.053656715893915" lon="7.444681944181115"><ele>484.0</ele><time>2026-04-03T16:16:03Z</time></trkpt><trkpt lat="45.0535889229288" lon="7.444692144380626"><ele>483.1666666666667</ele><time>2026-04-03T16:16:06Z</time></trkpt><trkpt lat="45.053573149439714" lon="7.444826370902365"><ele>482.33333333333337</ele><time>2026-04-03T16:16:09Z</time></trkpt><trkpt lat="45.05356030036963" lon="7.444927603086595"><ele>481.5</ele><time>2026-04-03T16:16:11Z</time></trkpt><trkpt lat="45.05349867843176" lon="7.445010745733232"><ele>480.66666666666663</ele><time>2026-04-03T16:16:14Z</time></trkpt><trkpt lat="45.053476261301185" lon="7.445120776629371"><ele>479.8333333333333</ele><time>2026-04-03T16:16:18Z</time></trkpt><trkpt lat="45.0534970356602" lon="7.445222125926871"><ele>479.0</ele><time>2026-04-03T16:16:20Z</time></trkpt><trkpt lat="45.05352004614431" lon="7.445306359184259"><ele>478.99999999999994</ele><time>2026-04-03T16:16:22Z</time></trkpt><trkpt lat="45.05352998708883" lon="7.445401506718074"><ele>479.0</ele><time>2026-04-03T16:16:24Z</time></trkpt><trkpt lat="45.05358089243366" lon="7.445479663793841"><ele>479.0</ele><time>2026-04-03T16:16:26Z</time></trkpt><trkpt lat="45.05362247839514" lon="7.445559562680403"><ele>479.0</ele><time>2026-04-03T16:16:28Z</time></trkpt><trkpt lat="45.05367630166314" lon="7.44565705344008"><ele>478.99999999999994</ele><time>2026-04-03T16:16:30Z</time></trkpt><trkpt lat="45.05372344147815" lon="7.445736619880249"><ele>479.0</ele><time>2026-04-03T16:16:32Z</time></trkpt><trkpt lat="45.05374857530935" lon="7.445855237443143"><ele>480.25</ele><time>2026-04-03T16:16:35Z</time></trkpt><trkpt lat="45.05376433982555" lon="7.446008617391549"><ele>481.5</ele><time>2026-04-03T16:16:37Z</time></trkpt><trkpt lat="45.05380066919196" lon="7.446128037284982"><ele>482.75</ele><time>2026-04-03T16:16:39Z</time></trkpt><trkpt lat="45.05382670436892" lon="7.446276425443656"><ele>484.0</ele><time>2026-04-03T16:16:40.999Z</time></trkpt><trkpt lat="45.0538597251736" lon="7.446473189123054"><ele>484.79999999999995</ele><time>2026-04-03T16:16:42.999Z</time></trkpt><trkpt lat="45.05390201754954" lon="7.446620774804245"><ele>485.59999999999997</ele><time>2026-04-03T16:16:44.999Z</time></trkpt><trkpt lat="45.05395073792718" lon="7.44680581138161"><ele>486.4</ele><time>2026-04-03T16:16:46.999Z</time></trkpt><trkpt lat="45.053951459604306" lon="7.4469573371854985"><ele>487.2</ele><time>2026-04-03T16:16:48.999Z</time></trkpt><trkpt lat="45.05393006303162" lon="7.447046249849002"><ele>488.0</ele><time>2026-04-03T16:16:50.999Z</time></trkpt><trkpt lat="45.05393990212598" lon="7.44715823115509"><ele>487.99999999999994</ele><time>2026-04-03T16:16:54.999Z</time></trkpt><trkpt lat="45.05392210138209" lon="7.447049623770706"><ele>488.0</ele><time>2026-04-03T16:17:29.999Z</time></trkpt><trkpt lat="45.05393997286869" lon="7.446916818555533"><ele>488.0</ele><time>2026-04-03T16:17:31.999Z</time></trkpt><trkpt lat="45.05393284586577" lon="7.446810997682252"><ele>488.0</ele><time>2026-04-03T16:17:32.999Z</time></trkpt><trkpt lat="45.05390230042822" lon="7.4466974421385945"><ele>487.99999999999994</ele><time>2026-04-03T16:17:33.998Z</time></trkpt><trkpt lat="45.053868874699745" lon="7.446584732922195"><ele>488.0</ele><time>2026-04-03T16:17:34.998Z</time></trkpt><trkpt lat="45.05384512159002" lon="7.446474134963479"><ele>487.99999999999994</ele><time>2026-04-03T16:17:35.998Z</time></trkpt><trkpt lat="45.05382754704528" lon="7.446354986175575"><ele>488.0</ele><time>2026-04-03T16:17:36.998Z</time></trkpt><trkpt lat="45.05380926348921" lon="7.446244499081165"><ele>488.0</ele><time>2026-04-03T16:17:37.998Z</time></trkpt><trkpt lat="45.05379419034107" lon="7.446139768859759"><ele>488.0</ele><time>2026-04-03T16:17:38.998Z</time></trkpt><trkpt lat="45.05377635545236" lon="7.446029639860332"><ele>487.99999999999994</ele><time>2026-04-03T16:17:39.998Z</time></trkpt><trkpt lat="45.053735838285704" lon="7.445902544740826"><ele>488.0</ele><time>2026-04-03T16:17:41.998Z</time></trkpt><trkpt lat="45.05371347995695" lon="7.445771624597686"><ele>487.3333333333333</ele><time>2026-04-03T16:17:43.998Z</time></trkpt><trkpt lat="45.05364993801212" lon="7.44564844569314"><ele>486.66666666666663</ele><time>2026-04-03T16:17:45.998Z</time></trkpt><trkpt lat="45.05356023690364" lon="7.445527361599102"><ele>486.0</ele><time>2026-04-03T16:17:47.998Z</time></trkpt><trkpt lat="45.05353520700054" lon="7.445442510286367"><ele>485.33333333333337</ele><time>2026-04-03T16:17:48.998Z</time></trkpt><trkpt lat="45.05351761466776" lon="7.445347538282503"><ele>484.6666666666667</ele><time>2026-04-03T16:17:49.998Z</time></trkpt><trkpt lat="45.05350310723672" lon="7.445255024005887"><ele>484.0</ele><time>2026-04-03T16:17:50.998Z</time></trkpt><trkpt lat="45.05347287390043" lon="7.4451149963765975"><ele>483.0</ele><time>2026-04-03T16:17:52.998Z</time></trkpt><trkpt lat="45.05341804512065" lon="7.445063165648584"><ele>482.0</ele><time>2026-04-03T16:17:54.998Z</time></trkpt><trkpt lat="45.05328441351798" lon="7.445032937665409"><ele>481.0</ele><time>2026-04-03T16:17:56.998Z</time></trkpt><trkpt lat="45.0531980583597" lon="7.4450340180667745"><ele>480.0</ele><time>2026-04-03T16:17:57.998Z</time></trkpt><trkpt lat="45.05311424209531" lon="7.445055674542359"><ele>479.0</ele><time>2026-04-03T16:17:58.998Z</time></trkpt><trkpt lat="45.05303656548526" lon="7.445085770508869"><ele>478.2</ele><time>2026-04-03T16:17:59.998Z</time></trkpt><trkpt lat="45.05296094145834" lon="7.445124871742524"><ele>477.4</ele><time>2026-04-03T16:18:00.998Z</time></trkpt><trkpt lat="45.05288934186834" lon="7.4451848552602415"><ele>476.6</ele><time>2026-04-03T16:18:02Z</time></trkpt><trkpt lat="45.052819265536414" lon="7.445263458192507"><ele>475.8</ele><time>2026-04-03T16:18:03Z</time></trkpt><trkpt lat="45.0527409146923" lon="7.445392518822018"><ele>475.0</ele><time>2026-04-03T16:18:05Z</time></trkpt><trkpt lat="45.05266246610512" lon="7.445473939020342"><ele>474.6666666666667</ele><time>2026-04-03T16:18:07Z</time></trkpt><trkpt lat="45.05256980898597" lon="7.445589252757725"><ele>474.33333333333337</ele><time>2026-04-03T16:18:09Z</time></trkpt><trkpt lat="45.05251156301124" lon="7.4456394800385075"><ele>474.0</ele><time>2026-04-03T16:18:10Z</time></trkpt><trkpt lat="45.05243811748693" lon="7.445680322336508"><ele>473.66666666666663</ele><time>2026-04-03T16:18:11Z</time></trkpt><trkpt lat="45.05237662486144" lon="7.445729712781563"><ele>473.3333333333333</ele><time>2026-04-03T16:18:12Z</time></trkpt><trkpt lat="45.052320400973734" lon="7.445800338061429"><ele>473.0</ele><time>2026-04-03T16:18:13Z</time></trkpt><trkpt lat="45.05226657667308" lon="7.445877159678904"><ele>472.49999999999994</ele><time>2026-04-03T16:18:14Z</time></trkpt><trkpt lat="45.0522231323745" lon="7.4459619768771255"><ele>472.0</ele><time>2026-04-03T16:18:15Z</time></trkpt><trkpt lat="45.0521678009211" lon="7.446049851583313"><ele>471.5</ele><time>2026-04-03T16:18:16Z</time></trkpt><trkpt lat="45.05208302613033" lon="7.446108133806881"><ele>471.0</ele><time>2026-04-03T16:18:18Z</time></trkpt><trkpt lat="45.052020397190105" lon="7.446118073004523"><ele>470.49999999999994</ele><time>2026-04-03T16:18:20Z</time></trkpt><trkpt lat="45.05194861212645" lon="7.446076519252323"><ele>470.0</ele><time>2026-04-03T16:18:22Z</time></trkpt><trkpt lat="45.05195443139915" lon="7.445967933744373"><ele>470.0</ele><time>2026-04-03T16:18:24Z</time></trkpt><trkpt lat="45.05204497833249" lon="7.445907756489785"><ele>470.0</ele><time>2026-04-03T16:18:26Z</time></trkpt><trkpt lat="45.052158607664346" lon="7.445930023638948"><ele>470.0</ele><time>2026-04-03T16:18:28Z</time></trkpt><trkpt lat="45.05221491858564" lon="7.445989641386507"><ele>470.0</ele><time>2026-04-03T16:18:31Z</time></trkpt><trkpt lat="45.05226331156145" lon="7.446111159723727"><ele>470.0</ele><time>2026-04-03T16:18:33Z</time></trkpt><trkpt lat="45.05229070353752" lon="7.446203083478205"><ele>470.0</ele><time>2026-04-03T16:18:34Z</time></trkpt><trkpt lat="45.05233022939109" lon="7.446289475636354"><ele>469.99999999999994</ele><time>2026-04-03T16:18:35Z</time></trkpt><trkpt lat="45.05236757039244" lon="7.446371992083418"><ele>470.0</ele><time>2026-04-03T16:18:36Z</time></trkpt><trkpt lat="45.05239075081085" lon="7.446479538726175"><ele>470.0</ele><time>2026-04-03T16:18:37Z</time></trkpt><trkpt lat="45.05241907176884" lon="7.446582372333932"><ele>469.99999999999994</ele><time>2026-04-03T16:18:38Z</time></trkpt><trkpt lat="45.05243388474948" lon="7.446686786587744"><ele>470.0</ele><time>2026-04-03T16:18:39Z</time></trkpt><trkpt lat="45.05243511713122" lon="7.446784084649997"><ele>470.0</ele><time>2026-04-03T16:18:39.999Z</time></trkpt><trkpt lat="45.052412159867224" lon="7.446885278739827"><ele>468.99999999999994</ele><time>2026-04-03T16:18:40.999Z</time></trkpt><trkpt lat="45.05239273513367" lon="7.446995641081423"><ele>468.0</ele><time>2026-04-03T16:18:41.999Z</time></trkpt><trkpt lat="45.052373477803656" lon="7.447097082375923"><ele>467.0</ele><time>2026-04-03T16:18:42.999Z</time></trkpt><trkpt lat="45.05234466751418" lon="7.447190061657447"><ele>466.0</ele><time>2026-04-03T16:18:43.999Z</time></trkpt><trkpt lat="45.05231143856739" lon="7.447291204801805"><ele>464.99999999999994</ele><time>2026-04-03T16:18:44.999Z</time></trkpt><trkpt lat="45.052293801079266" lon="7.447404593336235"><ele>464.0</ele><time>2026-04-03T16:18:45.999Z</time></trkpt><trkpt lat="45.05227247647535" lon="7.447533631695377"><ele>464.0</ele><time>2026-04-03T16:18:46.999Z</time></trkpt><trkpt lat="45.05224271132735" lon="7.447677089275317"><ele>464.0</ele><time>2026-04-03T16:18:47.999Z</time></trkpt><trkpt lat="45.05221095823894" lon="7.447825334771935"><ele>464.0</ele><time>2026-04-03T16:18:48.999Z</time></trkpt><trkpt lat="45.05217770622522" lon="7.447967515645619"><ele>464.0</ele><time>2026-04-03T16:18:49.999Z</time></trkpt><trkpt lat="45.05215609146643" lon="7.448114883016773"><ele>464.0</ele><time>2026-04-03T16:18:50.999Z</time></trkpt><trkpt lat="45.052155526152596" lon="7.448265440241762"><ele>464.0</ele><time>2026-04-03T16:18:51.999Z</time></trkpt><trkpt lat="45.05215178122449" lon="7.448420046274208"><ele>464.0</ele><time>2026-04-03T16:18:52.999Z</time></trkpt><trkpt lat="45.05215858588187" lon="7.448573860119067"><ele>464.0</ele><time>2026-04-03T16:18:53.999Z</time></trkpt><trkpt lat="45.05214892216486" lon="7.448711789659158"><ele>464.0</ele><time>2026-04-03T16:18:54.999Z</time></trkpt><trkpt lat="45.052139285678265" lon="7.448842213776756"><ele>464.0</ele><time>2026-04-03T16:18:55.999Z</time></trkpt><trkpt lat="45.052120853287214" lon="7.44900247335644"><ele>463.79999999999995</ele><time>2026-04-03T16:18:56.999Z</time></trkpt><trkpt lat="45.05210628708992" lon="7.449160694479794"><ele>463.59999999999997</ele><time>2026-04-03T16:18:57.999Z</time></trkpt><trkpt lat="45.05209761241866" lon="7.449281168007273"><ele>463.4</ele><time>2026-04-03T16:18:58.999Z</time></trkpt><trkpt lat="45.05208547788476" lon="7.4493953723759505"><ele>463.2</ele><time>2026-04-03T16:18:59.999Z</time></trkpt><trkpt lat="45.052079410446" lon="7.4495074262168375"><ele>463.0</ele><time>2026-04-03T16:19:00.999Z</time></trkpt><trkpt lat="45.05206588049516" lon="7.4496466112593245"><ele>462.79999999999995</ele><time>2026-04-03T16:19:01.999Z</time></trkpt><trkpt lat="45.05204250777586" lon="7.4497985688071"><ele>462.59999999999997</ele><time>2026-04-03T16:19:02.999Z</time></trkpt><trkpt lat="45.05200002228715" lon="7.449929509662479"><ele>462.40000000000003</ele><time>2026-04-03T16:19:03.999Z</time></trkpt><trkpt lat="45.051973266497754" lon="7.450038370060481"><ele>462.20000000000005</ele><time>2026-04-03T16:19:04.999Z</time></trkpt><trkpt lat="45.05196034086908" lon="7.450150421770743"><ele>462.0</ele><time>2026-04-03T16:19:05.999Z</time></trkpt><trkpt lat="45.05194465938156" lon="7.45026139623742"><ele>462.0</ele><time>2026-04-03T16:19:06.999Z</time></trkpt><trkpt lat="45.05193542495285" lon="7.450369383040539"><ele>462.0</ele><time>2026-04-03T16:19:07.999Z</time></trkpt><trkpt lat="45.05193490373236" lon="7.4504874124112055"><ele>462.0</ele><time>2026-04-03T16:19:08.999Z</time></trkpt><trkpt lat="45.05193288853884" lon="7.450604062589154"><ele>462.0</ele><time>2026-04-03T16:19:09.999Z</time></trkpt><trkpt lat="45.0519299280289" lon="7.450710188223326"><ele>462.0</ele><time>2026-04-03T16:19:10.999Z</time></trkpt><trkpt lat="45.051916938330436" lon="7.450821650235282"><ele>462.0</ele><time>2026-04-03T16:19:11.999Z</time></trkpt><trkpt lat="45.051906165921444" lon="7.450929432095763"><ele>461.8333333333333</ele><time>2026-04-03T16:19:12.999Z</time></trkpt><trkpt lat="45.05191001356079" lon="7.451064074296849"><ele>461.66666666666663</ele><time>2026-04-03T16:19:13.999Z</time></trkpt><trkpt lat="45.051927228853444" lon="7.451178191789385"><ele>461.5</ele><time>2026-04-03T16:19:14.999Z</time></trkpt><trkpt lat="45.05191951565967" lon="7.45128778340342"><ele>461.3333333333333</ele><time>2026-04-03T16:19:15.999Z</time></trkpt><trkpt lat="45.0519318418696" lon="7.45140161598721"><ele>461.16666666666663</ele><time>2026-04-03T16:19:16.999Z</time></trkpt><trkpt lat="45.05194086662651" lon="7.451510312076978"><ele>461.0</ele><time>2026-04-03T16:19:17.999Z</time></trkpt><trkpt lat="45.051945559930566" lon="7.451611874172783"><ele>461.0</ele><time>2026-04-03T16:19:18.999Z</time></trkpt><trkpt lat="45.05195301662611" lon="7.451804570722916"><ele>461.0</ele><time>2026-04-03T16:19:20.999Z</time></trkpt><trkpt lat="45.05196580636001" lon="7.451933762136239"><ele>461.0</ele><time>2026-04-03T16:19:21.999Z</time></trkpt><trkpt lat="45.05198202145331" lon="7.452052672620829"><ele>461.0</ele><time>2026-04-03T16:19:22.999Z</time></trkpt><trkpt lat="45.05199959709887" lon="7.452192285672757"><ele>461.0</ele><time>2026-04-03T16:19:23.999Z</time></trkpt><trkpt lat="45.0520170748099" lon="7.452342474791377"><ele>460.99999999999994</ele><time>2026-04-03T16:19:24.999Z</time></trkpt><trkpt lat="45.052036093863165" lon="7.452490367295767"><ele>461.0</ele><time>2026-04-03T16:19:25.999Z</time></trkpt><trkpt lat="45.052051201345805" lon="7.452634995052711"><ele>461.0</ele><time>2026-04-03T16:19:26.999Z</time></trkpt><trkpt lat="45.05206298389923" lon="7.452748493847653"><ele>461.0</ele><time>2026-04-03T16:19:27.999Z</time></trkpt><trkpt lat="45.05206991768155" lon="7.452856673768982"><ele>460.99999999999994</ele><time>2026-04-03T16:19:28.999Z</time></trkpt><trkpt lat="45.052055280837514" lon="7.452945967387894"><ele>461.0</ele><time>2026-04-03T16:19:29.999Z</time></trkpt><trkpt lat="45.052001697604865" lon="7.453077854355965"><ele>460.99999999999994</ele><time>2026-04-03T16:19:31.999Z</time></trkpt><trkpt lat="45.0519568905336" lon="7.453173708874224"><ele>461.0</ele><time>2026-04-03T16:19:55.998Z</time></trkpt><trkpt lat="45.05190262393848" lon="7.453234810223021"><ele>461.0</ele><time>2026-04-03T16:20:04.998Z</time></trkpt><trkpt lat="45.05190166740107" lon="7.453357269776837"><ele>461.0</ele><time>2026-04-03T16:20:09Z</time></trkpt><trkpt lat="45.05195481976653" lon="7.453429168084591"><ele>460.99999999999994</ele><time>2026-04-03T16:20:11Z</time></trkpt><trkpt lat="45.05197404171177" lon="7.453520910294659"><ele>461.0</ele><time>2026-04-03T16:20:12Z</time></trkpt><trkpt lat="45.05196500153699" lon="7.45366888408175"><ele>459.4</ele><time>2026-04-03T16:20:13Z</time></trkpt><trkpt lat="45.05197049759093" lon="7.4538257034270785"><ele>457.8</ele><time>2026-04-03T16:20:14Z</time></trkpt><trkpt lat="45.05198495958701" lon="7.453941482572049"><ele>456.19999999999993</ele><time>2026-04-03T16:20:15Z</time></trkpt><trkpt lat="45.05201563455034" lon="7.454053554317923"><ele>454.59999999999997</ele><time>2026-04-03T16:20:16Z</time></trkpt><trkpt lat="45.05206904166936" lon="7.454161607639979"><ele>453.0</ele><time>2026-04-03T16:20:17Z</time></trkpt><trkpt lat="45.05210878788705" lon="7.454282664334719"><ele>453.0</ele><time>2026-04-03T16:20:18Z</time></trkpt><trkpt lat="45.05213010270638" lon="7.454412816177064"><ele>452.99999999999994</ele><time>2026-04-03T16:20:19Z</time></trkpt><trkpt lat="45.05215181313719" lon="7.454548059516565"><ele>452.99999999999994</ele><time>2026-04-03T16:20:20Z</time></trkpt><trkpt lat="45.05215775024081" lon="7.4546694348315725"><ele>453.0</ele><time>2026-04-03T16:20:21Z</time></trkpt><trkpt lat="45.05214209234083" lon="7.454781056575411"><ele>453.0</ele><time>2026-04-03T16:20:22Z</time></trkpt><trkpt lat="45.05213252193155" lon="7.454935988526995"><ele>452.0</ele><time>2026-04-03T16:20:24Z</time></trkpt><trkpt lat="45.052129233287175" lon="7.455036419299035"><ele>450.99999999999994</ele><time>2026-04-03T16:20:26Z</time></trkpt><trkpt lat="45.05208365240343" lon="7.455136427310313"><ele>449.99999999999994</ele><time>2026-04-03T16:20:29Z</time></trkpt><trkpt lat="45.05199526458155" lon="7.4552073260425935"><ele>449.0</ele><time>2026-04-03T16:20:31Z</time></trkpt><trkpt lat="45.05194359979943" lon="7.45532490567324"><ele>448.0</ele><time>2026-04-03T16:20:33Z</time></trkpt><trkpt lat="45.05196699375356" lon="7.455487869813238"><ele>447.79999999999995</ele><time>2026-04-03T16:20:35Z</time></trkpt><trkpt lat="45.0519926979101" lon="7.455630697225243"><ele>447.59999999999997</ele><time>2026-04-03T16:20:37Z</time></trkpt><trkpt lat="45.052008040563976" lon="7.45577702129181"><ele>447.40000000000003</ele><time>2026-04-03T16:20:39Z</time></trkpt><trkpt lat="45.052019290896865" lon="7.45592946243383"><ele>447.20000000000005</ele><time>2026-04-03T16:20:41Z</time></trkpt><trkpt lat="45.05203944271796" lon="7.456076116675286"><ele>447.0</ele><time>2026-04-03T16:20:42.999Z</time></trkpt><trkpt lat="45.052045717356336" lon="7.456166644823246"><ele>447.0</ele><time>2026-04-03T16:20:43.999Z</time></trkpt><trkpt lat="45.05203998141022" lon="7.456306385610409"><ele>447.0</ele><time>2026-04-03T16:20:45.999Z</time></trkpt><trkpt lat="45.052038043657596" lon="7.456432060073698"><ele>447.0</ele><time>2026-04-03T16:20:47.999Z</time></trkpt><trkpt lat="45.05203171896712" lon="7.456570520942688"><ele>447.0</ele><time>2026-04-03T16:20:49.999Z</time></trkpt><trkpt lat="45.05204118398586" lon="7.456685556848018"><ele>447.0</ele><time>2026-04-03T16:20:51.999Z</time></trkpt><trkpt lat="45.052055985983316" lon="7.456792518371159"><ele>447.0</ele><time>2026-04-03T16:20:53.999Z</time></trkpt><trkpt lat="45.05208564490295" lon="7.456898117304344"><ele>447.0</ele><time>2026-04-03T16:20:55.999Z</time></trkpt><trkpt lat="45.052069928607445" lon="7.457012666766387"><ele>447.00000000000006</ele><time>2026-04-03T16:20:57.999Z</time></trkpt><trkpt lat="45.052048914380975" lon="7.45712199401495"><ele>447.00000000000006</ele><time>2026-04-03T16:20:59.999Z</time></trkpt><trkpt lat="45.052032356819026" lon="7.457265823032711"><ele>447.0</ele><time>2026-04-03T16:21:01.999Z</time></trkpt><trkpt lat="45.05203794987627" lon="7.457445487366173"><ele>447.0</ele><time>2026-04-03T16:21:03.999Z</time></trkpt><trkpt lat="45.05205297678424" lon="7.457633129823324"><ele>447.1666666666667</ele><time>2026-04-03T16:21:05.999Z</time></trkpt><trkpt lat="45.05206397014894" lon="7.457743512716425"><ele>447.33333333333337</ele><time>2026-04-03T16:21:06.999Z</time></trkpt><trkpt lat="45.05208350144855" lon="7.457864544473568"><ele>447.5</ele><time>2026-04-03T16:21:07.999Z</time></trkpt><trkpt lat="45.052108840199324" lon="7.457991549800744"><ele>447.6666666666667</ele><time>2026-04-03T16:21:08.999Z</time></trkpt><trkpt lat="45.05213149753551" lon="7.458115752523185"><ele>447.83333333333337</ele><time>2026-04-03T16:21:09.999Z</time></trkpt><trkpt lat="45.05215564502928" lon="7.458245651746587"><ele>448.0</ele><time>2026-04-03T16:21:10.999Z</time></trkpt><trkpt lat="45.05219837267334" lon="7.458384030824031"><ele>448.0</ele><time>2026-04-03T16:21:11.999Z</time></trkpt><trkpt lat="45.05221316419336" lon="7.458532971529075"><ele>448.0</ele><time>2026-04-03T16:21:12.999Z</time></trkpt><trkpt lat="45.05222303852042" lon="7.458704325340142"><ele>448.0</ele><time>2026-04-03T16:21:13.999Z</time></trkpt><trkpt lat="45.05228497568049" lon="7.458850387755859"><ele>448.0</ele><time>2026-04-03T16:21:14.999Z</time></trkpt><trkpt lat="45.05235177314045" lon="7.4589634240458675"><ele>446.75</ele><time>2026-04-03T16:21:15.999Z</time></trkpt><trkpt lat="45.05237763163778" lon="7.459163885785448"><ele>445.5</ele><time>2026-04-03T16:21:16.999Z</time></trkpt><trkpt lat="45.052437459053934" lon="7.4592950857768505"><ele>444.25</ele><time>2026-04-03T16:21:17.999Z</time></trkpt><trkpt lat="45.05250385914912" lon="7.459434014508962"><ele>443.0</ele><time>2026-04-03T16:21:18.999Z</time></trkpt><trkpt lat="45.05257607756922" lon="7.45951087279675"><ele>442.8333333333333</ele><time>2026-04-03T16:21:19.999Z</time></trkpt><trkpt lat="45.05262289972693" lon="7.459570657070925"><ele>442.66666666666663</ele><time>2026-04-03T16:21:20.999Z</time></trkpt><trkpt lat="45.052669866669895" lon="7.459692670544294"><ele>442.5</ele><time>2026-04-03T16:21:22.999Z</time></trkpt><trkpt lat="45.052657893489645" lon="7.45978702918361"><ele>442.33333333333337</ele><time>2026-04-03T16:21:23.999Z</time></trkpt><trkpt lat="45.0526464375272" lon="7.459886851716064"><ele>442.1666666666667</ele><time>2026-04-03T16:21:24.999Z</time></trkpt><trkpt lat="45.052651065652796" lon="7.459990904265336"><ele>442.0</ele><time>2026-04-03T16:21:25.999Z</time></trkpt><trkpt lat="45.0526580547405" lon="7.460106449639468"><ele>442.00000000000006</ele><time>2026-04-03T16:21:26.999Z</time></trkpt><trkpt lat="45.05266732095723" lon="7.4602126977670915"><ele>442.0</ele><time>2026-04-03T16:21:27.999Z</time></trkpt><trkpt lat="45.052672274363935" lon="7.460320001050764"><ele>442.0</ele><time>2026-04-03T16:21:28.999Z</time></trkpt><trkpt lat="45.05267216832923" lon="7.460417609625158"><ele>442.0</ele><time>2026-04-03T16:21:29.999Z</time></trkpt><trkpt lat="45.05266769340647" lon="7.460514377043006"><ele>442.0</ele><time>2026-04-03T16:21:30.999Z</time></trkpt><trkpt lat="45.05266089608831" lon="7.4606081801688395"><ele>442.00000000000006</ele><time>2026-04-03T16:21:31.999Z</time></trkpt><trkpt lat="45.05265386204162" lon="7.4607136947565005"><ele>442.0</ele><time>2026-04-03T16:21:32.999Z</time></trkpt><trkpt lat="45.05263416993555" lon="7.460817165127952"><ele>442.1666666666667</ele><time>2026-04-03T16:21:33.999Z</time></trkpt><trkpt lat="45.052606861234956" lon="7.46091943851277"><ele>442.33333333333337</ele><time>2026-04-03T16:21:34.999Z</time></trkpt><trkpt lat="45.052573385202905" lon="7.461011588367999"><ele>442.5</ele><time>2026-04-03T16:21:35.999Z</time></trkpt><trkpt lat="45.05253192809733" lon="7.4611024953992615"><ele>442.66666666666663</ele><time>2026-04-03T16:21:36.999Z</time></trkpt><trkpt lat="45.052486904902565" lon="7.461195561422964"><ele>442.8333333333333</ele><time>2026-04-03T16:21:37.999Z</time></trkpt><trkpt lat="45.05243648794894" lon="7.461288910200556"><ele>443.0</ele><time>2026-04-03T16:21:38.999Z</time></trkpt><trkpt lat="45.052383751985595" lon="7.461399708874029"><ele>443.79999999999995</ele><time>2026-04-03T16:21:39.999Z</time></trkpt><trkpt lat="45.05234673589295" lon="7.461524991957655"><ele>444.59999999999997</ele><time>2026-04-03T16:21:40.999Z</time></trkpt><trkpt lat="45.05232637152996" lon="7.461653999003954"><ele>445.40000000000003</ele><time>2026-04-03T16:21:41.998Z</time></trkpt><trkpt lat="45.052314950542396" lon="7.461806975489973"><ele>446.20000000000005</ele><time>2026-04-03T16:21:42.998Z</time></trkpt><trkpt lat="45.052304470370395" lon="7.46196846814735"><ele>447.0</ele><time>2026-04-03T16:21:43.998Z</time></trkpt><trkpt lat="45.05228507687782" lon="7.462074672723424"><ele>447.6</ele><time>2026-04-03T16:21:44.998Z</time></trkpt><trkpt lat="45.05225710815279" lon="7.46223634566952"><ele>448.20000000000005</ele><time>2026-04-03T16:21:45.998Z</time></trkpt><trkpt lat="45.05218860739109" lon="7.462362472193778"><ele>448.8</ele><time>2026-04-03T16:21:46.998Z</time></trkpt><trkpt lat="45.05212853342882" lon="7.462468386303202"><ele>449.4</ele><time>2026-04-03T16:21:47.998Z</time></trkpt><trkpt lat="45.05204270728534" lon="7.4625801874315725"><ele>450.0</ele><time>2026-04-03T16:21:48.998Z</time></trkpt><trkpt lat="45.05195627404785" lon="7.462691001231768"><ele>450.0</ele><time>2026-04-03T16:21:49.998Z</time></trkpt><trkpt lat="45.051905461076636" lon="7.462797406702091"><ele>450.0</ele><time>2026-04-03T16:21:50.998Z</time></trkpt><trkpt lat="45.05188291801432" lon="7.462896647635301"><ele>450.0</ele><time>2026-04-03T16:21:52.998Z</time></trkpt><trkpt lat="45.05187062582636" lon="7.462989529824198"><ele>450.0</ele><time>2026-04-03T16:21:54.998Z</time></trkpt><trkpt lat="45.05183898883407" lon="7.463139575422709"><ele>450.0</ele><time>2026-04-03T16:21:56.998Z</time></trkpt><trkpt lat="45.05183789054527" lon="7.463286650164362"><ele>450.0</ele><time>2026-04-03T16:21:58.998Z</time></trkpt><trkpt lat="45.05187022564469" lon="7.46343123891235"><ele>449.5714285714286</ele><time>2026-04-03T16:22:00.998Z</time></trkpt><trkpt lat="45.05189157131086" lon="7.463518081611022"><ele>449.14285714285717</ele><time>2026-04-03T16:22:01.998Z</time></trkpt><trkpt lat="45.05190560462284" lon="7.463622402961017"><ele>448.7142857142857</ele><time>2026-04-03T16:22:02.998Z</time></trkpt><trkpt lat="45.05190700503834" lon="7.463723751106971"><ele>448.28571428571433</ele><time>2026-04-03T16:22:03.998Z</time></trkpt><trkpt lat="45.05191369993848" lon="7.463823757906759"><ele>447.8571428571429</ele><time>2026-04-03T16:22:04.998Z</time></trkpt><trkpt lat="45.051908481839014" lon="7.463920403899351"><ele>447.4285714285714</ele><time>2026-04-03T16:22:05.998Z</time></trkpt><trkpt lat="45.05188002462807" lon="7.464018206539627"><ele>447.0</ele><time>2026-04-03T16:22:06.998Z</time></trkpt><trkpt lat="45.051835450187575" lon="7.464099388543206"><ele>447.8</ele><time>2026-04-03T16:22:07.998Z</time></trkpt><trkpt lat="45.0517791360153" lon="7.464178253089973"><ele>448.6</ele><time>2026-04-03T16:22:08.998Z</time></trkpt><trkpt lat="45.05169872749012" lon="7.464263981609185"><ele>449.40000000000003</ele><time>2026-04-03T16:22:09.998Z</time></trkpt><trkpt lat="45.0516252790681" lon="7.464326771482794"><ele>450.20000000000005</ele><time>2026-04-03T16:22:10.998Z</time></trkpt><trkpt lat="45.051531808109694" lon="7.464392636741424"><ele>451.0</ele><time>2026-04-03T16:22:11.998Z</time></trkpt><trkpt lat="45.051446320428944" lon="7.464458076426106"><ele>451.0</ele><time>2026-04-03T16:22:12.998Z</time></trkpt><trkpt lat="45.05137574844029" lon="7.464542758829863"><ele>451.0</ele><time>2026-04-03T16:22:14Z</time></trkpt><trkpt lat="45.051308451864024" lon="7.464666690867189"><ele>451.0</ele><time>2026-04-03T16:22:15Z</time></trkpt><trkpt lat="45.05122460874704" lon="7.464839862075582"><ele>451.0</ele><time>2026-04-03T16:22:16Z</time></trkpt><trkpt lat="45.05113715123106" lon="7.464988992426008"><ele>448.0</ele><time>2026-04-03T16:22:17Z</time></trkpt><trkpt lat="45.05105345653571" lon="7.465134122890604"><ele>445.0</ele><time>2026-04-03T16:22:18Z</time></trkpt><trkpt lat="45.05094416903823" lon="7.465284577319732"><ele>442.0</ele><time>2026-04-03T16:22:19Z</time></trkpt><trkpt lat="45.050839924580444" lon="7.465462942287903"><ele>439.0</ele><time>2026-04-03T16:22:20Z</time></trkpt><trkpt lat="45.05074059916472" lon="7.46558967643351"><ele>438.4</ele><time>2026-04-03T16:22:21Z</time></trkpt><trkpt lat="45.05065488569357" lon="7.4656888082281325"><ele>437.79999999999995</ele><time>2026-04-03T16:22:22Z</time></trkpt><trkpt lat="45.05059292886012" lon="7.4658014534479635"><ele>437.20000000000005</ele><time>2026-04-03T16:22:23Z</time></trkpt><trkpt lat="45.050528467759904" lon="7.465896200230175"><ele>436.6</ele><time>2026-04-03T16:22:24Z</time></trkpt><trkpt lat="45.05047871437671" lon="7.465983374307694"><ele>436.0</ele><time>2026-04-03T16:22:25Z</time></trkpt><trkpt lat="45.05043074910154" lon="7.466122891786789"><ele>436.00000000000006</ele><time>2026-04-03T16:22:27Z</time></trkpt><trkpt lat="45.050435843360674" lon="7.466221456995767"><ele>436.0</ele><time>2026-04-03T16:22:28Z</time></trkpt><trkpt lat="45.05045763923617" lon="7.466328581289293"><ele>436.0</ele><time>2026-04-03T16:22:29Z</time></trkpt><trkpt lat="45.05047422754014" lon="7.466424410376593"><ele>436.0</ele><time>2026-04-03T16:22:30Z</time></trkpt><trkpt lat="45.0504858530172" lon="7.466558819341488"><ele>436.00000000000006</ele><time>2026-04-03T16:22:32Z</time></trkpt><trkpt lat="45.050490469306546" lon="7.466653865414024"><ele>436.0</ele><time>2026-04-03T16:23:48.998Z</time></trkpt><trkpt lat="45.05063153102463" lon="7.466679933871499"><ele>433.0</ele><time>2026-04-03T16:23:50.998Z</time></trkpt><trkpt lat="45.05070916959957" lon="7.4666686718702895"><ele>430.0</ele><time>2026-04-03T16:23:51.998Z</time></trkpt><trkpt lat="45.05079302418503" lon="7.466685753989385"><ele>427.0</ele><time>2026-04-03T16:23:52.998Z</time></trkpt><trkpt lat="45.05088797187924" lon="7.466708941035148"><ele>424.0</ele><time>2026-04-03T16:23:53.998Z</time></trkpt><trkpt lat="45.05098717422623" lon="7.466729248327226"><ele>421.0</ele><time>2026-04-03T16:23:54.998Z</time></trkpt><trkpt lat="45.05109213350369" lon="7.466746522591153"><ele>421.00000000000006</ele><time>2026-04-03T16:23:55.998Z</time></trkpt><trkpt lat="45.0511957885971" lon="7.466765250054331"><ele>421.0</ele><time>2026-04-03T16:23:56.998Z</time></trkpt><trkpt lat="45.0512903594414" lon="7.466789313718254"><ele>421.0</ele><time>2026-04-03T16:23:57.998Z</time></trkpt><trkpt lat="45.05136128995879" lon="7.466827705434184"><ele>421.0</ele><time>2026-04-03T16:23:58.998Z</time></trkpt><trkpt lat="45.051426820621856" lon="7.466911979207535"><ele>421.00000000000006</ele><time>2026-04-03T16:24:00.998Z</time></trkpt><trkpt lat="45.05146621626551" lon="7.467008609144473"><ele>421.0</ele><time>2026-04-03T16:24:05.998Z</time></trkpt><trkpt lat="45.05130493981209" lon="7.467062131471111"><ele>421.0</ele><time>2026-04-03T16:24:08.998Z</time></trkpt><trkpt lat="45.05122994504973" lon="7.467092565747416"><ele>421.0</ele><time>2026-04-03T16:24:09.998Z</time></trkpt><trkpt lat="45.05114740898165" lon="7.467119717555884"><ele>421.0</ele><time>2026-04-03T16:24:10.998Z</time></trkpt><trkpt lat="45.051054001529685" lon="7.46715103697601"><ele>421.0</ele><time>2026-04-03T16:24:11.998Z</time></trkpt><trkpt lat="45.05096041714279" lon="7.467182119570763"><ele>421.0</ele><time>2026-04-03T16:24:12.998Z</time></trkpt><trkpt lat="45.05086334945296" lon="7.467213788010397"><ele>423.6</ele><time>2026-04-03T16:24:13.998Z</time></trkpt><trkpt lat="45.05077061628346" lon="7.467242449945029"><ele>426.20000000000005</ele><time>2026-04-03T16:24:14.998Z</time></trkpt><trkpt lat="45.05068811879667" lon="7.467267948227606"><ele>428.79999999999995</ele><time>2026-04-03T16:24:15.998Z</time></trkpt><trkpt lat="45.05059314336411" lon="7.467297303188792"><ele>431.4</ele><time>2026-04-03T16:24:16.998Z</time></trkpt><trkpt lat="45.05049571553625" lon="7.467327416131881"><ele>434.0</ele><time>2026-04-03T16:24:17.998Z</time></trkpt><trkpt lat="45.05039683404053" lon="7.467380756886636"><ele>434.0</ele><time>2026-04-03T16:24:18.998Z</time></trkpt><trkpt lat="45.050287267418774" lon="7.4673918431789845"><ele>434.0</ele><time>2026-04-03T16:24:20Z</time></trkpt><trkpt lat="45.05018590035337" lon="7.467422158524319"><ele>434.0</ele><time>2026-04-03T16:24:21Z</time></trkpt><trkpt lat="45.05008652424347" lon="7.467449177301543"><ele>434.0</ele><time>2026-04-03T16:24:22Z</time></trkpt><trkpt lat="45.04998303656965" lon="7.4674717260224055"><ele>434.0</ele><time>2026-04-03T16:24:23Z</time></trkpt><trkpt lat="45.04987794959682" lon="7.467490802326844"><ele>435.0</ele><time>2026-04-03T16:24:24Z</time></trkpt><trkpt lat="45.04977782331714" lon="7.467504076769412"><ele>436.0</ele><time>2026-04-03T16:24:25Z</time></trkpt><trkpt lat="45.04967085281809" lon="7.467514901166267"><ele>437.0</ele><time>2026-04-03T16:24:26Z</time></trkpt><trkpt lat="45.049580037088695" lon="7.467521490838681"><ele>438.0</ele><time>2026-04-03T16:24:27Z</time></trkpt><trkpt lat="45.04949073484458" lon="7.467519097596666"><ele>439.0</ele><time>2026-04-03T16:24:28Z</time></trkpt><trkpt lat="45.049401038874564" lon="7.46749484366372"><ele>439.0</ele><time>2026-04-03T16:24:29Z</time></trkpt><trkpt lat="45.04930650985347" lon="7.4674625026584485"><ele>439.0</ele><time>2026-04-03T16:24:30Z</time></trkpt><trkpt lat="45.0492221346901" lon="7.467454143267484"><ele>439.0</ele><time>2026-04-03T16:24:31Z</time></trkpt><trkpt lat="45.04911128836203" lon="7.467517604555171"><ele>439.0</ele><time>2026-04-03T16:24:33Z</time></trkpt><trkpt lat="45.049166528457505" lon="7.467654921665702"><ele>439.0</ele><time>2026-04-03T16:24:36Z</time></trkpt><trkpt lat="45.04923045218564" lon="7.4677228095222645"><ele>439.0</ele><time>2026-04-03T16:24:37Z</time></trkpt><trkpt lat="45.04929569139289" lon="7.467805914165634"><ele>439.0</ele><time>2026-04-03T16:24:38Z</time></trkpt><trkpt lat="45.04938416660715" lon="7.467871583876546"><ele>439.0</ele><time>2026-04-03T16:24:39Z</time></trkpt><trkpt lat="45.04946901944084" lon="7.467927712912615"><ele>439.0</ele><time>2026-04-03T16:24:40Z</time></trkpt><trkpt lat="45.0495691144615" lon="7.467956554207224"><ele>439.0</ele><time>2026-04-03T16:24:41Z</time></trkpt><trkpt lat="45.04967432040276" lon="7.467980980373194"><ele>439.6</ele><time>2026-04-03T16:24:42Z</time></trkpt><trkpt lat="45.049780519247484" lon="7.468015264368202"><ele>440.2</ele><time>2026-04-03T16:24:43Z</time></trkpt><trkpt lat="45.04988915401936" lon="7.468046269207468"><ele>440.80000000000007</ele><time>2026-04-03T16:24:44Z</time></trkpt><trkpt lat="45.049999999271485" lon="7.46807512495236"><ele>441.40000000000003</ele><time>2026-04-03T16:24:45Z</time></trkpt><trkpt lat="45.05011421220915" lon="7.468102707282976"><ele>442.0</ele><time>2026-04-03T16:24:46Z</time></trkpt><trkpt lat="45.05022779108544" lon="7.468123118514812"><ele>443.0</ele><time>2026-04-03T16:24:47Z</time></trkpt><trkpt lat="45.05033374516352" lon="7.468148315784166"><ele>444.00000000000006</ele><time>2026-04-03T16:24:48Z</time></trkpt><trkpt lat="45.05042051070964" lon="7.46819626269218"><ele>445.00000000000006</ele><time>2026-04-03T16:24:49Z</time></trkpt><trkpt lat="45.05049373946573" lon="7.468270750212988"><ele>446.0</ele><time>2026-04-03T16:24:50Z</time></trkpt><trkpt lat="45.05056482655829" lon="7.468359486900614"><ele>447.0</ele><time>2026-04-03T16:24:51Z</time></trkpt><trkpt lat="45.05063913446067" lon="7.468451979592796"><ele>447.0</ele><time>2026-04-03T16:24:52Z</time></trkpt><trkpt lat="45.050708780616944" lon="7.468550451874411"><ele>447.00000000000006</ele><time>2026-04-03T16:24:53Z</time></trkpt><trkpt lat="45.050772287977324" lon="7.46865163963282"><ele>447.00000000000006</ele><time>2026-04-03T16:24:54Z</time></trkpt><trkpt lat="45.050822971456675" lon="7.468759139098754"><ele>447.0</ele><time>2026-04-03T16:24:55Z</time></trkpt><trkpt lat="45.05083810786214" lon="7.468886578799995"><ele>447.0</ele><time>2026-04-03T16:24:56Z</time></trkpt><trkpt lat="45.05085429492986" lon="7.469049011350776"><ele>448.75</ele><time>2026-04-03T16:24:57Z</time></trkpt><trkpt lat="45.05089195550533" lon="7.469208244593157"><ele>450.5</ele><time>2026-04-03T16:24:58Z</time></trkpt><trkpt lat="45.05093003668827" lon="7.469365570481055"><ele>452.25</ele><time>2026-04-03T16:24:59Z</time></trkpt><trkpt lat="45.050989671734314" lon="7.469505971606322"><ele>454.0</ele><time>2026-04-03T16:25:00Z</time></trkpt><trkpt lat="45.051048650649314" lon="7.469640850737986"><ele>454.4</ele><time>2026-04-03T16:25:01Z</time></trkpt><trkpt lat="45.05113189697731" lon="7.469737288454959"><ele>454.79999999999995</ele><time>2026-04-03T16:25:02Z</time></trkpt><trkpt lat="45.05121933717933" lon="7.46982439705852"><ele>455.20000000000005</ele><time>2026-04-03T16:25:03Z</time></trkpt><trkpt lat="45.05132001125328" lon="7.469870409646249"><ele>455.6</ele><time>2026-04-03T16:25:04Z</time></trkpt><trkpt lat="45.05142607946998" lon="7.4699287996915835"><ele>456.0</ele><time>2026-04-03T16:25:04.999Z</time></trkpt><trkpt lat="45.05154505170156" lon="7.469914251544456"><ele>455.0</ele><time>2026-04-03T16:25:05.999Z</time></trkpt><trkpt lat="45.05165370322428" lon="7.469924964173105"><ele>454.0</ele><time>2026-04-03T16:25:06.999Z</time></trkpt><trkpt lat="45.05175391663757" lon="7.469960743688717"><ele>453.0</ele><time>2026-04-03T16:25:07.999Z</time></trkpt><trkpt lat="45.05184688355428" lon="7.469981798516117"><ele>452.0</ele><time>2026-04-03T16:25:08.999Z</time></trkpt><trkpt lat="45.0519257682735" lon="7.469996246750446"><ele>451.0</ele><time>2026-04-03T16:25:09.999Z</time></trkpt><trkpt lat="45.05199988063236" lon="7.470018235903325"><ele>451.0</ele><time>2026-04-03T16:25:10.999Z</time></trkpt><trkpt lat="45.05205917530014" lon="7.470056460015502"><ele>451.0</ele><time>2026-04-03T16:25:11.999Z</time></trkpt><trkpt lat="45.052087584321185" lon="7.4701440283016876"><ele>451.0</ele><time>2026-04-03T16:25:13.999Z</time></trkpt><trkpt lat="45.05214112067859" lon="7.4702512957761575"><ele>451.0</ele><time>2026-04-03T16:25:15.999Z</time></trkpt><trkpt lat="45.0521707324356" lon="7.470361880202613"><ele>451.0</ele><time>2026-04-03T16:25:17.999Z</time></trkpt><trkpt lat="45.0525860814027" lon="7.4709971669829365"><ele>448.6666666666667</ele><time>2026-04-03T16:25:18.999Z</time></trkpt><trkpt lat="45.05283615740416" lon="7.47103304068634"><ele>446.33333333333337</ele><time>2026-04-03T16:25:24.999Z</time></trkpt><trkpt lat="45.052877114910444" lon="7.471110527350443"><ele>444.0</ele><time>2026-04-03T16:25:26.999Z</time></trkpt><trkpt lat="45.05290454288495" lon="7.471306047798633"><ele>442.75</ele><time>2026-04-03T16:25:28.999Z</time></trkpt><trkpt lat="45.05292062944757" lon="7.4715013134651995"><ele>441.5</ele><time>2026-04-03T16:25:29.999Z</time></trkpt><trkpt lat="45.05293466769616" lon="7.471677911892599"><ele>440.25</ele><time>2026-04-03T16:25:30.999Z</time></trkpt><trkpt lat="45.0529471107771" lon="7.4718236078513875"><ele>439.0</ele><time>2026-04-03T16:25:31.999Z</time></trkpt><trkpt lat="45.052957485600174" lon="7.47194508592617"><ele>445.6666666666667</ele><time>2026-04-03T16:25:32.999Z</time></trkpt><trkpt lat="45.05329429023919" lon="7.471829242670469"><ele>452.33333333333337</ele><time>2026-04-03T16:25:37.999Z</time></trkpt><trkpt lat="45.05339271617804" lon="7.471818496414378"><ele>459.0</ele><time>2026-04-03T16:25:39.999Z</time></trkpt><trkpt lat="45.05346196574681" lon="7.471860671868713"><ele>459.0</ele><time>2026-04-03T16:25:40.999Z</time></trkpt><trkpt lat="45.053578210934496" lon="7.471899164159309"><ele>459.0</ele><time>2026-04-03T16:25:42.999Z</time></trkpt><trkpt lat="45.05365354396289" lon="7.4718542168947355"><ele>459.0</ele><time>2026-04-03T16:25:43.999Z</time></trkpt><trkpt lat="45.053743970546805" lon="7.471791487511911"><ele>459.0</ele><time>2026-04-03T16:25:44.999Z</time></trkpt><trkpt lat="45.05383349256616" lon="7.471719356577063"><ele>459.0</ele><time>2026-04-03T16:25:45.999Z</time></trkpt><trkpt lat="45.05391274306337" lon="7.471674815041146"><ele>459.0</ele><time>2026-04-03T16:25:46.999Z</time></trkpt><trkpt lat="45.054011960445855" lon="7.471661992684453"><ele>459.0</ele><time>2026-04-03T16:25:48.999Z</time></trkpt><trkpt lat="45.05406612823685" lon="7.47158977157436"><ele>459.0</ele><time>2026-04-03T16:25:52.999Z</time></trkpt><trkpt lat="45.054081412521995" lon="7.471411796602959"><ele>459.0</ele><time>2026-04-03T16:25:54.999Z</time></trkpt><trkpt lat="45.05413148098446" lon="7.471263088252154"><ele>459.0</ele><time>2026-04-03T16:25:56.999Z</time></trkpt><trkpt lat="45.054224334484466" lon="7.471152512052084"><ele>463.2</ele><time>2026-04-03T16:25:58.999Z</time></trkpt><trkpt lat="45.05427324281751" lon="7.471005924898563"><ele>467.4</ele><time>2026-04-03T16:26:00.999Z</time></trkpt><trkpt lat="45.054286820163966" lon="7.470903221350228"><ele>471.6</ele><time>2026-04-03T16:26:01.999Z</time></trkpt><trkpt lat="45.05431272237928" lon="7.470801983223875"><ele>475.8</ele><time>2026-04-03T16:26:02.999Z</time></trkpt><trkpt lat="45.054399626828264" lon="7.470678413085292"><ele>480.0</ele><time>2026-04-03T16:26:04.998Z</time></trkpt><trkpt lat="45.054471838216315" lon="7.4706015923949645"><ele>480.0</ele><time>2026-04-03T16:26:06.998Z</time></trkpt><trkpt lat="45.05456755539019" lon="7.470528494364766"><ele>480.0</ele><time>2026-04-03T16:26:08.998Z</time></trkpt><trkpt lat="45.05464670854044" lon="7.4704888768220625"><ele>480.0</ele><time>2026-04-03T16:26:10.998Z</time></trkpt><trkpt lat="45.05465876659484" lon="7.470358696507429"><ele>480.0</ele><time>2026-04-03T16:26:12.998Z</time></trkpt><trkpt lat="45.054668327699595" lon="7.4702576416015845"><ele>480.0</ele><time>2026-04-03T16:26:18.998Z</time></trkpt><trkpt lat="45.054684906400055" lon="7.470096146753577"><ele>481.8</ele><time>2026-04-03T16:26:20.998Z</time></trkpt><trkpt lat="45.054718843512575" lon="7.469969542293844"><ele>483.6</ele><time>2026-04-03T16:26:22.998Z</time></trkpt><trkpt lat="45.05476100381248" lon="7.469851071534896"><ele>485.4</ele><time>2026-04-03T16:26:26Z</time></trkpt><trkpt lat="45.05479130780921" lon="7.469756967467862"><ele>487.2</ele><time>2026-04-03T16:26:28Z</time></trkpt><trkpt lat="45.054714914997284" lon="7.4697910920437804"><ele>489.0</ele><time>2026-04-03T16:26:42Z</time></trkpt><trkpt lat="45.05460151020786" lon="7.469818552527442"><ele>489.0</ele><time>2026-04-03T16:26:44Z</time></trkpt><trkpt lat="45.05453800165475" lon="7.469821215788037"><ele>489.00000000000006</ele><time>2026-04-03T16:26:45Z</time></trkpt><trkpt lat="45.05446488138994" lon="7.469840266305782"><ele>489.0</ele><time>2026-04-03T16:26:46Z</time></trkpt><trkpt lat="45.05439698544195" lon="7.4698493356878535"><ele>489.0</ele><time>2026-04-03T16:26:47Z</time></trkpt><trkpt lat="45.05431997847696" lon="7.469847489183378"><ele>489.00000000000006</ele><time>2026-04-03T16:26:48Z</time></trkpt><trkpt lat="45.05425182391552" lon="7.469837817313389"><ele>489.0</ele><time>2026-04-03T16:26:49Z</time></trkpt><trkpt lat="45.05417800872428" lon="7.469811127017098"><ele>489.0</ele><time>2026-04-03T16:26:50Z</time></trkpt><trkpt lat="45.05411989499434" lon="7.469773091516098"><ele>485.0</ele><time>2026-04-03T16:26:51Z</time></trkpt><trkpt lat="45.05401706095098" lon="7.469666077086681"><ele>481.0</ele><time>2026-04-03T16:26:53Z</time></trkpt><trkpt lat="45.05392420425514" lon="7.469553211395013"><ele>477.0</ele><time>2026-04-03T16:26:55Z</time></trkpt><trkpt lat="45.0538495316366" lon="7.4695180811955"><ele>473.0</ele><time>2026-04-03T16:26:56Z</time></trkpt><trkpt lat="45.05378716655662" lon="7.469489625025229"><ele>469.0</ele><time>2026-04-03T16:26:57Z</time></trkpt><trkpt lat="45.0537255736816" lon="7.46946153234529"><ele>469.0</ele><time>2026-04-03T16:26:58Z</time></trkpt><trkpt lat="45.05355290044736" lon="7.4693724277993985"><ele>469.0</ele><time>2026-04-03T16:27:01Z</time></trkpt><trkpt lat="45.053471259308296" lon="7.4692774323962405"><ele>469.0</ele><time>2026-04-03T16:27:03Z</time></trkpt><trkpt lat="45.053496801468064" lon="7.469152050467783"><ele>469.0</ele><time>2026-04-03T16:27:05Z</time></trkpt><trkpt lat="45.05353065501564" lon="7.469049718551038"><ele>469.00000000000006</ele><time>2026-04-03T16:27:06Z</time></trkpt><trkpt lat="45.05356465690605" lon="7.468959139726792"><ele>469.0</ele><time>2026-04-03T16:27:06.999Z</time></trkpt><trkpt lat="45.05355338509552" lon="7.468837314790974"><ele>469.0</ele><time>2026-04-03T16:27:08.999Z</time></trkpt><trkpt lat="45.05348558334239" lon="7.46879875298104"><ele>469.0</ele><time>2026-04-03T16:27:09.999Z</time></trkpt><trkpt lat="45.05341945169007" lon="7.468689729196861"><ele>469.00000000000006</ele><time>2026-04-03T16:27:11.999Z</time></trkpt><trkpt lat="45.05342196923547" lon="7.468599100007575"><ele>469.0</ele><time>2026-04-03T16:27:12.999Z</time></trkpt><trkpt lat="45.0534240623983" lon="7.468482898839846"><ele>468.50000000000006</ele><time>2026-04-03T16:27:13.999Z</time></trkpt><trkpt lat="45.05342169388163" lon="7.468349584921844"><ele>468.0</ele><time>2026-04-03T16:27:14.999Z</time></trkpt><trkpt lat="45.05343460784613" lon="7.468233503619182"><ele>467.5</ele><time>2026-04-03T16:27:15.999Z</time></trkpt><trkpt lat="45.05346867621881" lon="7.468114474086807"><ele>467.0</ele><time>2026-04-03T16:27:16.999Z</time></trkpt><trkpt lat="45.05349694418023" lon="7.468002430854363"><ele>466.50000000000006</ele><time>2026-04-03T16:27:17.999Z</time></trkpt><trkpt lat="45.053490986754014" lon="7.467904923267279"><ele>466.0</ele><time>2026-04-03T16:27:18.999Z</time></trkpt><trkpt lat="45.05344902407221" lon="7.467837114024337"><ele>466.0</ele><time>2026-04-03T16:27:19.999Z</time></trkpt><trkpt lat="45.05339913441335" lon="7.467770304857458"><ele>466.0</ele><time>2026-04-03T16:27:20.999Z</time></trkpt><trkpt lat="45.053298612220374" lon="7.4676222893065685"><ele>466.0</ele><time>2026-04-03T16:27:22.999Z</time></trkpt><trkpt lat="45.05323463129108" lon="7.467548991067773"><ele>466.0</ele><time>2026-04-03T16:27:23.999Z</time></trkpt><trkpt lat="45.0531596297305" lon="7.467505330753091"><ele>466.0</ele><time>2026-04-03T16:27:24.999Z</time></trkpt><trkpt lat="45.0530564886154" lon="7.467499096293776"><ele>464.1666666666667</ele><time>2026-04-03T16:27:25.999Z</time></trkpt><trkpt lat="45.05296796203293" lon="7.4674732870531635"><ele>462.33333333333337</ele><time>2026-04-03T16:27:26.999Z</time></trkpt><trkpt lat="45.05285624692716" lon="7.467413881869029"><ele>460.5</ele><time>2026-04-03T16:27:27.999Z</time></trkpt><trkpt lat="45.05277527497941" lon="7.467371121426474"><ele>458.66666666666663</ele><time>2026-04-03T16:27:28.999Z</time></trkpt><trkpt lat="45.05270930301005" lon="7.4673485723041955"><ele>456.8333333333333</ele><time>2026-04-03T16:27:29.999Z</time></trkpt><trkpt lat="45.05264412265523" lon="7.467363507613918"><ele>455.0</ele><time>2026-04-03T16:27:30.999Z</time></trkpt><trkpt lat="45.05258129973798" lon="7.4674568478388785"><ele>455.0</ele><time>2026-04-03T16:27:32.999Z</time></trkpt><trkpt lat="45.05252172683408" lon="7.467540801787072"><ele>455.0</ele><time>2026-04-03T16:27:34.999Z</time></trkpt><trkpt lat="45.052451288076035" lon="7.467631829599638"><ele>455.0</ele><time>2026-04-03T16:27:36.999Z</time></trkpt><trkpt lat="45.05234220385596" lon="7.4677325349650285"><ele>455.0</ele><time>2026-04-03T16:27:38.999Z</time></trkpt><trkpt lat="45.05227022172535" lon="7.467758274234849"><ele>455.0</ele><time>2026-04-03T16:27:39.999Z</time></trkpt><trkpt lat="45.0521721808508" lon="7.467791657932015"><ele>453.8333333333333</ele><time>2026-04-03T16:27:41.999Z</time></trkpt><trkpt lat="45.05212931872894" lon="7.467932444506205"><ele>452.66666666666663</ele><time>2026-04-03T16:27:43.999Z</time></trkpt><trkpt lat="45.05212826939934" lon="7.468089913448892"><ele>451.5</ele><time>2026-04-03T16:27:45.999Z</time></trkpt><trkpt lat="45.05208178965408" lon="7.468156534235044"><ele>450.33333333333337</ele><time>2026-04-03T16:27:48.999Z</time></trkpt><trkpt lat="45.052072326301115" lon="7.4680549419026745"><ele>449.1666666666667</ele><time>2026-04-03T16:27:51.999Z</time></trkpt><trkpt lat="45.052141423036595" lon="7.467990067515673"><ele>448.0</ele><time>2026-04-03T16:27:56.999Z</time></trkpt><trkpt lat="45.052143361099944" lon="7.467887211356276"><ele>446.83333333333337</ele><time>2026-04-03T16:27:57.999Z</time></trkpt><trkpt lat="45.0521572103693" lon="7.467793663656649"><ele>445.6666666666667</ele><time>2026-04-03T16:27:58.999Z</time></trkpt><trkpt lat="45.05219754049817" lon="7.467724391139597"><ele>444.5</ele><time>2026-04-03T16:27:59.999Z</time></trkpt><trkpt lat="45.05234600006637" lon="7.467705522151312"><ele>443.33333333333337</ele><time>2026-04-03T16:28:01.999Z</time></trkpt><trkpt lat="45.052418074689626" lon="7.467675203349095"><ele>442.1666666666667</ele><time>2026-04-03T16:28:02.999Z</time></trkpt><trkpt lat="45.05249344672951" lon="7.46760793317357"><ele>441.0</ele><time>2026-04-03T16:28:03.999Z</time></trkpt><trkpt lat="45.05254951017036" lon="7.467499481573389"><ele>443.3333333333333</ele><time>2026-04-03T16:28:04.998Z</time></trkpt><trkpt lat="45.05259872928545" lon="7.467397071074605"><ele>445.66666666666663</ele><time>2026-04-03T16:28:05.998Z</time></trkpt><trkpt lat="45.052653131844984" lon="7.467348683776539"><ele>448.0</ele><time>2026-04-03T16:28:06.998Z</time></trkpt><trkpt lat="45.05272145309186" lon="7.4673462998354"><ele>450.3333333333333</ele><time>2026-04-03T16:28:07.998Z</time></trkpt><trkpt lat="45.05278438378199" lon="7.467342853632322"><ele>452.66666666666663</ele><time>2026-04-03T16:28:08.998Z</time></trkpt><trkpt lat="45.05282673639469" lon="7.467242876026348"><ele>455.0</ele><time>2026-04-03T16:28:10.998Z</time></trkpt><trkpt lat="45.05292992914988" lon="7.467166139318057"><ele>453.8333333333333</ele><time>2026-04-03T16:28:12.998Z</time></trkpt><trkpt lat="45.05298926273043" lon="7.4671093772509325"><ele>452.66666666666663</ele><time>2026-04-03T16:28:13.998Z</time></trkpt><trkpt lat="45.053023694937636" lon="7.467021535067205"><ele>451.5</ele><time>2026-04-03T16:28:14.998Z</time></trkpt><trkpt lat="45.05306032527234" lon="7.4669195969960125"><ele>450.33333333333337</ele><time>2026-04-03T16:28:15.998Z</time></trkpt><trkpt lat="45.05309000718872" lon="7.4668395175900555"><ele>449.1666666666667</ele><time>2026-04-03T16:28:16.998Z</time></trkpt><trkpt lat="45.05313240773559" lon="7.466708735462153"><ele>448.0</ele><time>2026-04-03T16:28:18.998Z</time></trkpt><trkpt lat="45.05316359949242" lon="7.466540144528552"><ele>448.00000000000006</ele><time>2026-04-03T16:28:20.998Z</time></trkpt><trkpt lat="45.053189484930606" lon="7.466452029474383"><ele>448.0</ele><time>2026-04-03T16:28:21.998Z</time></trkpt><trkpt lat="45.05321277441051" lon="7.466368874058948"><ele>448.0</ele><time>2026-04-03T16:28:22.998Z</time></trkpt><trkpt lat="45.05319741970175" lon="7.466456458002705"><ele>448.0</ele><time>2026-04-03T16:29:07Z</time></trkpt><trkpt lat="45.053196280088365" lon="7.466561916830333"><ele>448.00000000000006</ele><time>2026-04-03T16:30:11.998Z</time></trkpt><trkpt lat="45.05317434277768" lon="7.466650143827708"><ele>448.0</ele><time>2026-04-03T16:30:13.998Z</time></trkpt><trkpt lat="45.05313727704843" lon="7.46683248832258"><ele>448.00000000000006</ele><time>2026-04-03T16:30:15.998Z</time></trkpt><trkpt lat="45.053089719308545" lon="7.4669262302496815"><ele>448.0</ele><time>2026-04-03T16:30:16.998Z</time></trkpt><trkpt lat="45.05303342984481" lon="7.467031869452801"><ele>448.0</ele><time>2026-04-03T16:30:17.998Z</time></trkpt><trkpt lat="45.05298548528059" lon="7.467116765596898"><ele>448.0</ele><time>2026-04-03T16:30:18.998Z</time></trkpt><trkpt lat="45.05289198471035" lon="7.467225021809181"><ele>448.00000000000006</ele><time>2026-04-03T16:30:20.998Z</time></trkpt><trkpt lat="45.05282520776155" lon="7.467253872938164"><ele>448.0</ele><time>2026-04-03T16:30:22.998Z</time></trkpt><trkpt lat="45.052813560418095" lon="7.467347530704731"><ele>449.4</ele><time>2026-04-03T16:30:25.998Z</time></trkpt><trkpt lat="45.05292779356343" lon="7.467423161263506"><ele>450.79999999999995</ele><time>2026-04-03T16:30:28.998Z</time></trkpt><trkpt lat="45.05299708059199" lon="7.467450882809585"><ele>452.2</ele><time>2026-04-03T16:30:29.998Z</time></trkpt><trkpt lat="45.053091485180076" lon="7.467495166503915"><ele>453.6</ele><time>2026-04-03T16:30:30.998Z</time></trkpt><trkpt lat="45.05319464754909" lon="7.467531304868152"><ele>455.0</ele><time>2026-04-03T16:30:31.998Z</time></trkpt><trkpt lat="45.05327631724503" lon="7.467573882570297"><ele>456.8333333333333</ele><time>2026-04-03T16:30:32.998Z</time></trkpt><trkpt lat="45.053332415852125" lon="7.467623542799062"><ele>458.66666666666663</ele><time>2026-04-03T16:30:33.998Z</time></trkpt><trkpt lat="45.05338755469158" lon="7.467716488979398"><ele>460.5</ele><time>2026-04-03T16:30:34.998Z</time></trkpt><trkpt lat="45.05343314361421" lon="7.467814582861258"><ele>462.33333333333337</ele><time>2026-04-03T16:30:35.998Z</time></trkpt><trkpt lat="45.05348218696581" lon="7.467918386753993"><ele>464.1666666666667</ele><time>2026-04-03T16:30:36.998Z</time></trkpt><trkpt lat="45.0535112323906" lon="7.468049785311807"><ele>466.0</ele><time>2026-04-03T16:30:38Z</time></trkpt><trkpt lat="45.0534861945188" lon="7.468145002308912"><ele>466.00000000000006</ele><time>2026-04-03T16:30:39Z</time></trkpt><trkpt lat="45.05344025401395" lon="7.46824431959867"><ele>466.0</ele><time>2026-04-03T16:30:40Z</time></trkpt><trkpt lat="45.053410183606296" lon="7.468367771410327"><ele>466.0</ele><time>2026-04-03T16:30:41Z</time></trkpt><trkpt lat="45.053398492961044" lon="7.468489390278772"><ele>466.0</ele><time>2026-04-03T16:30:42Z</time></trkpt><trkpt lat="45.053407141704525" lon="7.468593377592838"><ele>466.00000000000006</ele><time>2026-04-03T16:30:43Z</time></trkpt><trkpt lat="45.05343542240632" lon="7.468692403929138"><ele>466.0</ele><time>2026-04-03T16:30:44Z</time></trkpt><trkpt lat="45.05346229012401" lon="7.468817205012927"><ele>466.6</ele><time>2026-04-03T16:30:46Z</time></trkpt><trkpt lat="45.05354482211661" lon="7.4688840317274"><ele>467.20000000000005</ele><time>2026-04-03T16:30:48Z</time></trkpt><trkpt lat="45.05356391829303" lon="7.468985805603265"><ele>467.79999999999995</ele><time>2026-04-03T16:30:51Z</time></trkpt><trkpt lat="45.05350796689813" lon="7.469161986914443"><ele>468.4</ele><time>2026-04-03T16:30:53Z</time></trkpt><trkpt lat="45.05349079923492" lon="7.469309220659888"><ele>469.0</ele><time>2026-04-03T16:30:55Z</time></trkpt><trkpt lat="45.05355901973792" lon="7.469357258921387"><ele>469.00000000000006</ele><time>2026-04-03T16:30:57Z</time></trkpt><trkpt lat="45.053659935828406" lon="7.469419878966919"><ele>469.0</ele><time>2026-04-03T16:30:59Z</time></trkpt><trkpt lat="45.05372944676005" lon="7.469454457682503"><ele>469.0</ele><time>2026-04-03T16:31:00Z</time></trkpt><trkpt lat="45.05379665681583" lon="7.469493051424917"><ele>469.0</ele><time>2026-04-03T16:31:01Z</time></trkpt><trkpt lat="45.05386414141997" lon="7.469522789878803"><ele>469.00000000000006</ele><time>2026-04-03T16:31:02Z</time></trkpt><trkpt lat="45.05396948857473" lon="7.469582860372385"><ele>469.0</ele><time>2026-04-03T16:31:04Z</time></trkpt><trkpt lat="45.054068784183265" lon="7.469700183346638"><ele>469.00000000000006</ele><time>2026-04-03T16:31:06Z</time></trkpt><trkpt lat="45.054120059252334" lon="7.469766572982051"><ele>469.0</ele><time>2026-04-03T16:31:07Z</time></trkpt><trkpt lat="45.054194560032535" lon="7.469817538747588"><ele>469.0</ele><time>2026-04-03T16:31:08Z</time></trkpt><trkpt lat="45.05427293402905" lon="7.4698377878372515"><ele>469.0</ele><time>2026-04-03T16:31:09Z</time></trkpt><trkpt lat="45.05436226182995" lon="7.469844529744701"><ele>469.00000000000006</ele><time>2026-04-03T16:31:10Z</time></trkpt><trkpt lat="45.05445946889893" lon="7.4698369774003615"><ele>469.0</ele><time>2026-04-03T16:31:11Z</time></trkpt><trkpt lat="45.0545581201518" lon="7.469819940033398"><ele>473.0</ele><time>2026-04-03T16:31:12Z</time></trkpt><trkpt lat="45.05462230389245" lon="7.46979508756457"><ele>477.0</ele><time>2026-04-03T16:31:13Z</time></trkpt><trkpt lat="45.05469351146528" lon="7.469799085885794"><ele>481.0</ele><time>2026-04-03T16:31:14Z</time></trkpt><trkpt lat="45.0547834008702" lon="7.469733120021831"><ele>485.0</ele><time>2026-04-03T16:31:16Z</time></trkpt><trkpt lat="45.05480901294887" lon="7.469549358003713"><ele>489.0</ele><time>2026-04-03T16:31:18Z</time></trkpt><trkpt lat="45.05479119751508" lon="7.4694037146713566"><ele>489.1666666666667</ele><time>2026-04-03T16:31:19Z</time></trkpt><trkpt lat="45.05477792648043" lon="7.469282753085738"><ele>489.33333333333337</ele><time>2026-04-03T16:31:20Z</time></trkpt><trkpt lat="45.05477568334509" lon="7.4691831182134"><ele>489.5</ele><time>2026-04-03T16:31:21Z</time></trkpt><trkpt lat="45.05479591071859" lon="7.469089807599071"><ele>489.6666666666667</ele><time>2026-04-03T16:31:22Z</time></trkpt><trkpt lat="45.054821735489426" lon="7.468984295394076"><ele>489.83333333333337</ele><time>2026-04-03T16:31:23Z</time></trkpt><trkpt lat="45.05484202336813" lon="7.468873050339306"><ele>490.0</ele><time>2026-04-03T16:31:23.999Z</time></trkpt><trkpt lat="45.054858000577596" lon="7.468735968059547"><ele>491.00000000000006</ele><time>2026-04-03T16:31:24.999Z</time></trkpt><trkpt lat="45.0548716358803" lon="7.468618161832693"><ele>492.0</ele><time>2026-04-03T16:31:25.999Z</time></trkpt><trkpt lat="45.0548914619659" lon="7.468516618484153"><ele>493.0</ele><time>2026-04-03T16:31:26.999Z</time></trkpt><trkpt lat="45.05492708521044" lon="7.468361718896131"><ele>494.0</ele><time>2026-04-03T16:31:28.999Z</time></trkpt><trkpt lat="45.054924772800966" lon="7.468267151020702"><ele>495.00000000000006</ele><time>2026-04-03T16:31:29.999Z</time></trkpt><trkpt lat="45.05493266881556" lon="7.468171923662398"><ele>496.0</ele><time>2026-04-03T16:31:30.999Z</time></trkpt><trkpt lat="45.055013628992185" lon="7.468057387386814"><ele>496.00000000000006</ele><time>2026-04-03T16:31:32.999Z</time></trkpt><trkpt lat="45.055105932249376" lon="7.468057430543036"><ele>496.0</ele><time>2026-04-03T16:31:34.999Z</time></trkpt><trkpt lat="45.05516921925097" lon="7.468100011350097"><ele>496.0</ele><time>2026-04-03T16:31:35.999Z</time></trkpt><trkpt lat="45.05523622812787" lon="7.468137519317049"><ele>496.0</ele><time>2026-04-03T16:31:36.999Z</time></trkpt><trkpt lat="45.05528892330799" lon="7.468203693184576"><ele>496.00000000000006</ele><time>2026-04-03T16:31:38.999Z</time></trkpt><trkpt lat="45.055353237988285" lon="7.468246820200231"><ele>496.0</ele><time>2026-04-03T16:31:40.999Z</time></trkpt><trkpt lat="45.05558968718374" lon="7.468261185224216"><ele>496.0</ele><time>2026-04-03T16:31:45.999Z</time></trkpt><trkpt lat="45.055687096165904" lon="7.468200816418274"><ele>496.0</ele><time>2026-04-03T16:31:47.999Z</time></trkpt><trkpt lat="45.05578991157314" lon="7.468136656786406"><ele>496.0</ele><time>2026-04-03T16:31:49.999Z</time></trkpt><trkpt lat="45.05585406297214" lon="7.4680767864601165"><ele>496.0</ele><time>2026-04-03T16:31:50.999Z</time></trkpt><trkpt lat="45.05593633478056" lon="7.467996635994113"><ele>496.0</ele><time>2026-04-03T16:31:51.999Z</time></trkpt><trkpt lat="45.05606227094047" lon="7.467919225619228"><ele>497.5</ele><time>2026-04-03T16:31:52.999Z</time></trkpt><trkpt lat="45.05622965291305" lon="7.467861757275745"><ele>499.0</ele><time>2026-04-03T16:31:53.999Z</time></trkpt><trkpt lat="45.056346410198735" lon="7.4678252752178365"><ele>500.5</ele><time>2026-04-03T16:31:54.999Z</time></trkpt><trkpt lat="45.05644603725869" lon="7.467818196195442"><ele>502.0</ele><time>2026-04-03T16:31:55.999Z</time></trkpt><trkpt lat="45.05653189438804" lon="7.4678137360078685"><ele>499.8</ele><time>2026-04-03T16:31:56.999Z</time></trkpt><trkpt lat="45.056643725092044" lon="7.46784925431223"><ele>497.6</ele><time>2026-04-03T16:31:58.999Z</time></trkpt><trkpt lat="45.05672679154722" lon="7.467955457184297"><ele>495.40000000000003</ele><time>2026-04-03T16:31:59.999Z</time></trkpt><trkpt lat="45.05682523834763" lon="7.468053515518954"><ele>493.20000000000005</ele><time>2026-04-03T16:32:00.999Z</time></trkpt><trkpt lat="45.056919827530244" lon="7.468090148692289"><ele>491.0</ele><time>2026-04-03T16:32:01.999Z</time></trkpt><trkpt lat="45.056991915185066" lon="7.468143659380507"><ele>488.0</ele><time>2026-04-03T16:32:02.999Z</time></trkpt><trkpt lat="45.05706907455457" lon="7.4681768322918"><ele>485.0</ele><time>2026-04-03T16:32:03.999Z</time></trkpt><trkpt lat="45.05717217922751" lon="7.468206337897967"><ele>482.0</ele><time>2026-04-03T16:32:04.999Z</time></trkpt><trkpt lat="45.05725976590435" lon="7.468218636179921"><ele>479.0</ele><time>2026-04-03T16:32:05.999Z</time></trkpt><trkpt lat="45.05734330681201" lon="7.468187958380283"><ele>476.0</ele><time>2026-04-03T16:32:06.999Z</time></trkpt><trkpt lat="45.057444420901696" lon="7.468143197581068"><ele>475.66666666666663</ele><time>2026-04-03T16:32:07.999Z</time></trkpt><trkpt lat="45.057528151262716" lon="7.468064620398865"><ele>475.3333333333333</ele><time>2026-04-03T16:32:08.999Z</time></trkpt><trkpt lat="45.057602598785664" lon="7.468026089525922"><ele>475.0</ele><time>2026-04-03T16:32:09.999Z</time></trkpt><trkpt lat="45.05767432546235" lon="7.467983390613898"><ele>474.66666666666663</ele><time>2026-04-03T16:32:10.999Z</time></trkpt><trkpt lat="45.05777693408111" lon="7.467993176846135"><ele>474.3333333333333</ele><time>2026-04-03T16:32:11.999Z</time></trkpt><trkpt lat="45.057828292608036" lon="7.467931180018505"><ele>474.0</ele><time>2026-04-03T16:32:12.999Z</time></trkpt><trkpt lat="45.05789255698943" lon="7.467857205240484"><ele>474.4</ele><time>2026-04-03T16:32:13.999Z</time></trkpt><trkpt lat="45.058004425245365" lon="7.4677753633912625"><ele>474.79999999999995</ele><time>2026-04-03T16:32:14.999Z</time></trkpt><trkpt lat="45.05808704992471" lon="7.467747547893953"><ele>475.20000000000005</ele><time>2026-04-03T16:32:15.999Z</time></trkpt><trkpt lat="45.058173366223585" lon="7.467779700046363"><ele>475.6</ele><time>2026-04-03T16:32:17.999Z</time></trkpt><trkpt lat="45.05824617825799" lon="7.467806860936687"><ele>476.0</ele><time>2026-04-03T16:32:18.999Z</time></trkpt><trkpt lat="45.05833994884186" lon="7.467836291628636"><ele>475.99999999999994</ele><time>2026-04-03T16:32:19.999Z</time></trkpt><trkpt lat="45.058410202481745" lon="7.467907862835864"><ele>476.0</ele><time>2026-04-03T16:32:20.998Z</time></trkpt><trkpt lat="45.05849931567841" lon="7.467946651954173"><ele>476.0</ele><time>2026-04-03T16:32:21.998Z</time></trkpt><trkpt lat="45.05858028677407" lon="7.467990663563342"><ele>476.0</ele><time>2026-04-03T16:32:22.998Z</time></trkpt><trkpt lat="45.05866811330558" lon="7.468039299091562"><ele>475.99999999999994</ele><time>2026-04-03T16:32:23.998Z</time></trkpt><trkpt lat="45.058747833099744" lon="7.468048271988941"><ele>476.0</ele><time>2026-04-03T16:32:24.998Z</time></trkpt><trkpt lat="45.058802699364264" lon="7.4679968417663805"><ele>476.0</ele><time>2026-04-03T16:32:25.998Z</time></trkpt><trkpt lat="45.05894422674048" lon="7.467918787162962"><ele>476.0</ele><time>2026-04-03T16:32:27.998Z</time></trkpt><trkpt lat="45.05901743582546" lon="7.467853051171999"><ele>476.0</ele><time>2026-04-03T16:32:28.998Z</time></trkpt><trkpt lat="45.05908314016192" lon="7.467809198428437"><ele>476.0</ele><time>2026-04-03T16:32:29.998Z</time></trkpt><trkpt lat="45.05918945561933" lon="7.467743520749385"><ele>476.0</ele><time>2026-04-03T16:32:31.998Z</time></trkpt><trkpt lat="45.05926930556746" lon="7.467711302313627"><ele>476.0</ele><time>2026-04-03T16:32:32.998Z</time></trkpt><trkpt lat="45.059389501387756" lon="7.467665877530268"><ele>476.0</ele><time>2026-04-03T16:32:34.998Z</time></trkpt><trkpt lat="45.0595049008908" lon="7.467664804058383"><ele>476.0</ele><time>2026-04-03T16:32:36.998Z</time></trkpt><trkpt lat="45.05959703218877" lon="7.467697561406084"><ele>476.0</ele><time>2026-04-03T16:32:38.998Z</time></trkpt><trkpt lat="45.05970395249894" lon="7.467715219875768"><ele>476.0</ele><time>2026-04-03T16:32:40.998Z</time></trkpt><trkpt lat="45.05980022007801" lon="7.467720207392843"><ele>476.0</ele><time>2026-04-03T16:32:42.998Z</time></trkpt><trkpt lat="45.05988454887111" lon="7.4677240879422175"><ele>476.0</ele><time>2026-04-03T16:32:46Z</time></trkpt><trkpt lat="45.0599417779745" lon="7.467662952036278"><ele>476.0</ele><time>2026-04-03T16:32:48Z</time></trkpt><trkpt lat="45.059858783633665" lon="7.467719579001564"><ele>476.0</ele><time>2026-04-03T16:32:58Z</time></trkpt><trkpt lat="45.05964426657749" lon="7.467662481710715"><ele>476.0</ele><time>2026-04-03T16:33:01Z</time></trkpt><trkpt lat="45.059535098897" lon="7.467661272897872"><ele>476.0</ele><time>2026-04-03T16:33:02Z</time></trkpt><trkpt lat="45.059434490788576" lon="7.467668177162588"><ele>476.0</ele><time>2026-04-03T16:33:03Z</time></trkpt><trkpt lat="45.05932031228096" lon="7.467683506825255"><ele>476.0</ele><time>2026-04-03T16:33:04Z</time></trkpt><trkpt lat="45.0591984698667" lon="7.467717494660674"><ele>476.0</ele><time>2026-04-03T16:33:05Z</time></trkpt><trkpt lat="45.05910629255827" lon="7.467785438158834"><ele>476.0</ele><time>2026-04-03T16:33:06Z</time></trkpt><trkpt lat="45.05901531879089" lon="7.467876203600856"><ele>476.0</ele><time>2026-04-03T16:33:07Z</time></trkpt><trkpt lat="45.058934322027824" lon="7.467957143914798"><ele>476.0</ele><time>2026-04-03T16:33:08Z</time></trkpt><trkpt lat="45.058816648495444" lon="7.467918002527997"><ele>476.0</ele><time>2026-04-03T16:33:09Z</time></trkpt><trkpt lat="45.058734699507525" lon="7.467946483767736"><ele>476.0</ele><time>2026-04-03T16:33:10Z</time></trkpt><trkpt lat="45.05866443671526" lon="7.467957749694234"><ele>476.0</ele><time>2026-04-03T16:33:11Z</time></trkpt><trkpt lat="45.05858737494623" lon="7.467949086987748"><ele>476.0</ele><time>2026-04-03T16:33:12Z</time></trkpt><trkpt lat="45.058490362700645" lon="7.4679233850737194"><ele>476.0</ele><time>2026-04-03T16:33:13Z</time></trkpt><trkpt lat="45.05838237027011" lon="7.467850362666868"><ele>476.0</ele><time>2026-04-03T16:33:14Z</time></trkpt><trkpt lat="45.05828074741497" lon="7.467771100511599"><ele>476.0</ele><time>2026-04-03T16:33:15Z</time></trkpt><trkpt lat="45.05817533384215" lon="7.467702660638493"><ele>475.6</ele><time>2026-04-03T16:33:16Z</time></trkpt><trkpt lat="45.058076799339545" lon="7.467687392635959"><ele>475.20000000000005</ele><time>2026-04-03T16:33:17Z</time></trkpt><trkpt lat="45.0579906651444" lon="7.467712962699095"><ele>474.79999999999995</ele><time>2026-04-03T16:33:18Z</time></trkpt><trkpt lat="45.05790770560015" lon="7.467773180657709"><ele>474.4</ele><time>2026-04-03T16:33:19Z</time></trkpt><trkpt lat="45.05781310803266" lon="7.467887694349418"><ele>474.0</ele><time>2026-04-03T16:33:20Z</time></trkpt><trkpt lat="45.05773288707734" lon="7.467984531853248"><ele>474.0</ele><time>2026-04-03T16:33:21Z</time></trkpt><trkpt lat="45.057664400772566" lon="7.468079954584747"><ele>474.0</ele><time>2026-04-03T16:33:22Z</time></trkpt><trkpt lat="45.057607516495125" lon="7.46816459267404"><ele>474.0</ele><time>2026-04-03T16:33:23Z</time></trkpt><trkpt lat="45.05755275140708" lon="7.468247111693157"><ele>474.0</ele><time>2026-04-03T16:33:24Z</time></trkpt><trkpt lat="45.05750212434635" lon="7.468314760090171"><ele>474.0</ele><time>2026-04-03T16:33:25Z</time></trkpt><trkpt lat="45.057434997364126" lon="7.468377365561457"><ele>474.0</ele><time>2026-04-03T16:33:26Z</time></trkpt><trkpt lat="45.057363963800405" lon="7.468433199627336"><ele>474.3333333333333</ele><time>2026-04-03T16:33:27Z</time></trkpt><trkpt lat="45.05730418754518" lon="7.468506806237304"><ele>474.66666666666663</ele><time>2026-04-03T16:33:28Z</time></trkpt><trkpt lat="45.05724149636344" lon="7.468578349599199"><ele>475.0</ele><time>2026-04-03T16:33:29Z</time></trkpt><trkpt lat="45.05716953784306" lon="7.4686455403205985"><ele>475.3333333333333</ele><time>2026-04-03T16:33:29.999Z</time></trkpt><trkpt lat="45.057094256422076" lon="7.468707636909979"><ele>475.66666666666663</ele><time>2026-04-03T16:33:30.999Z</time></trkpt><trkpt lat="45.057005807347394" lon="7.4687663322308175"><ele>476.0</ele><time>2026-04-03T16:33:31.999Z</time></trkpt><trkpt lat="45.056907816175354" lon="7.468831353479232"><ele>474.20000000000005</ele><time>2026-04-03T16:33:32.999Z</time></trkpt><trkpt lat="45.05681859514784" lon="7.468927229710871"><ele>472.40000000000003</ele><time>2026-04-03T16:33:33.999Z</time></trkpt><trkpt lat="45.05672665956169" lon="7.469012402345444"><ele>470.6</ele><time>2026-04-03T16:33:34.999Z</time></trkpt><trkpt lat="45.05667590278627" lon="7.469089772434789"><ele>468.8</ele><time>2026-04-03T16:33:35.999Z</time></trkpt><trkpt lat="45.05663258710102" lon="7.469198761133442"><ele>467.0</ele><time>2026-04-03T16:33:36.999Z</time></trkpt><trkpt lat="45.05662830447923" lon="7.469326043524801"><ele>467.0</ele><time>2026-04-03T16:33:37.999Z</time></trkpt><trkpt lat="45.05666155647942" lon="7.469476144781083"><ele>467.00000000000006</ele><time>2026-04-03T16:33:38.999Z</time></trkpt><trkpt lat="45.05666894662343" lon="7.469616325932533"><ele>467.00000000000006</ele><time>2026-04-03T16:33:39.999Z</time></trkpt><trkpt lat="45.05668808620314" lon="7.469745498267719"><ele>467.0</ele><time>2026-04-03T16:33:40.999Z</time></trkpt><trkpt lat="45.05665318878794" lon="7.469878937922818"><ele>467.0</ele><time>2026-04-03T16:33:41.999Z</time></trkpt><trkpt lat="45.05658367208648" lon="7.47001370726445"><ele>466.25</ele><time>2026-04-03T16:33:42.999Z</time></trkpt><trkpt lat="45.056490604503296" lon="7.470151322225995"><ele>465.5</ele><time>2026-04-03T16:33:43.999Z</time></trkpt><trkpt lat="45.05641038939264" lon="7.470332561196437"><ele>464.75</ele><time>2026-04-03T16:33:44.999Z</time></trkpt><trkpt lat="45.05635467152567" lon="7.470534691874448"><ele>464.0</ele><time>2026-04-03T16:33:45.999Z</time></trkpt><trkpt lat="45.05628338747018" lon="7.470697200785782"><ele>464.0</ele><time>2026-04-03T16:33:46.999Z</time></trkpt><trkpt lat="45.05623339269833" lon="7.47087878011408"><ele>464.0</ele><time>2026-04-03T16:33:47.999Z</time></trkpt><trkpt lat="45.056191678107055" lon="7.471073463401646"><ele>464.0</ele><time>2026-04-03T16:33:48.999Z</time></trkpt><trkpt lat="45.056155220045945" lon="7.47127893550714"><ele>464.0</ele><time>2026-04-03T16:33:49.999Z</time></trkpt><trkpt lat="45.05611327990649" lon="7.471472730728497"><ele>462.2</ele><time>2026-04-03T16:33:50.999Z</time></trkpt><trkpt lat="45.05607039957917" lon="7.471661063046322"><ele>460.4</ele><time>2026-04-03T16:33:51.999Z</time></trkpt><trkpt lat="45.05605253808894" lon="7.4718112255000095"><ele>458.6</ele><time>2026-04-03T16:33:52.999Z</time></trkpt><trkpt lat="45.05602825871722" lon="7.4719320555638555"><ele>456.8</ele><time>2026-04-03T16:33:53.999Z</time></trkpt><trkpt lat="45.05602018484941" lon="7.472040632894824"><ele>455.0</ele><time>2026-04-03T16:33:54.999Z</time></trkpt><trkpt lat="45.056061983229114" lon="7.472163975129925"><ele>452.8</ele><time>2026-04-03T16:33:56.999Z</time></trkpt><trkpt lat="45.056071892073234" lon="7.472292270198041"><ele>450.6</ele><time>2026-04-03T16:33:58.999Z</time></trkpt><trkpt lat="45.056018100068" lon="7.472461894701055"><ele>448.4</ele><time>2026-04-03T16:34:00.999Z</time></trkpt><trkpt lat="45.055962178641145" lon="7.47257314085624"><ele>446.2</ele><time>2026-04-03T16:34:01.999Z</time></trkpt><trkpt lat="45.055891768459915" lon="7.472715383145782"><ele>444.0</ele><time>2026-04-03T16:34:02.999Z</time></trkpt><trkpt lat="45.05584196382152" lon="7.472885122484874"><ele>442.25</ele><time>2026-04-03T16:34:03.999Z</time></trkpt><trkpt lat="45.05581707459219" lon="7.473066620454486"><ele>440.5</ele><time>2026-04-03T16:34:04.999Z</time></trkpt><trkpt lat="45.05582725268158" lon="7.473237661609947"><ele>438.75</ele><time>2026-04-03T16:34:05.999Z</time></trkpt><trkpt lat="45.05582548872401" lon="7.47335726177521"><ele>437.0</ele><time>2026-04-03T16:34:06.999Z</time></trkpt><trkpt lat="45.055834577072154" lon="7.473521335409846"><ele>436.99999999999994</ele><time>2026-04-03T16:34:08.999Z</time></trkpt><trkpt lat="45.05585277580353" lon="7.473635953289518"><ele>437.0</ele><time>2026-04-03T16:34:10.999Z</time></trkpt><trkpt lat="45.05587490953019" lon="7.47380551154746"><ele>437.0</ele><time>2026-04-03T16:34:12.999Z</time></trkpt><trkpt lat="45.055907030953634" lon="7.473882712936929"><ele>437.0</ele><time>2026-04-03T16:34:13.999Z</time></trkpt><trkpt lat="45.05594795338263" lon="7.474024059186889"><ele>436.99999999999994</ele><time>2026-04-03T16:34:15.999Z</time></trkpt><trkpt lat="45.05596405476245" lon="7.474115162947468"><ele>437.0</ele><time>2026-04-03T16:34:16.999Z</time></trkpt><trkpt lat="45.05598519283675" lon="7.474244896480365"><ele>435.8</ele><time>2026-04-03T16:34:17.999Z</time></trkpt><trkpt lat="45.056006606304756" lon="7.474391708760996"><ele>434.6</ele><time>2026-04-03T16:34:18.999Z</time></trkpt><trkpt lat="45.056021931047816" lon="7.474541861942436"><ele>433.40000000000003</ele><time>2026-04-03T16:34:19.999Z</time></trkpt><trkpt lat="45.05602065438033" lon="7.4746756638230485"><ele>432.20000000000005</ele><time>2026-04-03T16:34:20.999Z</time></trkpt><trkpt lat="45.05600498986427" lon="7.474827541375727"><ele>431.0</ele><time>2026-04-03T16:34:21.999Z</time></trkpt><trkpt lat="45.05597973737232" lon="7.474985367701952"><ele>430.0</ele><time>2026-04-03T16:34:22.999Z</time></trkpt><trkpt lat="45.05594775424177" lon="7.475155434602758"><ele>429.0</ele><time>2026-04-03T16:34:23.999Z</time></trkpt><trkpt lat="45.05590347419435" lon="7.475310677250522"><ele>428.0</ele><time>2026-04-03T16:34:24.999Z</time></trkpt><trkpt lat="45.055844063394204" lon="7.4754575776172905"><ele>427.0</ele><time>2026-04-03T16:34:25.998Z</time></trkpt><trkpt lat="45.05576185897118" lon="7.475600545675997"><ele>424.33333333333337</ele><time>2026-04-03T16:34:26.998Z</time></trkpt><trkpt lat="45.055665797257404" lon="7.475758833640994"><ele>421.66666666666663</ele><time>2026-04-03T16:34:27.998Z</time></trkpt><trkpt lat="45.05555681704689" lon="7.475925325639791"><ele>419.0</ele><time>2026-04-03T16:34:28.998Z</time></trkpt><trkpt lat="45.05544282043597" lon="7.4760904933694965"><ele>419.0</ele><time>2026-04-03T16:34:29.998Z</time></trkpt><trkpt lat="45.05533478368828" lon="7.476225516205699"><ele>419.0</ele><time>2026-04-03T16:34:30.998Z</time></trkpt><trkpt lat="45.055207748861555" lon="7.476339790672821"><ele>419.0</ele><time>2026-04-03T16:34:31.998Z</time></trkpt><trkpt lat="45.05506685290524" lon="7.476459070554333"><ele>417.0</ele><time>2026-04-03T16:34:32.998Z</time></trkpt><trkpt lat="45.054919321825295" lon="7.476587305120318"><ele>415.0</ele><time>2026-04-03T16:34:33.998Z</time></trkpt><trkpt lat="45.05479056162388" lon="7.476699055207364"><ele>413.0</ele><time>2026-04-03T16:34:34.998Z</time></trkpt><trkpt lat="45.05466882229775" lon="7.47680328628798"><ele>413.0</ele><time>2026-04-03T16:34:35.998Z</time></trkpt><trkpt lat="45.054544615396274" lon="7.476907009145847"><ele>413.0</ele><time>2026-04-03T16:34:36.998Z</time></trkpt><trkpt lat="45.054430388035556" lon="7.476993538939433"><ele>413.0</ele><time>2026-04-03T16:34:37.998Z</time></trkpt><trkpt lat="45.05432095384516" lon="7.477068839982849"><ele>413.0</ele><time>2026-04-03T16:34:38.998Z</time></trkpt><trkpt lat="45.05421939131507" lon="7.477122166804887"><ele>411.0</ele><time>2026-04-03T16:34:39.998Z</time></trkpt><trkpt lat="45.05410902837384" lon="7.477135216704548"><ele>409.0</ele><time>2026-04-03T16:34:40.998Z</time></trkpt><trkpt lat="45.0539819329708" lon="7.477133505977947"><ele>407.0</ele><time>2026-04-03T16:34:41.998Z</time></trkpt><trkpt lat="45.053846815344" lon="7.477132663110786"><ele>405.0</ele><time>2026-04-03T16:34:42.998Z</time></trkpt><trkpt lat="45.053716899915116" lon="7.477137620585191"><ele>405.0</ele><time>2026-04-03T16:34:43.998Z</time></trkpt><trkpt lat="45.0535817308374" lon="7.477179599704121"><ele>405.0</ele><time>2026-04-03T16:34:44.998Z</time></trkpt><trkpt lat="45.053449620003235" lon="7.477264453366157"><ele>405.0</ele><time>2026-04-03T16:34:45.998Z</time></trkpt><trkpt lat="45.053320263187224" lon="7.47735860073237"><ele>405.0</ele><time>2026-04-03T16:34:46.998Z</time></trkpt><trkpt lat="45.053218049937186" lon="7.477454768888623"><ele>404.2</ele><time>2026-04-03T16:34:47.998Z</time></trkpt><trkpt lat="45.053146910602095" lon="7.477537367951745"><ele>403.4</ele><time>2026-04-03T16:34:49Z</time></trkpt><trkpt lat="45.0530898332325" lon="7.47762336493053"><ele>402.6</ele><time>2026-04-03T16:34:50Z</time></trkpt><trkpt lat="45.053029578911534" lon="7.477763368566581"><ele>401.8</ele><time>2026-04-03T16:34:51Z</time></trkpt><trkpt lat="45.05296522280667" lon="7.477906212598187"><ele>401.0</ele><time>2026-04-03T16:34:52Z</time></trkpt><trkpt lat="45.052889885831355" lon="7.478048089106244"><ele>400.0</ele><time>2026-04-03T16:34:53Z</time></trkpt><trkpt lat="45.05280694381654" lon="7.478193223379625"><ele>399.0</ele><time>2026-04-03T16:34:54Z</time></trkpt><trkpt lat="45.05272562164927" lon="7.478335077345031"><ele>398.0</ele><time>2026-04-03T16:34:55Z</time></trkpt><trkpt lat="45.05264688865617" lon="7.478482459115056"><ele>397.0</ele><time>2026-04-03T16:34:56Z</time></trkpt><trkpt lat="45.052576078838904" lon="7.478649390266153"><ele>395.75</ele><time>2026-04-03T16:34:57Z</time></trkpt><trkpt lat="45.05249381774277" lon="7.478794969466661"><ele>394.5</ele><time>2026-04-03T16:34:58Z</time></trkpt><trkpt lat="45.052382397080684" lon="7.478917049055443"><ele>393.25</ele><time>2026-04-03T16:34:59Z</time></trkpt><trkpt lat="45.052274662124184" lon="7.479052184560548"><ele>392.0</ele><time>2026-04-03T16:35:00Z</time></trkpt><trkpt lat="45.05216695632894" lon="7.479188000899572"><ele>392.0</ele><time>2026-04-03T16:35:01Z</time></trkpt><trkpt lat="45.05207777460304" lon="7.479334907029347"><ele>392.0</ele><time>2026-04-03T16:35:02Z</time></trkpt><trkpt lat="45.05197020802397" lon="7.4794422323557415"><ele>392.0</ele><time>2026-04-03T16:35:03Z</time></trkpt><trkpt lat="45.05187296748594" lon="7.479560575753468"><ele>392.0</ele><time>2026-04-03T16:35:04Z</time></trkpt><trkpt lat="45.051781704926576" lon="7.479662875949714"><ele>391.8</ele><time>2026-04-03T16:35:05Z</time></trkpt><trkpt lat="45.05169491546798" lon="7.479743888444112"><ele>391.6</ele><time>2026-04-03T16:35:06Z</time></trkpt><trkpt lat="45.051615060518145" lon="7.4797930390651395"><ele>391.40000000000003</ele><time>2026-04-03T16:35:07Z</time></trkpt><trkpt lat="45.05152327835118" lon="7.479810512816287"><ele>391.20000000000005</ele><time>2026-04-03T16:35:08Z</time></trkpt><trkpt lat="45.051402214078436" lon="7.479827988277119"><ele>391.0</ele><time>2026-04-03T16:35:09Z</time></trkpt><trkpt lat="45.051292164873175" lon="7.479887347402946"><ele>390.20000000000005</ele><time>2026-04-03T16:35:10Z</time></trkpt><trkpt lat="45.051189810185925" lon="7.480006599797451"><ele>389.40000000000003</ele><time>2026-04-03T16:35:11Z</time></trkpt><trkpt lat="45.05110235281066" lon="7.480123670303343"><ele>388.6</ele><time>2026-04-03T16:35:12Z</time></trkpt><trkpt lat="45.05103265327273" lon="7.480219611248735"><ele>387.8</ele><time>2026-04-03T16:35:13Z</time></trkpt><trkpt lat="45.05097489928803" lon="7.480319346373636"><ele>387.0</ele><time>2026-04-03T16:35:14Z</time></trkpt><trkpt lat="45.050934125120015" lon="7.4804390966041225"><ele>386.6</ele><time>2026-04-03T16:35:15Z</time></trkpt><trkpt lat="45.05092045672484" lon="7.480584873090894"><ele>386.20000000000005</ele><time>2026-04-03T16:35:16Z</time></trkpt><trkpt lat="45.050873019149364" lon="7.480708829649435"><ele>385.8</ele><time>2026-04-03T16:35:17Z</time></trkpt><trkpt lat="45.05083980517059" lon="7.480837838409737"><ele>385.4</ele><time>2026-04-03T16:35:18Z</time></trkpt><trkpt lat="45.05081020291868" lon="7.480952818625102"><ele>385.0</ele><time>2026-04-03T16:35:19Z</time></trkpt><trkpt lat="45.05078105723882" lon="7.481055561434282"><ele>385.8</ele><time>2026-04-03T16:35:20Z</time></trkpt><trkpt lat="45.050747422992494" lon="7.4811531414420775"><ele>386.6</ele><time>2026-04-03T16:35:21Z</time></trkpt><trkpt lat="45.05069897135569" lon="7.481243369829125"><ele>387.4</ele><time>2026-04-03T16:35:22Z</time></trkpt><trkpt lat="45.05063057234483" lon="7.481333355924172"><ele>388.2</ele><time>2026-04-03T16:35:23Z</time></trkpt><trkpt lat="45.05056728403613" lon="7.4814525335207405"><ele>389.0</ele><time>2026-04-03T16:35:24Z</time></trkpt><trkpt lat="45.05050803981021" lon="7.4816039922047795"><ele>389.0</ele><time>2026-04-03T16:35:25Z</time></trkpt><trkpt lat="45.050468112367156" lon="7.481765844785114"><ele>389.0</ele><time>2026-04-03T16:35:26Z</time></trkpt><trkpt lat="45.05044475577984" lon="7.481933947523212"><ele>389.0</ele><time>2026-04-03T16:35:27Z</time></trkpt><trkpt lat="45.05041740435515" lon="7.482123632555683"><ele>389.0</ele><time>2026-04-03T16:35:28Z</time></trkpt><trkpt lat="45.0503859550606" lon="7.482323194891401"><ele>388.0</ele><time>2026-04-03T16:35:29Z</time></trkpt><trkpt lat="45.05035450345809" lon="7.482508656581002"><ele>387.0</ele><time>2026-04-03T16:35:30Z</time></trkpt><trkpt lat="45.05032091259467" lon="7.482630052665327"><ele>386.0</ele><time>2026-04-03T16:35:31Z</time></trkpt><trkpt lat="45.05027571268703" lon="7.482694938278506"><ele>385.0</ele><time>2026-04-03T16:35:32Z</time></trkpt><trkpt lat="45.05020573367168" lon="7.482686250947001"><ele>384.0</ele><time>2026-04-03T16:35:33Z</time></trkpt><trkpt lat="45.0501014542095" lon="7.482717019654622"><ele>384.0</ele><time>2026-04-03T16:35:34Z</time></trkpt><trkpt lat="45.05000731027238" lon="7.482769147067712"><ele>384.0</ele><time>2026-04-03T16:35:34.999Z</time></trkpt><trkpt lat="45.04992215196712" lon="7.482848924931275"><ele>384.0</ele><time>2026-04-03T16:35:35.999Z</time></trkpt><trkpt lat="45.04984800099866" lon="7.482915368321368"><ele>384.0</ele><time>2026-04-03T16:35:36.999Z</time></trkpt><trkpt lat="45.049768313398744" lon="7.482991357462051"><ele>384.0</ele><time>2026-04-03T16:35:37.999Z</time></trkpt><trkpt lat="45.04968404646167" lon="7.483074413459999"><ele>382.4</ele><time>2026-04-03T16:35:38.999Z</time></trkpt><trkpt lat="45.04959600470534" lon="7.483165901952921"><ele>380.79999999999995</ele><time>2026-04-03T16:35:39.999Z</time></trkpt><trkpt lat="45.04950894448729" lon="7.483260617498349"><ele>379.20000000000005</ele><time>2026-04-03T16:35:40.999Z</time></trkpt><trkpt lat="45.049422573785684" lon="7.483355521116829"><ele>377.6</ele><time>2026-04-03T16:35:41.999Z</time></trkpt><trkpt lat="45.0493463486465" lon="7.483464121561508"><ele>376.0</ele><time>2026-04-03T16:35:42.999Z</time></trkpt><trkpt lat="45.0492623226832" lon="7.483535739094254"><ele>376.0</ele><time>2026-04-03T16:35:43.999Z</time></trkpt><trkpt lat="45.04916505738482" lon="7.483551202049101"><ele>376.0</ele><time>2026-04-03T16:35:44.999Z</time></trkpt><trkpt lat="45.04908918722595" lon="7.483597151500927"><ele>376.0</ele><time>2026-04-03T16:35:45.999Z</time></trkpt><trkpt lat="45.0490164891422" lon="7.483657885495514"><ele>376.0</ele><time>2026-04-03T16:35:46.999Z</time></trkpt><trkpt lat="45.04893463837804" lon="7.483745596721569"><ele>376.0</ele><time>2026-04-03T16:35:47.999Z</time></trkpt><trkpt lat="45.04884742853526" lon="7.483834653979697"><ele>374.8</ele><time>2026-04-03T16:35:48.999Z</time></trkpt><trkpt lat="45.048762851874415" lon="7.483918120958943"><ele>373.6</ele><time>2026-04-03T16:35:49.999Z</time></trkpt><trkpt lat="45.04868523841397" lon="7.483994717081825"><ele>372.4</ele><time>2026-04-03T16:35:50.999Z</time></trkpt><trkpt lat="45.04862595300767" lon="7.484096783301057"><ele>371.2</ele><time>2026-04-03T16:35:51.999Z</time></trkpt><trkpt lat="45.04856644337111" lon="7.484187622571787"><ele>370.0</ele><time>2026-04-03T16:35:52.999Z</time></trkpt><trkpt lat="45.04851149951924" lon="7.484278909824927"><ele>370.0</ele><time>2026-04-03T16:35:53.999Z</time></trkpt><trkpt lat="45.04844871128867" lon="7.484386536514688"><ele>370.0</ele><time>2026-04-03T16:35:54.999Z</time></trkpt><trkpt lat="45.048385356914444" lon="7.484508867501469"><ele>370.0</ele><time>2026-04-03T16:35:55.999Z</time></trkpt><trkpt lat="45.048335746767265" lon="7.484634284028629"><ele>370.0</ele><time>2026-04-03T16:35:56.999Z</time></trkpt><trkpt lat="45.04830410144272" lon="7.484772748236432"><ele>370.0</ele><time>2026-04-03T16:35:57.999Z</time></trkpt><trkpt lat="45.048272487075636" lon="7.484906788646663"><ele>368.8</ele><time>2026-04-03T16:35:58.999Z</time></trkpt><trkpt lat="45.04823423452728" lon="7.485027377930969"><ele>367.6</ele><time>2026-04-03T16:35:59.999Z</time></trkpt><trkpt lat="45.04817278333544" lon="7.485114049521745"><ele>366.4</ele><time>2026-04-03T16:36:00.999Z</time></trkpt><trkpt lat="45.04808252452906" lon="7.485230412958522"><ele>365.2</ele><time>2026-04-03T16:36:02.999Z</time></trkpt><trkpt lat="45.04799330119729" lon="7.485223304071137"><ele>364.0</ele><time>2026-04-03T16:36:03.999Z</time></trkpt><trkpt lat="45.04788691102551" lon="7.485285509960751"><ele>364.0</ele><time>2026-04-03T16:36:04.999Z</time></trkpt><trkpt lat="45.04776663376445" lon="7.485345990920307"><ele>364.0</ele><time>2026-04-03T16:36:05.999Z</time></trkpt><trkpt lat="45.047641986015066" lon="7.485382505096895"><ele>364.0</ele><time>2026-04-03T16:36:06.999Z</time></trkpt><trkpt lat="45.0475200815564" lon="7.485442147466633"><ele>364.0</ele><time>2026-04-03T16:36:07.999Z</time></trkpt><trkpt lat="45.047401173711926" lon="7.485500561411477"><ele>363.4</ele><time>2026-04-03T16:36:08.999Z</time></trkpt><trkpt lat="45.04728766963941" lon="7.485559200321312"><ele>362.79999999999995</ele><time>2026-04-03T16:36:09.999Z</time></trkpt><trkpt lat="45.04717741201382" lon="7.485615229093312"><ele>362.20000000000005</ele><time>2026-04-03T16:36:10.999Z</time></trkpt><trkpt lat="45.04707942445917" lon="7.485664964525568"><ele>361.6</ele><time>2026-04-03T16:36:11.999Z</time></trkpt><trkpt lat="45.046995313201215" lon="7.485729388413375"><ele>361.0</ele><time>2026-04-03T16:36:12.999Z</time></trkpt><trkpt lat="45.046904325176165" lon="7.485769800890256"><ele>361.0</ele><time>2026-04-03T16:36:13.999Z</time></trkpt><trkpt lat="45.046838401987664" lon="7.485801221713687"><ele>361.0</ele><time>2026-04-03T16:36:14.999Z</time></trkpt><trkpt lat="45.04675004023944" lon="7.485839460695158"><ele>361.0</ele><time>2026-04-03T16:36:16.999Z</time></trkpt><trkpt lat="45.04668543217826" lon="7.4858515284028755"><ele>361.0</ele><time>2026-04-03T16:36:21.999Z</time></trkpt><trkpt lat="45.04661038591514" lon="7.485897791477906"><ele>361.0</ele><time>2026-04-03T16:36:41.998Z</time></trkpt><trkpt lat="45.046536162037675" lon="7.485945152759862"><ele>361.0</ele><time>2026-04-03T16:36:42.998Z</time></trkpt><trkpt lat="45.04658426198057" lon="7.486092162551254"><ele>359.5</ele><time>2026-04-03T16:36:43.998Z</time></trkpt><trkpt lat="45.04651522214428" lon="7.486207670001362"><ele>358.0</ele><time>2026-04-03T16:36:44.998Z</time></trkpt><trkpt lat="45.046189448418176" lon="7.486043595191515"><ele>358.0</ele><time>2026-04-03T16:36:45.998Z</time></trkpt><trkpt lat="45.0460470812104" lon="7.4861228902030215"><ele>358.0</ele><time>2026-04-03T16:36:46.998Z</time></trkpt><trkpt lat="45.04589778636428" lon="7.486200948063486"><ele>358.0</ele><time>2026-04-03T16:36:47.998Z</time></trkpt><trkpt lat="45.04573636605146" lon="7.486250183075791"><ele>356.3333333333333</ele><time>2026-04-03T16:36:48.998Z</time></trkpt><trkpt lat="45.04557909845298" lon="7.486334762236574"><ele>354.6666666666667</ele><time>2026-04-03T16:36:49.998Z</time></trkpt><trkpt lat="45.04541465078445" lon="7.486425298478701"><ele>353.0</ele><time>2026-04-03T16:36:50.998Z</time></trkpt><trkpt lat="45.04524244981439" lon="7.4865214705238605"><ele>353.0</ele><time>2026-04-03T16:36:51.998Z</time></trkpt><trkpt lat="45.045065699592286" lon="7.486615909683218"><ele>353.0</ele><time>2026-04-03T16:36:52.998Z</time></trkpt><trkpt lat="45.04489289131913" lon="7.486703786471938"><ele>353.0</ele><time>2026-04-03T16:36:53.998Z</time></trkpt><trkpt lat="45.04471648145112" lon="7.486783324136242"><ele>353.0</ele><time>2026-04-03T16:36:55Z</time></trkpt><trkpt lat="45.0445400180837" lon="7.48684556881853"><ele>353.0</ele><time>2026-04-03T16:36:56Z</time></trkpt><trkpt lat="45.044365305619884" lon="7.48687556989629"><ele>353.0</ele><time>2026-04-03T16:36:57Z</time></trkpt><trkpt lat="45.044178843137516" lon="7.486903704193993"><ele>357.33333333333337</ele><time>2026-04-03T16:36:58Z</time></trkpt><trkpt lat="45.04400493683896" lon="7.486929943959589"><ele>361.6666666666667</ele><time>2026-04-03T16:36:59Z</time></trkpt><trkpt lat="45.04383949118007" lon="7.486955637864171"><ele>366.0</ele><time>2026-04-03T16:37:00Z</time></trkpt><trkpt lat="45.04368857956978" lon="7.486981176241001"><ele>366.0</ele><time>2026-04-03T16:37:01Z</time></trkpt><trkpt lat="45.04354965605936" lon="7.487038371198426"><ele>366.0</ele><time>2026-04-03T16:37:02Z</time></trkpt><trkpt lat="45.04343757986003" lon="7.487118692170093"><ele>366.0</ele><time>2026-04-03T16:37:03Z</time></trkpt><trkpt lat="45.043337969560966" lon="7.487249842704051"><ele>366.0</ele><time>2026-04-03T16:37:04Z</time></trkpt><trkpt lat="45.04327092412604" lon="7.487411764248388"><ele>366.75</ele><time>2026-04-03T16:37:05Z</time></trkpt><trkpt lat="45.04322106507396" lon="7.487545145660076"><ele>367.5</ele><time>2026-04-03T16:37:06Z</time></trkpt><trkpt lat="45.043177037580456" lon="7.487680674300516"><ele>368.25</ele><time>2026-04-03T16:37:07Z</time></trkpt><trkpt lat="45.04311613427565" lon="7.487823976835207"><ele>369.0</ele><time>2026-04-03T16:37:08Z</time></trkpt><trkpt lat="45.04309191717091" lon="7.487998315365498"><ele>369.0</ele><time>2026-04-03T16:37:09Z</time></trkpt><trkpt lat="45.04308873420315" lon="7.488174263174364"><ele>369.0</ele><time>2026-04-03T16:37:10Z</time></trkpt><trkpt lat="45.04306972478843" lon="7.488343151251346"><ele>369.0</ele><time>2026-04-03T16:37:11Z</time></trkpt><trkpt lat="45.0430681838909" lon="7.488504494722219"><ele>369.0</ele><time>2026-04-03T16:37:12Z</time></trkpt><trkpt lat="45.04306646825801" lon="7.488645890004075"><ele>369.0</ele><time>2026-04-03T16:37:13Z</time></trkpt><trkpt lat="45.04307019286538" lon="7.488767084586488"><ele>369.0</ele><time>2026-04-03T16:37:14Z</time></trkpt><trkpt lat="45.0430546541929" lon="7.488864086890459"><ele>369.0</ele><time>2026-04-03T16:37:15Z</time></trkpt><trkpt lat="45.042954916985494" lon="7.4888228903078415"><ele>369.0</ele><time>2026-04-03T16:37:19Z</time></trkpt><trkpt lat="45.042936937245166" lon="7.488725631019798"><ele>369.0</ele><time>2026-04-03T16:37:20Z</time></trkpt><trkpt lat="45.04286712513805" lon="7.488602495091394"><ele>369.0</ele><time>2026-04-03T16:37:22Z</time></trkpt><trkpt lat="45.04274996808441" lon="7.488680872832316"><ele>369.0</ele><time>2026-04-03T16:37:23Z</time></trkpt><trkpt lat="45.04266026253719" lon="7.488738078645757"><ele>369.0</ele><time>2026-04-03T16:37:24Z</time></trkpt><trkpt lat="45.04254202220653" lon="7.488814552117995"><ele>369.0</ele><time>2026-04-03T16:37:25Z</time></trkpt><trkpt lat="45.04241684158801" lon="7.488891943747548"><ele>369.0</ele><time>2026-04-03T16:37:26Z</time></trkpt><trkpt lat="45.04230336857757" lon="7.488958488772547"><ele>366.75</ele><time>2026-04-03T16:37:27Z</time></trkpt><trkpt lat="45.04218746088784" lon="7.4890209520331705"><ele>364.5</ele><time>2026-04-03T16:37:28Z</time></trkpt><trkpt lat="45.04206815998231" lon="7.489074441042579"><ele>362.25</ele><time>2026-04-03T16:37:29Z</time></trkpt><trkpt lat="45.0419451883385" lon="7.489122741853397"><ele>360.0</ele><time>2026-04-03T16:37:30Z</time></trkpt><trkpt lat="45.0418340554443" lon="7.489163602925977"><ele>360.0</ele><time>2026-04-03T16:37:31Z</time></trkpt><trkpt lat="45.041734334789616" lon="7.489200042443877"><ele>360.0</ele><time>2026-04-03T16:37:32Z</time></trkpt><trkpt lat="45.04164422680225" lon="7.489231684930068"><ele>360.0</ele><time>2026-04-03T16:37:33Z</time></trkpt><trkpt lat="45.041559223482885" lon="7.489261534868879"><ele>360.0</ele><time>2026-04-03T16:37:34Z</time></trkpt><trkpt lat="45.0414416850461" lon="7.489302287448565"><ele>360.0</ele><time>2026-04-03T16:37:35.999Z</time></trkpt><trkpt lat="45.04137818683578" lon="7.489323647770781"><ele>359.6666666666667</ele><time>2026-04-03T16:37:36.999Z</time></trkpt><trkpt lat="45.0413064137734" lon="7.489347791710791"><ele>359.33333333333337</ele><time>2026-04-03T16:37:37.999Z</time></trkpt><trkpt lat="45.041232508761496" lon="7.489382621630085"><ele>359.0</ele><time>2026-04-03T16:37:38.999Z</time></trkpt><trkpt lat="45.04124986536961" lon="7.489927294772915"><ele>358.25</ele><time>2026-04-03T16:37:39.999Z</time></trkpt><trkpt lat="45.04121228837855" lon="7.490122543263644"><ele>357.5</ele><time>2026-04-03T16:37:40.999Z</time></trkpt><trkpt lat="45.041174121544266" lon="7.4903161938374305"><ele>356.75</ele><time>2026-04-03T16:37:41.999Z</time></trkpt><trkpt lat="45.04113441978318" lon="7.490505342736872"><ele>356.0</ele><time>2026-04-03T16:37:42.999Z</time></trkpt><trkpt lat="45.041086740375874" lon="7.490678755740392"><ele>355.0</ele><time>2026-04-03T16:37:43.999Z</time></trkpt><trkpt lat="45.04104965535752" lon="7.490859570229303"><ele>354.0</ele><time>2026-04-03T16:37:44.999Z</time></trkpt><trkpt lat="45.041021976890214" lon="7.49103158131089"><ele>353.0</ele><time>2026-04-03T16:37:45.999Z</time></trkpt><trkpt lat="45.04101804521414" lon="7.491197054604776"><ele>352.0</ele><time>2026-04-03T16:37:46.999Z</time></trkpt><trkpt lat="45.04100457485978" lon="7.491344283129857"><ele>351.40000000000003</ele><time>2026-04-03T16:37:47.999Z</time></trkpt><trkpt lat="45.040987290164445" lon="7.491507219167467"><ele>350.8</ele><time>2026-04-03T16:37:48.999Z</time></trkpt><trkpt lat="45.040968119602766" lon="7.491652819078151"><ele>350.2</ele><time>2026-04-03T16:37:49.999Z</time></trkpt><trkpt lat="45.04094563388969" lon="7.491777299304333"><ele>349.6</ele><time>2026-04-03T16:37:50.999Z</time></trkpt><trkpt lat="45.040928545985565" lon="7.491894647124577"><ele>349.0</ele><time>2026-04-03T16:37:51.999Z</time></trkpt><trkpt lat="45.040917863341726" lon="7.4920093626168764"><ele>349.3333333333333</ele><time>2026-04-03T16:37:52.999Z</time></trkpt><trkpt lat="45.04093338373795" lon="7.492101725298426"><ele>349.66666666666663</ele><time>2026-04-03T16:37:53.999Z</time></trkpt><trkpt lat="45.04095968464928" lon="7.492210212095709"><ele>350.0</ele><time>2026-04-03T16:37:54.999Z</time></trkpt><trkpt lat="45.041008385751404" lon="7.49233136394935"><ele>350.3333333333333</ele><time>2026-04-03T16:37:55.999Z</time></trkpt><trkpt lat="45.04105313869919" lon="7.492401565162544"><ele>350.6666666666667</ele><time>2026-04-03T16:37:56.999Z</time></trkpt><trkpt lat="45.0411039492128" lon="7.492515024187482"><ele>351.0</ele><time>2026-04-03T16:37:57.999Z</time></trkpt><trkpt lat="45.04115253314613" lon="7.4926138906608815"><ele>351.0</ele><time>2026-04-03T16:37:58.999Z</time></trkpt><trkpt lat="45.04120283574554" lon="7.492708993467846"><ele>351.0</ele><time>2026-04-03T16:37:59.999Z</time></trkpt><trkpt lat="45.04126776333267" lon="7.492861923081394"><ele>351.0</ele><time>2026-04-03T16:38:01.999Z</time></trkpt><trkpt lat="45.041311068744825" lon="7.4929636513163205"><ele>351.0</ele><time>2026-04-03T16:38:02.999Z</time></trkpt><trkpt lat="45.04135288022743" lon="7.493094800212825"><ele>351.0</ele><time>2026-04-03T16:38:03.999Z</time></trkpt><trkpt lat="45.04139555752862" lon="7.493214351392748"><ele>352.20000000000005</ele><time>2026-04-03T16:38:04.999Z</time></trkpt><trkpt lat="45.041444875346876" lon="7.493318728377509"><ele>353.40000000000003</ele><time>2026-04-03T16:38:05.999Z</time></trkpt><trkpt lat="45.04152428445554" lon="7.493434993178953"><ele>354.6</ele><time>2026-04-03T16:38:06.999Z</time></trkpt><trkpt lat="45.04159510695206" lon="7.493530375921809"><ele>355.8</ele><time>2026-04-03T16:38:07.999Z</time></trkpt><trkpt lat="45.04165546294738" lon="7.493627479304613"><ele>357.0</ele><time>2026-04-03T16:38:08.999Z</time></trkpt><trkpt lat="45.04170445142762" lon="7.493726682008758"><ele>356.5</ele><time>2026-04-03T16:38:10.999Z</time></trkpt><trkpt lat="45.041725613769124" lon="7.493811197696224"><ele>356.0</ele><time>2026-04-03T16:38:12.999Z</time></trkpt><trkpt lat="45.04173814087406" lon="7.493943548517253"><ele>355.5</ele><time>2026-04-03T16:38:14.999Z</time></trkpt><trkpt lat="45.04168379583704" lon="7.494000969930726"><ele>355.0</ele><time>2026-04-03T16:38:15.999Z</time></trkpt><trkpt lat="45.0416016950573" lon="7.494042785830785"><ele>354.5</ele><time>2026-04-03T16:38:16.999Z</time></trkpt><trkpt lat="45.04150802417738" lon="7.494092120580122"><ele>354.0</ele><time>2026-04-03T16:38:17.999Z</time></trkpt><trkpt lat="45.04140566233932" lon="7.494167990983185"><ele>354.0</ele><time>2026-04-03T16:38:18.999Z</time></trkpt><trkpt lat="45.04132266102945" lon="7.494262576233858"><ele>354.0</ele><time>2026-04-03T16:38:19.999Z</time></trkpt><trkpt lat="45.04124051963157" lon="7.494370693330514"><ele>354.0</ele><time>2026-04-03T16:38:20.999Z</time></trkpt><trkpt lat="45.04114938080884" lon="7.494484919748609"><ele>354.0</ele><time>2026-04-03T16:38:21.999Z</time></trkpt><trkpt lat="45.041062308921376" lon="7.494586985945522"><ele>352.79999999999995</ele><time>2026-04-03T16:38:22.999Z</time></trkpt><trkpt lat="45.04097834151521" lon="7.494676750939635"><ele>351.59999999999997</ele><time>2026-04-03T16:38:23.999Z</time></trkpt><trkpt lat="45.04084050968984" lon="7.494766376325515"><ele>350.4</ele><time>2026-04-03T16:38:25.999Z</time></trkpt><trkpt lat="45.04074212056703" lon="7.494817033674431"><ele>349.2</ele><time>2026-04-03T16:38:26.999Z</time></trkpt><trkpt lat="45.04068136804164" lon="7.494853178368462"><ele>348.0</ele><time>2026-04-03T16:38:27.999Z</time></trkpt><trkpt lat="45.04059489789738" lon="7.494899494185386"><ele>348.0</ele><time>2026-04-03T16:38:29.999Z</time></trkpt><trkpt lat="45.04051567082719" lon="7.494925305195965"><ele>348.0</ele><time>2026-04-03T16:38:30.998Z</time></trkpt><trkpt lat="45.04042559142723" lon="7.494961204692837"><ele>348.0</ele><time>2026-04-03T16:38:31.998Z</time></trkpt><trkpt lat="45.04033095867764" lon="7.494971964918831"><ele>348.0</ele><time>2026-04-03T16:38:32.998Z</time></trkpt><trkpt lat="45.040222155383525" lon="7.49497173844532"><ele>348.0</ele><time>2026-04-03T16:38:33.998Z</time></trkpt><trkpt lat="45.0401503686765" lon="7.494980679449427"><ele>348.0</ele><time>2026-04-03T16:38:34.998Z</time></trkpt><trkpt lat="45.04008617041045" lon="7.495035730911898"><ele>348.0</ele><time>2026-04-03T16:38:35.998Z</time></trkpt><trkpt lat="45.040013425155976" lon="7.495124255162315"><ele>348.0</ele><time>2026-04-03T16:38:36.998Z</time></trkpt><trkpt lat="45.039933227062896" lon="7.495213041219633"><ele>348.0</ele><time>2026-04-03T16:38:37.998Z</time></trkpt><trkpt lat="45.03987852858597" lon="7.4952649753251785"><ele>348.0</ele><time>2026-04-03T16:38:38.998Z</time></trkpt><trkpt lat="45.03979550264144" lon="7.495379757125242"><ele>348.4</ele><time>2026-04-03T16:38:40.998Z</time></trkpt><trkpt lat="45.039735076284764" lon="7.495483298561263"><ele>348.79999999999995</ele><time>2026-04-03T16:38:41.998Z</time></trkpt><trkpt lat="45.03968795869612" lon="7.495571175190212"><ele>349.2</ele><time>2026-04-03T16:38:42.998Z</time></trkpt><trkpt lat="45.039620029215754" lon="7.495664408053183"><ele>349.6</ele><time>2026-04-03T16:38:44.998Z</time></trkpt><trkpt lat="45.03955080242597" lon="7.495775723146752"><ele>350.0</ele><time>2026-04-03T16:38:46.998Z</time></trkpt><trkpt lat="45.03948682041306" lon="7.495901493826011"><ele>350.0</ele><time>2026-04-03T16:38:48.998Z</time></trkpt><trkpt lat="45.03944647346592" lon="7.496016455433133"><ele>350.0</ele><time>2026-04-03T16:38:50.998Z</time></trkpt><trkpt lat="45.03948146885557" lon="7.496130589627054"><ele>350.0</ele><time>2026-04-03T16:38:52.998Z</time></trkpt><trkpt lat="45.0395078464246" lon="7.496220796871754"><ele>350.0</ele><time>2026-04-03T16:38:53.998Z</time></trkpt><trkpt lat="45.03949169378319" lon="7.496317890001484"><ele>350.0</ele><time>2026-04-03T16:38:54.998Z</time></trkpt><trkpt lat="45.039477145036315" lon="7.496441546511156"><ele>350.0</ele><time>2026-04-03T16:38:55.998Z</time></trkpt><trkpt lat="45.03945235735949" lon="7.496527166046788"><ele>347.6</ele><time>2026-04-03T16:38:57.998Z</time></trkpt><trkpt lat="45.039407419731404" lon="7.496611710929308"><ele>345.2</ele><time>2026-04-03T16:39:01Z</time></trkpt><trkpt lat="45.03947089493892" lon="7.496782593720402"><ele>342.79999999999995</ele><time>2026-04-03T16:39:03Z</time></trkpt><trkpt lat="45.03948767358701" lon="7.496886943262134"><ele>340.4</ele><time>2026-04-03T16:39:04Z</time></trkpt><trkpt lat="45.03948363585011" lon="7.497000560952722"><ele>338.0</ele><time>2026-04-03T16:39:05Z</time></trkpt><trkpt lat="45.039465362402964" lon="7.497123578686901"><ele>337.83333333333337</ele><time>2026-04-03T16:39:06Z</time></trkpt><trkpt lat="45.03945214390115" lon="7.497243051518119"><ele>337.6666666666667</ele><time>2026-04-03T16:39:07Z</time></trkpt><trkpt lat="45.03941282523893" lon="7.497345080025153"><ele>337.5</ele><time>2026-04-03T16:39:08Z</time></trkpt><trkpt lat="45.03938784757488" lon="7.4974272853567125"><ele>337.3333333333333</ele><time>2026-04-03T16:39:09Z</time></trkpt><trkpt lat="45.039313266889344" lon="7.497546719776151"><ele>337.16666666666663</ele><time>2026-04-03T16:39:11Z</time></trkpt><trkpt lat="45.03931843794719" lon="7.497658884364731"><ele>337.0</ele><time>2026-04-03T16:39:13Z</time></trkpt><trkpt lat="45.03934819307225" lon="7.497776851610718"><ele>337.0</ele><time>2026-04-03T16:39:15Z</time></trkpt><trkpt lat="45.03933704467875" lon="7.497909137176294"><ele>337.0</ele><time>2026-04-03T16:39:16Z</time></trkpt><trkpt lat="45.039317599128665" lon="7.4980409061539826"><ele>337.0</ele><time>2026-04-03T16:39:17Z</time></trkpt><trkpt lat="45.039301436056874" lon="7.498173953044451"><ele>337.0</ele><time>2026-04-03T16:39:18Z</time></trkpt><trkpt lat="45.039312477013276" lon="7.498284787087325"><ele>337.0</ele><time>2026-04-03T16:39:19Z</time></trkpt><trkpt lat="45.03933678452682" lon="7.498378089989009"><ele>337.0</ele><time>2026-04-03T16:39:20Z</time></trkpt><trkpt lat="45.03935581868459" lon="7.498492490747591"><ele>336.6</ele><time>2026-04-03T16:39:21Z</time></trkpt><trkpt lat="45.03936336244006" lon="7.4986201202813145"><ele>336.20000000000005</ele><time>2026-04-03T16:39:22Z</time></trkpt><trkpt lat="45.039360225876614" lon="7.498752600407554"><ele>335.8</ele><time>2026-04-03T16:39:23Z</time></trkpt><trkpt lat="45.03936697552526" lon="7.498894900959112"><ele>335.4</ele><time>2026-04-03T16:39:24Z</time></trkpt><trkpt lat="45.03933867300124" lon="7.499016452257308"><ele>335.0</ele><time>2026-04-03T16:39:25Z</time></trkpt><trkpt lat="45.03935165867507" lon="7.499123477444265"><ele>334.83333333333337</ele><time>2026-04-03T16:39:26Z</time></trkpt><trkpt lat="45.0393768767237" lon="7.499213995960974"><ele>334.6666666666667</ele><time>2026-04-03T16:39:27Z</time></trkpt><trkpt lat="45.03942749963465" lon="7.49928650553543"><ele>334.5</ele><time>2026-04-03T16:39:28Z</time></trkpt><trkpt lat="45.039456805125056" lon="7.499442452320875"><ele>334.3333333333333</ele><time>2026-04-03T16:39:29Z</time></trkpt><trkpt lat="45.03947313675381" lon="7.499555663466647"><ele>334.16666666666663</ele><time>2026-04-03T16:39:30Z</time></trkpt><trkpt lat="45.039508022917644" lon="7.499652486707709"><ele>334.0</ele><time>2026-04-03T16:39:31Z</time></trkpt><trkpt lat="45.03949032450412" lon="7.499762439915517"><ele>333.8333333333333</ele><time>2026-04-03T16:39:32Z</time></trkpt><trkpt lat="45.03949593185097" lon="7.499885920804787"><ele>333.66666666666663</ele><time>2026-04-03T16:39:35Z</time></trkpt><trkpt lat="45.0395832703483" lon="7.500018641688054"><ele>333.5</ele><time>2026-04-03T16:39:37Z</time></trkpt><trkpt lat="45.039620432732356" lon="7.500112263687264"><ele>333.3333333333333</ele><time>2026-04-03T16:39:38Z</time></trkpt><trkpt lat="45.039644195665005" lon="7.500196102661179"><ele>333.1666666666667</ele><time>2026-04-03T16:39:39Z</time></trkpt><trkpt lat="45.039610983371055" lon="7.500275238625639"><ele>333.0</ele><time>2026-04-03T16:39:41.999Z</time></trkpt><trkpt lat="45.03960778278913" lon="7.500366869689625"><ele>333.5714285714286</ele><time>2026-04-03T16:39:43.999Z</time></trkpt><trkpt lat="45.03963557271435" lon="7.500474481492557"><ele>334.1428571428571</ele><time>2026-04-03T16:39:44.999Z</time></trkpt><trkpt lat="45.0396522014184" lon="7.500573771354941"><ele>334.7142857142857</ele><time>2026-04-03T16:39:45.999Z</time></trkpt><trkpt lat="45.03964608143939" lon="7.500681542054083"><ele>335.28571428571433</ele><time>2026-04-03T16:39:46.999Z</time></trkpt><trkpt lat="45.03962161044996" lon="7.500780546850391"><ele>335.8571428571429</ele><time>2026-04-03T16:39:47.999Z</time></trkpt><trkpt lat="45.039598560838925" lon="7.500880443984557"><ele>336.42857142857144</ele><time>2026-04-03T16:39:49.999Z</time></trkpt><trkpt lat="45.039613617337224" lon="7.500974685510348"><ele>337.0</ele><time>2026-04-03T16:39:52.999Z</time></trkpt><trkpt lat="45.03959198804551" lon="7.500860698014789"><ele>337.0</ele><time>2026-04-03T16:42:58.998Z</time></trkpt><trkpt lat="45.03961700963235" lon="7.500692125319863"><ele>337.0</ele><time>2026-04-03T16:43:00.998Z</time></trkpt><trkpt lat="45.03961209903518" lon="7.500524001295409"><ele>337.0</ele><time>2026-04-03T16:43:01.998Z</time></trkpt><trkpt lat="45.03959877612674" lon="7.500426258637942"><ele>337.0</ele><time>2026-04-03T16:43:02.998Z</time></trkpt><trkpt lat="45.03955966969764" lon="7.500303975282325"><ele>337.0</ele><time>2026-04-03T16:43:04.998Z</time></trkpt><trkpt lat="45.039620784134755" lon="7.500219038734837"><ele>336.20000000000005</ele><time>2026-04-03T16:43:07.998Z</time></trkpt><trkpt lat="45.03961161248917" lon="7.500106154011238"><ele>335.4</ele><time>2026-04-03T16:43:10.998Z</time></trkpt><trkpt lat="45.039541751641416" lon="7.4999685447668725"><ele>334.6</ele><time>2026-04-03T16:43:13Z</time></trkpt><trkpt lat="45.03947734390481" lon="7.499862252695391"><ele>333.79999999999995</ele><time>2026-04-03T16:43:15Z</time></trkpt><trkpt lat="45.03947371603882" lon="7.49977190247196"><ele>333.0</ele><time>2026-04-03T16:43:17Z</time></trkpt><trkpt lat="45.039492119415286" lon="7.499648147118928"><ele>333.2</ele><time>2026-04-03T16:43:19Z</time></trkpt><trkpt lat="45.03944537618027" lon="7.499498761485589"><ele>333.4</ele><time>2026-04-03T16:43:21Z</time></trkpt><trkpt lat="45.03940779328676" lon="7.499333284501151"><ele>333.59999999999997</ele><time>2026-04-03T16:43:23Z</time></trkpt><trkpt lat="45.03937569435585" lon="7.499194419412223"><ele>333.79999999999995</ele><time>2026-04-03T16:43:25Z</time></trkpt><trkpt lat="45.039337802774696" lon="7.499055190084664"><ele>334.0</ele><time>2026-04-03T16:43:27Z</time></trkpt><trkpt lat="45.03933503645932" lon="7.498965442674995"><ele>334.0</ele><time>2026-04-03T16:43:28Z</time></trkpt><trkpt lat="45.03933490918601" lon="7.498852522664726"><ele>334.0</ele><time>2026-04-03T16:43:29Z</time></trkpt><trkpt lat="45.03934119980341" lon="7.498740786557397"><ele>334.0</ele><time>2026-04-03T16:43:30Z</time></trkpt><trkpt lat="45.03934643205383" lon="7.49864004312617"><ele>334.0</ele><time>2026-04-03T16:43:31Z</time></trkpt><trkpt lat="45.039336984109084" lon="7.498520945874388"><ele>334.0</ele><time>2026-04-03T16:43:32Z</time></trkpt><trkpt lat="45.03933293168298" lon="7.498425806714861"><ele>334.0</ele><time>2026-04-03T16:43:33Z</time></trkpt><trkpt lat="45.03931613626455" lon="7.49830280616063"><ele>334.2</ele><time>2026-04-03T16:43:35Z</time></trkpt><trkpt lat="45.03930012703749" lon="7.498147867426296"><ele>334.4</ele><time>2026-04-03T16:43:37Z</time></trkpt><trkpt lat="45.0393075424248" lon="7.498038842085541"><ele>334.6</ele><time>2026-04-03T16:43:38Z</time></trkpt><trkpt lat="45.03932236204656" lon="7.497924222621013"><ele>334.8</ele><time>2026-04-03T16:43:39Z</time></trkpt><trkpt lat="45.03932731833785" lon="7.497790697608118"><ele>335.0</ele><time>2026-04-03T16:43:40Z</time></trkpt><trkpt lat="45.0393047010382" lon="7.497659511991037"><ele>335.4</ele><time>2026-04-03T16:43:42Z</time></trkpt><trkpt lat="45.039276589593555" lon="7.497553998347938"><ele>335.8</ele><time>2026-04-03T16:43:44Z</time></trkpt><trkpt lat="45.03937586585082" lon="7.497420379290876"><ele>336.20000000000005</ele><time>2026-04-03T16:43:46Z</time></trkpt><trkpt lat="45.03940224152645" lon="7.497314004135737"><ele>336.6</ele><time>2026-04-03T16:43:47Z</time></trkpt><trkpt lat="45.03942644060737" lon="7.497214220665685"><ele>337.0</ele><time>2026-04-03T16:43:48Z</time></trkpt><trkpt lat="45.03945046549884" lon="7.497091828709853"><ele>337.20000000000005</ele><time>2026-04-03T16:43:49Z</time></trkpt><trkpt lat="45.0394629591238" lon="7.496963709099454"><ele>337.4</ele><time>2026-04-03T16:43:50Z</time></trkpt><trkpt lat="45.039468952471886" lon="7.496839347541615"><ele>337.6</ele><time>2026-04-03T16:43:51Z</time></trkpt><trkpt lat="45.03943725152676" lon="7.49671670205644"><ele>337.79999999999995</ele><time>2026-04-03T16:43:53Z</time></trkpt><trkpt lat="45.03941594217032" lon="7.496598896361463"><ele>338.0</ele><time>2026-04-03T16:43:57Z</time></trkpt><trkpt lat="45.03946151557987" lon="7.496447649117266"><ele>338.0</ele><time>2026-04-03T16:43:58.999Z</time></trkpt><trkpt lat="45.039481965011774" lon="7.49635242447012"><ele>338.0</ele><time>2026-04-03T16:43:59.999Z</time></trkpt><trkpt lat="45.03952143808368" lon="7.496181376344316"><ele>338.0</ele><time>2026-04-03T16:44:01.999Z</time></trkpt><trkpt lat="45.0394810427676" lon="7.496096318937248"><ele>338.0</ele><time>2026-04-03T16:44:02.999Z</time></trkpt><trkpt lat="45.03942767804306" lon="7.496028377541657"><ele>338.0</ele><time>2026-04-03T16:44:04.999Z</time></trkpt><trkpt lat="45.039343579911105" lon="7.496163371036732"><ele>340.4</ele><time>2026-04-03T16:44:07.999Z</time></trkpt><trkpt lat="45.03924098531701" lon="7.4962477856505245"><ele>342.79999999999995</ele><time>2026-04-03T16:44:09.999Z</time></trkpt><trkpt lat="45.03916205788544" lon="7.496220754136761"><ele>345.2</ele><time>2026-04-03T16:44:10.999Z</time></trkpt><trkpt lat="45.03909217780469" lon="7.496199006081634"><ele>347.6</ele><time>2026-04-03T16:44:12.999Z</time></trkpt><trkpt lat="45.03901085726353" lon="7.4962352940318775"><ele>350.0</ele><time>2026-04-03T16:44:14.999Z</time></trkpt><trkpt lat="45.03893406867871" lon="7.496344411763095"><ele>352.1666666666667</ele><time>2026-04-03T16:44:16.999Z</time></trkpt><trkpt lat="45.038879172256685" lon="7.496407958942712"><ele>354.33333333333337</ele><time>2026-04-03T16:44:17.999Z</time></trkpt><trkpt lat="45.03881597771857" lon="7.496483844217649"><ele>356.5</ele><time>2026-04-03T16:44:19.999Z</time></trkpt><trkpt lat="45.03875178639158" lon="7.496447705926881"><ele>358.6666666666667</ele><time>2026-04-03T16:44:21.999Z</time></trkpt><trkpt lat="45.03875445034718" lon="7.496303449362258"><ele>360.8333333333333</ele><time>2026-04-03T16:44:23.999Z</time></trkpt><trkpt lat="45.03873037188445" lon="7.496208448043885"><ele>363.0</ele><time>2026-04-03T16:44:25.999Z</time></trkpt><trkpt lat="45.03876710523119" lon="7.496096400703803"><ele>364.0</ele><time>2026-04-03T16:44:27.999Z</time></trkpt><trkpt lat="45.038787158851875" lon="7.4959797243702155"><ele>365.0</ele><time>2026-04-03T16:44:29.999Z</time></trkpt><trkpt lat="45.038797722444635" lon="7.495865667453642"><ele>366.0</ele><time>2026-04-03T16:44:31.999Z</time></trkpt><trkpt lat="45.03882644035616" lon="7.49575247931961"><ele>367.0</ele><time>2026-04-03T16:44:37.999Z</time></trkpt><trkpt lat="45.038856590123764" lon="7.495634300844714"><ele>368.0</ele><time>2026-04-03T16:44:39.999Z</time></trkpt><trkpt lat="45.038871472356455" lon="7.495463851768763"><ele>368.33333333333337</ele><time>2026-04-03T16:44:41.999Z</time></trkpt><trkpt lat="45.03884962285206" lon="7.495372406813814"><ele>368.6666666666667</ele><time>2026-04-03T16:44:43.999Z</time></trkpt><trkpt lat="45.03873761188547" lon="7.4953241524299905"><ele>369.0</ele><time>2026-04-03T16:44:45.999Z</time></trkpt><trkpt lat="45.038633751885556" lon="7.495308379911967"><ele>369.3333333333333</ele><time>2026-04-03T16:44:47.999Z</time></trkpt><trkpt lat="45.03856564941029" lon="7.495300324685767"><ele>369.66666666666663</ele><time>2026-04-03T16:44:48.999Z</time></trkpt><trkpt lat="45.0384940240126" lon="7.495254179505111"><ele>370.0</ele><time>2026-04-03T16:44:50.998Z</time></trkpt><trkpt lat="45.03838118977296" lon="7.49527034771357"><ele>370.0</ele><time>2026-04-03T16:44:53.998Z</time></trkpt><trkpt lat="45.03832040710702" lon="7.495231196796778"><ele>370.0</ele><time>2026-04-03T16:44:54.998Z</time></trkpt><trkpt lat="45.038260550197236" lon="7.4951988188403975"><ele>370.0</ele><time>2026-04-03T16:44:55.998Z</time></trkpt><trkpt lat="45.03815941842961" lon="7.495147231262695"><ele>370.0</ele><time>2026-04-03T16:44:57.998Z</time></trkpt><trkpt lat="45.03808819062583" lon="7.495122569499949"><ele>370.0</ele><time>2026-04-03T16:44:59.998Z</time></trkpt><trkpt lat="45.038112318580325" lon="7.495237306478574"><ele>370.0</ele><time>2026-04-03T16:45:20Z</time></trkpt><trkpt lat="45.03820298659572" lon="7.495250867728131"><ele>369.99999999999994</ele><time>2026-04-03T16:45:22Z</time></trkpt><trkpt lat="45.038279004914784" lon="7.495283222314993"><ele>370.0</ele><time>2026-04-03T16:45:24Z</time></trkpt><trkpt lat="45.03834791701067" lon="7.495288225450016"><ele>370.0</ele><time>2026-04-03T16:45:28Z</time></trkpt><trkpt lat="45.03838833562486" lon="7.495359734714982"><ele>370.0</ele><time>2026-04-03T16:45:33Z</time></trkpt><trkpt lat="45.03845162601711" lon="7.49533584876401"><ele>370.0</ele><time>2026-04-03T16:45:37Z</time></trkpt><trkpt lat="45.038425849792034" lon="7.495251928869546"><ele>369.99999999999994</ele><time>2026-04-03T16:45:55Z</time></trkpt><trkpt lat="45.03837502508207" lon="7.495141997809731"><ele>370.0</ele><time>2026-04-03T16:45:58Z</time></trkpt><trkpt lat="45.03830145525944" lon="7.495040480577408"><ele>371.2857142857143</ele><time>2026-04-03T16:46:00.999Z</time></trkpt><trkpt lat="45.03824940836007" lon="7.494986587144554"><ele>372.57142857142856</ele><time>2026-04-03T16:46:01.999Z</time></trkpt><trkpt lat="45.038186329862754" lon="7.494920698599221"><ele>373.8571428571429</ele><time>2026-04-03T16:46:02.999Z</time></trkpt><trkpt lat="45.03812488339159" lon="7.494848082711368"><ele>375.1428571428571</ele><time>2026-04-03T16:46:03.999Z</time></trkpt><trkpt lat="45.038065011503775" lon="7.49479991906652"><ele>376.42857142857144</ele><time>2026-04-03T16:46:04.999Z</time></trkpt><trkpt lat="45.03800185460765" lon="7.494765491949988"><ele>377.7142857142857</ele><time>2026-04-03T16:46:05.999Z</time></trkpt><trkpt lat="45.037942781401085" lon="7.494725059530353"><ele>379.0</ele><time>2026-04-03T16:46:06.999Z</time></trkpt><trkpt lat="45.03785773518534" lon="7.494660830677336"><ele>379.0</ele><time>2026-04-03T16:46:08.999Z</time></trkpt><trkpt lat="45.03778880872927" lon="7.49465820521896"><ele>379.0</ele><time>2026-04-03T16:46:11.999Z</time></trkpt><trkpt lat="45.037784087890664" lon="7.494783467586001"><ele>379.0</ele><time>2026-04-03T16:47:08.998Z</time></trkpt><trkpt lat="45.037771775845165" lon="7.494908602936457"><ele>379.0</ele><time>2026-04-03T16:47:09.998Z</time></trkpt><trkpt lat="45.03773320093625" lon="7.495024375058521"><ele>379.0</ele><time>2026-04-03T16:47:11.998Z</time></trkpt><trkpt lat="45.03790852163023" lon="7.494925861531158"><ele>379.0</ele><time>2026-04-03T16:47:16.998Z</time></trkpt><trkpt lat="45.03786365619909" lon="7.494801965459039"><ele>379.0</ele><time>2026-04-03T16:47:18.998Z</time></trkpt><trkpt lat="45.03784483915994" lon="7.494672669449805"><ele>379.0</ele><time>2026-04-03T16:47:20.998Z</time></trkpt><trkpt lat="45.03778089532061" lon="7.49465755472304"><ele>379.0</ele><time>2026-04-03T16:47:40Z</time></trkpt><trkpt lat="45.03777255355049" lon="7.494758955635996"><ele>379.0</ele><time>2026-04-03T16:47:42Z</time></trkpt><trkpt lat="45.03775642429187" lon="7.494908271403286"><ele>379.0</ele><time>2026-04-03T16:47:44Z</time></trkpt><trkpt lat="45.03776507167401" lon="7.495001435825822"><ele>379.0</ele><time>2026-04-03T16:47:45Z</time></trkpt><trkpt lat="45.03774828322702" lon="7.495097883935972"><ele>379.0</ele><time>2026-04-03T16:47:46Z</time></trkpt><trkpt lat="45.037767743415856" lon="7.495188489567061"><ele>379.0</ele><time>2026-04-03T16:47:47Z</time></trkpt><trkpt lat="45.037798539111975" lon="7.495413638789823"><ele>379.0</ele><time>2026-04-03T16:47:49Z</time></trkpt><trkpt lat="45.03778409745555" lon="7.495585824886735"><ele>379.0</ele><time>2026-04-03T16:47:50Z</time></trkpt><trkpt lat="45.03775693165169" lon="7.4957327413883315"><ele>379.0</ele><time>2026-04-03T16:47:51Z</time></trkpt><trkpt lat="45.03771760101695" lon="7.495890140397344"><ele>379.0</ele><time>2026-04-03T16:47:52Z</time></trkpt><trkpt lat="45.03766180090652" lon="7.49602013509588"><ele>379.0</ele><time>2026-04-03T16:47:53Z</time></trkpt><trkpt lat="45.03759450733578" lon="7.496162018346882"><ele>379.0</ele><time>2026-04-03T16:47:54Z</time></trkpt><trkpt lat="45.03753291158729" lon="7.496284468350195"><ele>380.0</ele><time>2026-04-03T16:47:55Z</time></trkpt><trkpt lat="45.03746475427433" lon="7.496395561163791"><ele>381.0</ele><time>2026-04-03T16:47:56Z</time></trkpt><trkpt lat="45.037404263357196" lon="7.496493152475384"><ele>382.0</ele><time>2026-04-03T16:47:57Z</time></trkpt><trkpt lat="45.03734456404293" lon="7.496604795944996"><ele>383.0</ele><time>2026-04-03T16:47:58Z</time></trkpt><trkpt lat="45.03732951681223" lon="7.496730073927229"><ele>384.00000000000006</ele><time>2026-04-03T16:47:59Z</time></trkpt><trkpt lat="45.03733488089281" lon="7.4968198249460745"><ele>385.0</ele><time>2026-04-03T16:48:00Z</time></trkpt><trkpt lat="45.03745254087466" lon="7.496894742236589"><ele>384.8</ele><time>2026-04-03T16:48:02Z</time></trkpt><trkpt lat="45.037532488485404" lon="7.496933834702681"><ele>384.6</ele><time>2026-04-03T16:48:03Z</time></trkpt><trkpt lat="45.037628718232035" lon="7.496947688511504"><ele>384.4</ele><time>2026-04-03T16:48:04Z</time></trkpt><trkpt lat="45.03770254340631" lon="7.497004147306849"><ele>384.2</ele><time>2026-04-03T16:48:04.999Z</time></trkpt><trkpt lat="45.03780385567408" lon="7.497036771507795"><ele>384.0</ele><time>2026-04-03T16:48:05.999Z</time></trkpt><trkpt lat="45.03787526861294" lon="7.497103901625929"><ele>384.0</ele><time>2026-04-03T16:48:06.999Z</time></trkpt><trkpt lat="45.03790965533775" lon="7.497243532040637"><ele>384.0</ele><time>2026-04-03T16:48:07.999Z</time></trkpt><trkpt lat="45.03795896324546" lon="7.49741328349658"><ele>384.0</ele><time>2026-04-03T16:48:08.999Z</time></trkpt><trkpt lat="45.03799484951219" lon="7.4975681106429395"><ele>384.0</ele><time>2026-04-03T16:48:09.999Z</time></trkpt><trkpt lat="45.03801421860214" lon="7.4977364234107275"><ele>385.0</ele><time>2026-04-03T16:48:10.999Z</time></trkpt><trkpt lat="45.038032384243664" lon="7.4979525700898595"><ele>386.0</ele><time>2026-04-03T16:48:11.999Z</time></trkpt><trkpt lat="45.03804469535848" lon="7.498173727247605"><ele>387.0</ele><time>2026-04-03T16:48:12.999Z</time></trkpt><trkpt lat="45.03804639659278" lon="7.498397626187006"><ele>387.0</ele><time>2026-04-03T16:48:13.999Z</time></trkpt><trkpt lat="45.03803635560733" lon="7.49861054240569"><ele>387.0</ele><time>2026-04-03T16:48:14.999Z</time></trkpt><trkpt lat="45.038034680960585" lon="7.4988050009255485"><ele>387.0</ele><time>2026-04-03T16:48:15.999Z</time></trkpt><trkpt lat="45.038033569529134" lon="7.498996536837254"><ele>387.0</ele><time>2026-04-03T16:48:16.999Z</time></trkpt><trkpt lat="45.03803395004148" lon="7.499157800983946"><ele>386.6666666666667</ele><time>2026-04-03T16:48:17.999Z</time></trkpt><trkpt lat="45.03803431795201" lon="7.499313720738816"><ele>386.33333333333337</ele><time>2026-04-03T16:48:18.999Z</time></trkpt><trkpt lat="45.038047745767884" lon="7.499439597080398"><ele>386.0</ele><time>2026-04-03T16:48:19.999Z</time></trkpt><trkpt lat="45.03803712828457" lon="7.49955339309696"><ele>385.6666666666667</ele><time>2026-04-03T16:48:20.999Z</time></trkpt><trkpt lat="45.03804019772142" lon="7.499661484174588"><ele>385.33333333333337</ele><time>2026-04-03T16:48:21.999Z</time></trkpt><trkpt lat="45.03806145630164" lon="7.4997577116303855"><ele>385.0</ele><time>2026-04-03T16:48:22.999Z</time></trkpt><trkpt lat="45.03805083578281" lon="7.499851651377107"><ele>383.85714285714283</ele><time>2026-04-03T16:48:23.999Z</time></trkpt><trkpt lat="45.03806460672317" lon="7.499944979504531"><ele>382.7142857142857</ele><time>2026-04-03T16:48:24.999Z</time></trkpt><trkpt lat="45.03806764934958" lon="7.500044580117759"><ele>381.57142857142856</ele><time>2026-04-03T16:48:25.999Z</time></trkpt><trkpt lat="45.038070776489874" lon="7.500156835427708"><ele>380.42857142857144</ele><time>2026-04-03T16:48:26.999Z</time></trkpt><trkpt lat="45.038079604642974" lon="7.500269941129647"><ele>379.2857142857143</ele><time>2026-04-03T16:48:27.999Z</time></trkpt><trkpt lat="45.038105738312034" lon="7.500362390168041"><ele>378.1428571428571</ele><time>2026-04-03T16:48:28.999Z</time></trkpt><trkpt lat="45.03812341432962" lon="7.500463346511893"><ele>377.0</ele><time>2026-04-03T16:48:29.999Z</time></trkpt><trkpt lat="45.03814796796669" lon="7.50057345508278"><ele>375.6666666666667</ele><time>2026-04-03T16:48:30.999Z</time></trkpt><trkpt lat="45.03817427244558" lon="7.500679791301029"><ele>374.33333333333337</ele><time>2026-04-03T16:48:31.999Z</time></trkpt><trkpt lat="45.03819378846417" lon="7.500777225562531"><ele>373.0</ele><time>2026-04-03T16:48:32.999Z</time></trkpt><trkpt lat="45.03820525305907" lon="7.500902620502069"><ele>371.6666666666667</ele><time>2026-04-03T16:48:34.999Z</time></trkpt><trkpt lat="45.03820741965996" lon="7.500991986287675"><ele>370.3333333333333</ele><time>2026-04-03T16:48:39.999Z</time></trkpt><trkpt lat="45.03813916537118" lon="7.5010344673407054"><ele>369.0</ele><time>2026-04-03T16:48:52.999Z</time></trkpt><trkpt lat="45.0380821295639" lon="7.501099976428392"><ele>369.0</ele><time>2026-04-03T16:48:53.999Z</time></trkpt><trkpt lat="45.03801999500959" lon="7.501206245764069"><ele>369.0</ele><time>2026-04-03T16:48:54.999Z</time></trkpt><trkpt lat="45.03798808714759" lon="7.501337059013404"><ele>369.0</ele><time>2026-04-03T16:48:55.999Z</time></trkpt><trkpt lat="45.03795357415687" lon="7.501478826723184"><ele>369.0</ele><time>2026-04-03T16:48:56.999Z</time></trkpt><trkpt lat="45.03792465553537" lon="7.501622638338434"><ele>369.0</ele><time>2026-04-03T16:48:57.998Z</time></trkpt><trkpt lat="45.037886786910846" lon="7.501793249985826"><ele>367.4</ele><time>2026-04-03T16:48:58.998Z</time></trkpt><trkpt lat="45.037862411860765" lon="7.501967823490459"><ele>365.79999999999995</ele><time>2026-04-03T16:48:59.998Z</time></trkpt><trkpt lat="45.03782899521312" lon="7.502113634532089"><ele>364.20000000000005</ele><time>2026-04-03T16:49:00.998Z</time></trkpt><trkpt lat="45.037811351135076" lon="7.502257373148911"><ele>362.6</ele><time>2026-04-03T16:49:01.998Z</time></trkpt><trkpt lat="45.037770079441934" lon="7.5023885262363885"><ele>361.0</ele><time>2026-04-03T16:49:02.998Z</time></trkpt><trkpt lat="45.03774363026685" lon="7.5024899131694935"><ele>359.0</ele><time>2026-04-03T16:49:03.998Z</time></trkpt><trkpt lat="45.037708309228115" lon="7.502611326652728"><ele>357.0</ele><time>2026-04-03T16:49:04.998Z</time></trkpt><trkpt lat="45.03768128815396" lon="7.502728108725546"><ele>355.0</ele><time>2026-04-03T16:49:05.998Z</time></trkpt><trkpt lat="45.03762799230279" lon="7.502843488105714"><ele>353.0</ele><time>2026-04-03T16:49:06.998Z</time></trkpt><trkpt lat="45.037584063014094" lon="7.502963338508507"><ele>351.0</ele><time>2026-04-03T16:49:07.998Z</time></trkpt><trkpt lat="45.03756290742962" lon="7.503083385360386"><ele>350.0</ele><time>2026-04-03T16:49:08.998Z</time></trkpt><trkpt lat="45.037511887728634" lon="7.5032133527409375"><ele>349.0</ele><time>2026-04-03T16:49:09.998Z</time></trkpt><trkpt lat="45.037475143999984" lon="7.503333176620176"><ele>348.0</ele><time>2026-04-03T16:49:10.998Z</time></trkpt><trkpt lat="45.03743081075112" lon="7.503480582815281"><ele>347.0</ele><time>2026-04-03T16:49:11.998Z</time></trkpt><trkpt lat="45.03738801879307" lon="7.503622864280619"><ele>346.0</ele><time>2026-04-03T16:49:12.998Z</time></trkpt><trkpt lat="45.03734660067855" lon="7.503756026975302"><ele>343.4</ele><time>2026-04-03T16:49:13.998Z</time></trkpt><trkpt lat="45.03730662331519" lon="7.503873701152779"><ele>340.8</ele><time>2026-04-03T16:49:14.998Z</time></trkpt><trkpt lat="45.037251817542156" lon="7.504014513034561"><ele>338.2</ele><time>2026-04-03T16:49:15.998Z</time></trkpt><trkpt lat="45.03718031553344" lon="7.504154408560664"><ele>335.59999999999997</ele><time>2026-04-03T16:49:16.998Z</time></trkpt><trkpt lat="45.03710119602359" lon="7.504277402837104"><ele>333.0</ele><time>2026-04-03T16:49:17.998Z</time></trkpt><trkpt lat="45.037013673646754" lon="7.50440137397266"><ele>333.0</ele><time>2026-04-03T16:49:18.998Z</time></trkpt><trkpt lat="45.03692509328018" lon="7.50452612571795"><ele>333.0</ele><time>2026-04-03T16:49:19.998Z</time></trkpt><trkpt lat="45.03683134715553" lon="7.504651879900568"><ele>333.0</ele><time>2026-04-03T16:49:20.998Z</time></trkpt><trkpt lat="45.036743793577955" lon="7.50477041917522"><ele>333.0</ele><time>2026-04-03T16:49:21.998Z</time></trkpt><trkpt lat="45.036650798383995" lon="7.504901213870595"><ele>332.0</ele><time>2026-04-03T16:49:22.998Z</time></trkpt><trkpt lat="45.0365726749402" lon="7.505037972200891"><ele>331.0</ele><time>2026-04-03T16:49:23.998Z</time></trkpt><trkpt lat="45.03651067774665" lon="7.5051669116118696"><ele>330.0</ele><time>2026-04-03T16:49:24.998Z</time></trkpt><trkpt lat="45.03646147786442" lon="7.505301796657173"><ele>329.0</ele><time>2026-04-03T16:49:25.998Z</time></trkpt><trkpt lat="45.0364317105138" lon="7.505446427385665"><ele>328.0</ele><time>2026-04-03T16:49:26.998Z</time></trkpt><trkpt lat="45.03639747221221" lon="7.505588144896521"><ele>327.25</ele><time>2026-04-03T16:49:27.998Z</time></trkpt><trkpt lat="45.03633570109961" lon="7.505690127773148"><ele>326.5</ele><time>2026-04-03T16:49:28.998Z</time></trkpt><trkpt lat="45.03627801763577" lon="7.505808448522364"><ele>325.75</ele><time>2026-04-03T16:49:29.998Z</time></trkpt><trkpt lat="45.036150476929016" lon="7.505848355013614"><ele>325.0</ele><time>2026-04-03T16:49:31Z</time></trkpt><trkpt lat="45.03600565160207" lon="7.505933754805105"><ele>325.0</ele><time>2026-04-03T16:49:32Z</time></trkpt><trkpt lat="45.03586646413146" lon="7.506042583983871"><ele>325.0</ele><time>2026-04-03T16:49:33Z</time></trkpt><trkpt lat="45.035741236813" lon="7.506163288089648"><ele>325.0</ele><time>2026-04-03T16:49:34Z</time></trkpt><trkpt lat="45.03561945677595" lon="7.506249482082825"><ele>325.0</ele><time>2026-04-03T16:49:35Z</time></trkpt><trkpt lat="45.035506781508936" lon="7.506342755637797"><ele>324.0</ele><time>2026-04-03T16:49:36Z</time></trkpt><trkpt lat="45.035390291719416" lon="7.506426986993911"><ele>323.0</ele><time>2026-04-03T16:49:37Z</time></trkpt><trkpt lat="45.0352962163366" lon="7.5064979637991724"><ele>322.0</ele><time>2026-04-03T16:49:38Z</time></trkpt><trkpt lat="45.03522094223654" lon="7.506580148133711"><ele>321.0</ele><time>2026-04-03T16:49:39Z</time></trkpt><trkpt lat="45.035183937947465" lon="7.506673195601707"><ele>320.0</ele><time>2026-04-03T16:49:40Z</time></trkpt><trkpt lat="45.035156181432846" lon="7.506833607831578"><ele>320.0</ele><time>2026-04-03T16:49:42Z</time></trkpt><trkpt lat="45.03520538784471" lon="7.506935291513117"><ele>320.0</ele><time>2026-04-03T16:49:43Z</time></trkpt><trkpt lat="45.035235828587666" lon="7.507077858917788"><ele>320.0</ele><time>2026-04-03T16:49:44Z</time></trkpt><trkpt lat="45.035270213995624" lon="7.507239563409896"><ele>320.0</ele><time>2026-04-03T16:49:45Z</time></trkpt><trkpt lat="45.035308669677335" lon="7.507402810369694"><ele>320.0</ele><time>2026-04-03T16:49:46Z</time></trkpt><trkpt lat="45.03534141763469" lon="7.507570176528053"><ele>320.0</ele><time>2026-04-03T16:49:47Z</time></trkpt><trkpt lat="45.035377817103196" lon="7.5077307876472466"><ele>320.0</ele><time>2026-04-03T16:49:48Z</time></trkpt><trkpt lat="45.035428112769196" lon="7.5079303516964675"><ele>320.0</ele><time>2026-04-03T16:49:49Z</time></trkpt><trkpt lat="45.035493181215635" lon="7.508121217948135"><ele>320.0</ele><time>2026-04-03T16:49:50Z</time></trkpt><trkpt lat="45.03556094941964" lon="7.508335663120767"><ele>317.6666666666667</ele><time>2026-04-03T16:49:51Z</time></trkpt><trkpt lat="45.03561515564217" lon="7.508548603656202"><ele>315.3333333333333</ele><time>2026-04-03T16:49:52Z</time></trkpt><trkpt lat="45.03567624821168" lon="7.508756114715304"><ele>313.0</ele><time>2026-04-03T16:49:53Z</time></trkpt><trkpt lat="45.03572235732942" lon="7.50896636501556"><ele>312.75</ele><time>2026-04-03T16:49:54Z</time></trkpt><trkpt lat="45.035759120076875" lon="7.5091726367565546"><ele>312.5</ele><time>2026-04-03T16:49:55Z</time></trkpt><trkpt lat="45.035801324286794" lon="7.50937243446017"><ele>312.25</ele><time>2026-04-03T16:49:56Z</time></trkpt><trkpt lat="45.03584420605686" lon="7.509547430804277"><ele>312.0</ele><time>2026-04-03T16:49:57Z</time></trkpt><trkpt lat="45.03587436960846" lon="7.509698411728036"><ele>311.6</ele><time>2026-04-03T16:49:58Z</time></trkpt><trkpt lat="45.03588784361941" lon="7.50984487788359"><ele>311.2</ele><time>2026-04-03T16:49:59Z</time></trkpt><trkpt lat="45.03589070490637" lon="7.510004899615673"><ele>310.8</ele><time>2026-04-03T16:50:00Z</time></trkpt><trkpt lat="45.03586749691999" lon="7.510153606567215"><ele>310.4</ele><time>2026-04-03T16:50:01Z</time></trkpt><trkpt lat="45.03587043370633" lon="7.51025238090273"><ele>310.0</ele><time>2026-04-03T16:50:02Z</time></trkpt><trkpt lat="45.03584785832337" lon="7.5104468541117155"><ele>310.0</ele><time>2026-04-03T16:50:03.999Z</time></trkpt><trkpt lat="45.03581083034637" lon="7.510557503940649"><ele>310.0</ele><time>2026-04-03T16:50:04.999Z</time></trkpt><trkpt lat="45.03577059029262" lon="7.51072266765961"><ele>310.0</ele><time>2026-04-03T16:50:05.999Z</time></trkpt><trkpt lat="45.03574940030155" lon="7.510889064907785"><ele>310.0</ele><time>2026-04-03T16:50:06.999Z</time></trkpt><trkpt lat="45.035726244361285" lon="7.51106632264156"><ele>309.5</ele><time>2026-04-03T16:50:07.999Z</time></trkpt><trkpt lat="45.03567474277668" lon="7.511239482294285"><ele>309.0</ele><time>2026-04-03T16:50:08.999Z</time></trkpt><trkpt lat="45.03563875966551" lon="7.51141612437876"><ele>308.5</ele><time>2026-04-03T16:50:09.999Z</time></trkpt><trkpt lat="45.035603902333975" lon="7.5115872399846415"><ele>308.0</ele><time>2026-04-03T16:50:10.999Z</time></trkpt><trkpt lat="45.0355826513397" lon="7.5117572021817365"><ele>307.5</ele><time>2026-04-03T16:50:11.999Z</time></trkpt><trkpt lat="45.0355544345958" lon="7.511915038788767"><ele>307.0</ele><time>2026-04-03T16:50:12.999Z</time></trkpt><trkpt lat="45.03552528367842" lon="7.512056541147827"><ele>306.5</ele><time>2026-04-03T16:50:13.999Z</time></trkpt><trkpt lat="45.03549957022622" lon="7.51216246841583"><ele>306.0</ele><time>2026-04-03T16:50:14.999Z</time></trkpt><trkpt lat="45.035487763236034" lon="7.512257636141947"><ele>305.5</ele><time>2026-04-03T16:50:15.999Z</time></trkpt><trkpt lat="45.03548201311167" lon="7.51236724801029"><ele>305.0</ele><time>2026-04-03T16:50:17.999Z</time></trkpt><trkpt lat="45.03549066233558" lon="7.512465463476559"><ele>304.83333333333337</ele><time>2026-04-03T16:50:18.999Z</time></trkpt><trkpt lat="45.03548860753599" lon="7.512573778340174"><ele>304.6666666666667</ele><time>2026-04-03T16:50:19.999Z</time></trkpt><trkpt lat="45.03546405483325" lon="7.512662803661023"><ele>304.5</ele><time>2026-04-03T16:50:20.999Z</time></trkpt><trkpt lat="45.03545492028099" lon="7.512757594316145"><ele>304.3333333333333</ele><time>2026-04-03T16:50:21.999Z</time></trkpt><trkpt lat="45.035444306325836" lon="7.51286773697354"><ele>304.16666666666663</ele><time>2026-04-03T16:50:22.999Z</time></trkpt><trkpt lat="45.03550756010431" lon="7.5130110818758675"><ele>304.0</ele><time>2026-04-03T16:50:23.999Z</time></trkpt><trkpt lat="45.03551775418856" lon="7.513135644703764"><ele>303.75</ele><time>2026-04-03T16:50:24.999Z</time></trkpt><trkpt lat="45.035501886489975" lon="7.5132245462200125"><ele>303.5</ele><time>2026-04-03T16:50:25.999Z</time></trkpt><trkpt lat="45.03530000595263" lon="7.513257247066392"><ele>303.25</ele><time>2026-04-03T16:50:28.999Z</time></trkpt><trkpt lat="45.03519658189491" lon="7.5132692076884515"><ele>303.0</ele><time>2026-04-03T16:50:29.999Z</time></trkpt><trkpt lat="45.03508405847538" lon="7.51328102622044"><ele>302.75</ele><time>2026-04-03T16:50:30.999Z</time></trkpt><trkpt lat="45.034966446000034" lon="7.51329337926555"><ele>302.5</ele><time>2026-04-03T16:50:31.999Z</time></trkpt><trkpt lat="45.03485897036402" lon="7.513293810928293"><ele>302.25</ele><time>2026-04-03T16:50:32.999Z</time></trkpt><trkpt lat="45.034730367188565" lon="7.513295515148152"><ele>302.0</ele><time>2026-04-03T16:50:33.999Z</time></trkpt><trkpt lat="45.03458991721926" lon="7.513297848264193"><ele>302.0</ele><time>2026-04-03T16:50:34.999Z</time></trkpt><trkpt lat="45.034446579956786" lon="7.513318703730718"><ele>302.0</ele><time>2026-04-03T16:50:35.999Z</time></trkpt><trkpt lat="45.034309395255924" lon="7.513321294566023"><ele>302.0</ele><time>2026-04-03T16:50:36.999Z</time></trkpt><trkpt lat="45.03416853669597" lon="7.513328121815772"><ele>302.0</ele><time>2026-04-03T16:50:37.999Z</time></trkpt><trkpt lat="45.03403647707733" lon="7.513308513004983"><ele>301.75</ele><time>2026-04-03T16:50:38.999Z</time></trkpt><trkpt lat="45.03391899263933" lon="7.513325854581033"><ele>301.5</ele><time>2026-04-03T16:50:39.999Z</time></trkpt><trkpt lat="45.03380149795974" lon="7.513332964290362"><ele>301.25</ele><time>2026-04-03T16:50:40.999Z</time></trkpt><trkpt lat="45.03368559514537" lon="7.513334201329099"><ele>301.0</ele><time>2026-04-03T16:50:41.999Z</time></trkpt><trkpt lat="45.033566202364256" lon="7.513388179050464"><ele>301.0</ele><time>2026-04-03T16:50:42.999Z</time></trkpt><trkpt lat="45.03346360503195" lon="7.513463590025915"><ele>301.0</ele><time>2026-04-03T16:50:43.999Z</time></trkpt><trkpt lat="45.03335552651264" lon="7.513566153176473"><ele>301.0</ele><time>2026-04-03T16:50:44.999Z</time></trkpt><trkpt lat="45.03325292775003" lon="7.513689937482725"><ele>301.0</ele><time>2026-04-03T16:50:45.999Z</time></trkpt><trkpt lat="45.033173483289886" lon="7.5138244794648275"><ele>299.75</ele><time>2026-04-03T16:50:46.999Z</time></trkpt><trkpt lat="45.033095841318456" lon="7.513959983771247"><ele>298.5</ele><time>2026-04-03T16:50:47.999Z</time></trkpt><trkpt lat="45.033067112657825" lon="7.514144695906714"><ele>297.25</ele><time>2026-04-03T16:50:48.999Z</time></trkpt><trkpt lat="45.033026115424846" lon="7.514314204928421"><ele>296.0</ele><time>2026-04-03T16:50:49.999Z</time></trkpt><trkpt lat="45.032999087974915" lon="7.514488199918795"><ele>295.75</ele><time>2026-04-03T16:50:50.999Z</time></trkpt><trkpt lat="45.03299044671387" lon="7.514661939419571"><ele>295.5</ele><time>2026-04-03T16:50:51.999Z</time></trkpt><trkpt lat="45.03297546488865" lon="7.514833107878776"><ele>295.25</ele><time>2026-04-03T16:50:52.999Z</time></trkpt><trkpt lat="45.03296992328929" lon="7.515021425826794"><ele>295.0</ele><time>2026-04-03T16:50:53.999Z</time></trkpt><trkpt lat="45.03296162412756" lon="7.515268605749718"><ele>294.25</ele><time>2026-04-03T16:50:54.999Z</time></trkpt><trkpt lat="45.032959761839315" lon="7.51551007296391"><ele>293.5</ele><time>2026-04-03T16:50:55.999Z</time></trkpt><trkpt lat="45.032940754380554" lon="7.51567105524723"><ele>292.75</ele><time>2026-04-03T16:50:56.999Z</time></trkpt><trkpt lat="45.03293649761826" lon="7.515841814919202"><ele>292.0</ele><time>2026-04-03T16:50:57.999Z</time></trkpt><trkpt lat="45.03292273496426" lon="7.515989329415"><ele>292.0</ele><time>2026-04-03T16:50:58.998Z</time></trkpt><trkpt lat="45.032873847544835" lon="7.5161040467856655"><ele>292.0</ele><time>2026-04-03T16:50:59.998Z</time></trkpt><trkpt lat="45.032784579847544" lon="7.516147493503357"><ele>292.0</ele><time>2026-04-03T16:51:00.998Z</time></trkpt><trkpt lat="45.03267965877199" lon="7.516177526346226"><ele>292.0</ele><time>2026-04-03T16:51:01.998Z</time></trkpt><trkpt lat="45.03255054213308" lon="7.516147245614121"><ele>292.0</ele><time>2026-04-03T16:51:02.998Z</time></trkpt><trkpt lat="45.03241398500051" lon="7.516132145967378"><ele>291.25</ele><time>2026-04-03T16:51:03.998Z</time></trkpt><trkpt lat="45.03227036779789" lon="7.516137462504429"><ele>290.5</ele><time>2026-04-03T16:51:04.998Z</time></trkpt><trkpt lat="45.03213391483198" lon="7.516150544400764"><ele>289.75</ele><time>2026-04-03T16:51:05.998Z</time></trkpt><trkpt lat="45.03200200233525" lon="7.516163887792237"><ele>289.0</ele><time>2026-04-03T16:51:06.998Z</time></trkpt><trkpt lat="45.031871219779845" lon="7.516206898018386"><ele>288.66666666666663</ele><time>2026-04-03T16:51:07.998Z</time></trkpt><trkpt lat="45.03174249362542" lon="7.516255094453149"><ele>288.3333333333333</ele><time>2026-04-03T16:51:08.998Z</time></trkpt><trkpt lat="45.03157398653197" lon="7.516319032835866"><ele>288.0</ele><time>2026-04-03T16:51:09.998Z</time></trkpt><trkpt lat="45.031430307908515" lon="7.516351883582439"><ele>287.8</ele><time>2026-04-03T16:51:10.998Z</time></trkpt><trkpt lat="45.031314711632696" lon="7.516416764846061"><ele>287.6</ele><time>2026-04-03T16:51:11.998Z</time></trkpt><trkpt lat="45.03120585573691" lon="7.516457197345903"><ele>287.4</ele><time>2026-04-03T16:51:12.998Z</time></trkpt><trkpt lat="45.03111034284903" lon="7.516478291327269"><ele>287.2</ele><time>2026-04-03T16:51:13.998Z</time></trkpt><trkpt lat="45.031017739628176" lon="7.516473967187751"><ele>287.0</ele><time>2026-04-03T16:51:14.998Z</time></trkpt><trkpt lat="45.030906757776926" lon="7.5164681820017485"><ele>287.2</ele><time>2026-04-03T16:51:15.998Z</time></trkpt><trkpt lat="45.030806136889495" lon="7.516523034974013"><ele>287.4</ele><time>2026-04-03T16:51:16.998Z</time></trkpt><trkpt lat="45.030717075565704" lon="7.516574237252595"><ele>287.6</ele><time>2026-04-03T16:51:17.998Z</time></trkpt><trkpt lat="45.0306174849959" lon="7.51656255455562"><ele>287.8</ele><time>2026-04-03T16:51:18.998Z</time></trkpt><trkpt lat="45.03051879697581" lon="7.516585880519478"><ele>288.0</ele><time>2026-04-03T16:51:19.998Z</time></trkpt><trkpt lat="45.03042180815375" lon="7.516589259326577"><ele>288.0</ele><time>2026-04-03T16:51:20.998Z</time></trkpt><trkpt lat="45.03032662803429" lon="7.516599257687285"><ele>288.0</ele><time>2026-04-03T16:51:21.998Z</time></trkpt><trkpt lat="45.03025409418468" lon="7.516600997816331"><ele>288.0</ele><time>2026-04-03T16:51:22.998Z</time></trkpt><trkpt lat="45.030187425827634" lon="7.516600103211075"><ele>288.0</ele><time>2026-04-03T16:51:23.998Z</time></trkpt><trkpt lat="45.03010549058307" lon="7.516623419610235"><ele>288.0</ele><time>2026-04-03T16:51:24.998Z</time></trkpt><trkpt lat="45.029997453616915" lon="7.516633951573983"><ele>288.0</ele><time>2026-04-03T16:51:25.998Z</time></trkpt><trkpt lat="45.029878609853235" lon="7.516628271817456"><ele>288.0</ele><time>2026-04-03T16:51:26.998Z</time></trkpt><trkpt lat="45.0297783424946" lon="7.516622825309724"><ele>288.0</ele><time>2026-04-03T16:51:27.998Z</time></trkpt><trkpt lat="45.029692122028635" lon="7.516577431096449"><ele>288.0</ele><time>2026-04-03T16:51:28.998Z</time></trkpt><trkpt lat="45.02960927654447" lon="7.516577238847127"><ele>288.0</ele><time>2026-04-03T16:51:29.998Z</time></trkpt><trkpt lat="45.029507149994195" lon="7.516577001849639"><ele>288.0</ele><time>2026-04-03T16:51:30.998Z</time></trkpt><trkpt lat="45.029375740731815" lon="7.516576696902163"><ele>288.0</ele><time>2026-04-03T16:51:31.998Z</time></trkpt><trkpt lat="45.02926134525193" lon="7.516578078268876"><ele>288.0</ele><time>2026-04-03T16:51:32.998Z</time></trkpt><trkpt lat="45.02917871554428" lon="7.516582768297905"><ele>288.0</ele><time>2026-04-03T16:51:33.998Z</time></trkpt><trkpt lat="45.02905932368384" lon="7.516617412156359"><ele>288.0</ele><time>2026-04-03T16:51:34.998Z</time></trkpt><trkpt lat="45.02891159225359" lon="7.516705184316181"><ele>288.3333333333333</ele><time>2026-04-03T16:51:35.998Z</time></trkpt><trkpt lat="45.02872899952878" lon="7.516821478456221"><ele>288.66666666666663</ele><time>2026-04-03T16:51:37Z</time></trkpt><trkpt lat="45.028517357476666" lon="7.516871315192397"><ele>289.0</ele><time>2026-04-03T16:51:38Z</time></trkpt><trkpt lat="45.02833105301376" lon="7.516898189903943"><ele>288.75</ele><time>2026-04-03T16:51:39Z</time></trkpt><trkpt lat="45.028171197690725" lon="7.51691693057043"><ele>288.5</ele><time>2026-04-03T16:51:40Z</time></trkpt><trkpt lat="45.028029863639006" lon="7.516927057186847"><ele>288.25</ele><time>2026-04-03T16:51:41Z</time></trkpt><trkpt lat="45.027920047804145" lon="7.516931761582966"><ele>288.0</ele><time>2026-04-03T16:51:42Z</time></trkpt><trkpt lat="45.02783035904192" lon="7.516937270010424"><ele>288.0</ele><time>2026-04-03T16:51:43Z</time></trkpt><trkpt lat="45.02775202603025" lon="7.516962799034355"><ele>288.0</ele><time>2026-04-03T16:51:44Z</time></trkpt><trkpt lat="45.02767725193602" lon="7.516952900819613"><ele>288.0</ele><time>2026-04-03T16:51:45Z</time></trkpt><trkpt lat="45.02759710266629" lon="7.516900083590873"><ele>288.0</ele><time>2026-04-03T16:51:46Z</time></trkpt><trkpt lat="45.02752276184758" lon="7.5168110945147815"><ele>288.0</ele><time>2026-04-03T16:51:47Z</time></trkpt><trkpt lat="45.02745295367138" lon="7.516729243586591"><ele>288.0</ele><time>2026-04-03T16:51:48Z</time></trkpt><trkpt lat="45.02739050830047" lon="7.51666200309766"><ele>288.0</ele><time>2026-04-03T16:51:49Z</time></trkpt><trkpt lat="45.02731243652625" lon="7.516563468424891"><ele>288.0</ele><time>2026-04-03T16:51:51Z</time></trkpt><trkpt lat="45.02723777928655" lon="7.516487655259552"><ele>288.0</ele><time>2026-04-03T16:51:53Z</time></trkpt><trkpt lat="45.02714317010775" lon="7.516392925775485"><ele>288.0</ele><time>2026-04-03T16:51:55Z</time></trkpt><trkpt lat="45.02709166010124" lon="7.516339453401318"><ele>288.0</ele><time>2026-04-03T16:51:56Z</time></trkpt><trkpt lat="45.027065991665474" lon="7.5162543851182875"><ele>288.0</ele><time>2026-04-03T16:51:57Z</time></trkpt><trkpt lat="45.02698641181818" lon="7.516168960415012"><ele>288.4</ele><time>2026-04-03T16:51:59Z</time></trkpt><trkpt lat="45.02693064123735" lon="7.516114982240427"><ele>288.8</ele><time>2026-04-03T16:52:00Z</time></trkpt><trkpt lat="45.02687075625142" lon="7.516061949373307"><ele>289.2</ele><time>2026-04-03T16:52:05Z</time></trkpt><trkpt lat="45.02681039139415" lon="7.516005776205721"><ele>289.6</ele><time>2026-04-03T16:52:06Z</time></trkpt><trkpt lat="45.026706099539986" lon="7.515932547514966"><ele>290.0</ele><time>2026-04-03T16:52:07Z</time></trkpt><trkpt lat="45.026558440238155" lon="7.51580071366434"><ele>290.0</ele><time>2026-04-03T16:52:08Z</time></trkpt><trkpt lat="45.02638096625848" lon="7.515630262159191"><ele>290.0</ele><time>2026-04-03T16:52:09Z</time></trkpt><trkpt lat="45.02621419227499" lon="7.515474410572154"><ele>290.0</ele><time>2026-04-03T16:52:10Z</time></trkpt><trkpt lat="45.02610437515253" lon="7.515346015127573"><ele>290.2</ele><time>2026-04-03T16:52:11Z</time></trkpt><trkpt lat="45.02603712659147" lon="7.515292267889143"><ele>290.4</ele><time>2026-04-03T16:52:11.999Z</time></trkpt><trkpt lat="45.025949300749836" lon="7.515253882936614"><ele>290.6</ele><time>2026-04-03T16:52:16.999Z</time></trkpt><trkpt lat="45.02586328064142" lon="7.5152559629106825"><ele>290.8</ele><time>2026-04-03T16:52:19.999Z</time></trkpt><trkpt lat="45.02588688326918" lon="7.515114980361171"><ele>291.0</ele><time>2026-04-03T16:52:20.999Z</time></trkpt><trkpt lat="45.0257921886401" lon="7.515026738713017"><ele>291.3333333333333</ele><time>2026-04-03T16:52:21.999Z</time></trkpt><trkpt lat="45.02568005054351" lon="7.514927886182718"><ele>291.66666666666663</ele><time>2026-04-03T16:52:22.999Z</time></trkpt><trkpt lat="45.02555128136199" lon="7.514802185003242"><ele>292.0</ele><time>2026-04-03T16:52:23.999Z</time></trkpt><trkpt lat="45.02539548420252" lon="7.514654831596328"><ele>291.66666666666663</ele><time>2026-04-03T16:52:24.999Z</time></trkpt><trkpt lat="45.025246046368785" lon="7.514514622812586"><ele>291.3333333333333</ele><time>2026-04-03T16:52:25.999Z</time></trkpt><trkpt lat="45.0251146773459" lon="7.514391590478216"><ele>291.0</ele><time>2026-04-03T16:52:26.999Z</time></trkpt><trkpt lat="45.02500086344776" lon="7.514285403666703"><ele>290.5</ele><time>2026-04-03T16:52:27.999Z</time></trkpt><trkpt lat="45.024893913614555" lon="7.514187209165148"><ele>290.0</ele><time>2026-04-03T16:52:28.999Z</time></trkpt><trkpt lat="45.02478940653112" lon="7.514091257324789"><ele>289.5</ele><time>2026-04-03T16:52:29.999Z</time></trkpt><trkpt lat="45.024690212818534" lon="7.514000183368351"><ele>289.0</ele><time>2026-04-03T16:52:30.999Z</time></trkpt><trkpt lat="45.024609981284094" lon="7.513926774980431"><ele>289.0</ele><time>2026-04-03T16:52:31.999Z</time></trkpt><trkpt lat="45.024537024104404" lon="7.5138601906707185"><ele>289.0</ele><time>2026-04-03T16:52:32.999Z</time></trkpt><trkpt lat="45.02446913244624" lon="7.513799323727177"><ele>289.0</ele><time>2026-04-03T16:52:33.999Z</time></trkpt><trkpt lat="45.02440226711812" lon="7.513738827360554"><ele>289.0</ele><time>2026-04-03T16:52:34.999Z</time></trkpt><trkpt lat="45.024322194348805" lon="7.513660790525001"><ele>289.0</ele><time>2026-04-03T16:52:35.999Z</time></trkpt><trkpt lat="45.02424066777505" lon="7.513568543928669"><ele>289.0</ele><time>2026-04-03T16:52:36.999Z</time></trkpt><trkpt lat="45.0241628937724" lon="7.513451486767662"><ele>288.59999999999997</ele><time>2026-04-03T16:52:37.999Z</time></trkpt><trkpt lat="45.02408395279518" lon="7.513326103387612"><ele>288.2</ele><time>2026-04-03T16:52:38.999Z</time></trkpt><trkpt lat="45.0240039402266" lon="7.513199754290942"><ele>287.79999999999995</ele><time>2026-04-03T16:52:39.999Z</time></trkpt><trkpt lat="45.023931264130006" lon="7.5130876604886625"><ele>287.4</ele><time>2026-04-03T16:52:40.999Z</time></trkpt><trkpt lat="45.023855981717816" lon="7.512991832019693"><ele>287.0</ele><time>2026-04-03T16:52:41.999Z</time></trkpt><trkpt lat="45.023767346565414" lon="7.512905941161298"><ele>287.0</ele><time>2026-04-03T16:52:42.999Z</time></trkpt><trkpt lat="45.02367231862884" lon="7.512834940323548"><ele>287.0</ele><time>2026-04-03T16:52:43.999Z</time></trkpt><trkpt lat="45.023571632398586" lon="7.51279198278164"><ele>287.0</ele><time>2026-04-03T16:52:44.999Z</time></trkpt><trkpt lat="45.02346779826603" lon="7.512758907315233"><ele>287.0</ele><time>2026-04-03T16:52:45.999Z</time></trkpt><trkpt lat="45.02336025486455" lon="7.51272482630082"><ele>287.0</ele><time>2026-04-03T16:52:46.999Z</time></trkpt><trkpt lat="45.02324796204261" lon="7.512688766877944"><ele>287.2</ele><time>2026-04-03T16:52:47.999Z</time></trkpt><trkpt lat="45.02313712743055" lon="7.512650881273371"><ele>287.4</ele><time>2026-04-03T16:52:48.999Z</time></trkpt><trkpt lat="45.02303550766457" lon="7.51261534022344"><ele>287.6</ele><time>2026-04-03T16:52:49.999Z</time></trkpt><trkpt lat="45.0229438957557" lon="7.512580507650197"><ele>287.8</ele><time>2026-04-03T16:52:50.999Z</time></trkpt><trkpt lat="45.02286033885244" lon="7.512545146364118"><ele>288.0</ele><time>2026-04-03T16:52:51.999Z</time></trkpt><trkpt lat="45.02278813498471" lon="7.512508007856359"><ele>288.0</ele><time>2026-04-03T16:52:52.999Z</time></trkpt><trkpt lat="45.02272195288857" lon="7.512456438646586"><ele>288.0</ele><time>2026-04-03T16:52:53.999Z</time></trkpt><trkpt lat="45.02265167550066" lon="7.512393107073962"><ele>288.0</ele><time>2026-04-03T16:52:54.999Z</time></trkpt><trkpt lat="45.022593669541" lon="7.512292665191813"><ele>288.0</ele><time>2026-04-03T16:52:55.999Z</time></trkpt><trkpt lat="45.022531548597634" lon="7.512184826669743"><ele>288.0</ele><time>2026-04-03T16:52:56.999Z</time></trkpt><trkpt lat="45.02245510429869" lon="7.51208489560184"><ele>288.6666666666667</ele><time>2026-04-03T16:52:57.999Z</time></trkpt><trkpt lat="45.022406159633114" lon="7.511982452300699"><ele>289.33333333333337</ele><time>2026-04-03T16:52:58.999Z</time></trkpt><trkpt lat="45.02233753747069" lon="7.511871493285686"><ele>290.0</ele><time>2026-04-03T16:53:00.999Z</time></trkpt><trkpt lat="45.02211261391316" lon="7.512180017594298"><ele>290.0</ele><time>2026-04-03T16:53:02.999Z</time></trkpt><trkpt lat="45.022062919363854" lon="7.512260971202882"><ele>290.0</ele><time>2026-04-03T16:53:03.999Z</time></trkpt><trkpt lat="45.02201037668824" lon="7.512324439340422"><ele>290.0</ele><time>2026-04-03T16:53:04.999Z</time></trkpt><trkpt lat="45.02194468406638" lon="7.512429650768679"><ele>290.0</ele><time>2026-04-03T16:53:06.999Z</time></trkpt><trkpt lat="45.02190705733986" lon="7.512559806772864"><ele>290.0</ele><time>2026-04-03T16:53:08.998Z</time></trkpt><trkpt lat="45.02186159089464" lon="7.512670293242886"><ele>290.0</ele><time>2026-04-03T16:53:09.998Z</time></trkpt><trkpt lat="45.021821610910024" lon="7.512802276631311"><ele>290.0</ele><time>2026-04-03T16:53:10.998Z</time></trkpt><trkpt lat="45.02174587587473" lon="7.512979114340116"><ele>290.0</ele><time>2026-04-03T16:53:11.998Z</time></trkpt><trkpt lat="45.021643392508324" lon="7.51316778057158"><ele>290.0</ele><time>2026-04-03T16:53:12.998Z</time></trkpt><trkpt lat="45.021530643799714" lon="7.51334928687085"><ele>290.0</ele><time>2026-04-03T16:53:13.998Z</time></trkpt><trkpt lat="45.021434818317836" lon="7.513503307183365"><ele>290.0</ele><time>2026-04-03T16:53:14.998Z</time></trkpt><trkpt lat="45.02135182088724" lon="7.513644237187106"><ele>290.0</ele><time>2026-04-03T16:53:15.998Z</time></trkpt><trkpt lat="45.021287992235706" lon="7.5137862790547265"><ele>290.0</ele><time>2026-04-03T16:53:16.998Z</time></trkpt><trkpt lat="45.02123316496655" lon="7.513943856461587"><ele>289.4</ele><time>2026-04-03T16:53:17.998Z</time></trkpt><trkpt lat="45.02117954155393" lon="7.51411924431779"><ele>288.8</ele><time>2026-04-03T16:53:18.998Z</time></trkpt><trkpt lat="45.02112077109327" lon="7.514262475126196"><ele>288.2</ele><time>2026-04-03T16:53:19.998Z</time></trkpt><trkpt lat="45.02105657887946" lon="7.514380507624976"><ele>287.6</ele><time>2026-04-03T16:53:20.998Z</time></trkpt><trkpt lat="45.02102055092706" lon="7.514486385905554"><ele>287.0</ele><time>2026-04-03T16:53:21.998Z</time></trkpt><trkpt lat="45.021010157956816" lon="7.514584995339484"><ele>286.5</ele><time>2026-04-03T16:53:22.998Z</time></trkpt><trkpt lat="45.02108524257065" lon="7.514730080414471"><ele>286.0</ele><time>2026-04-03T16:53:24.998Z</time></trkpt><trkpt lat="45.02117444207159" lon="7.514806322946237"><ele>285.5</ele><time>2026-04-03T16:53:25.998Z</time></trkpt><trkpt lat="45.02129348048469" lon="7.5148749509734625"><ele>285.0</ele><time>2026-04-03T16:53:26.998Z</time></trkpt><trkpt lat="45.02139791377797" lon="7.514937001939345"><ele>285.0</ele><time>2026-04-03T16:53:27.998Z</time></trkpt><trkpt lat="45.02145865917266" lon="7.514998435263253"><ele>285.0</ele><time>2026-04-03T16:53:28.998Z</time></trkpt><trkpt lat="45.02146130019518" lon="7.515164592867887"><ele>285.0</ele><time>2026-04-03T16:53:30.998Z</time></trkpt><trkpt lat="45.02142321840994" lon="7.51530200548195"><ele>285.0</ele><time>2026-04-03T16:53:31.998Z</time></trkpt><trkpt lat="45.02136117007702" lon="7.515474595633605"><ele>285.0</ele><time>2026-04-03T16:53:32.998Z</time></trkpt><trkpt lat="45.021298808292286" lon="7.515627961102779"><ele>285.25</ele><time>2026-04-03T16:53:33.998Z</time></trkpt><trkpt lat="45.02123586472979" lon="7.515787312394944"><ele>285.5</ele><time>2026-04-03T16:53:34.998Z</time></trkpt><trkpt lat="45.02118067815208" lon="7.515980499596154"><ele>285.75</ele><time>2026-04-03T16:53:35.998Z</time></trkpt><trkpt lat="45.021147007661384" lon="7.516152280112005"><ele>286.0</ele><time>2026-04-03T16:53:36.998Z</time></trkpt><trkpt lat="45.021140007831285" lon="7.516260501440925"><ele>286.25</ele><time>2026-04-03T16:53:37.998Z</time></trkpt><trkpt lat="45.02107609846448" lon="7.516477859396256"><ele>286.5</ele><time>2026-04-03T16:53:39.998Z</time></trkpt><trkpt lat="45.02104238290386" lon="7.516631157216808"><ele>286.75</ele><time>2026-04-03T16:53:40.998Z</time></trkpt><trkpt lat="45.02102752691433" lon="7.516779807914703"><ele>287.0</ele><time>2026-04-03T16:53:41.998Z</time></trkpt><trkpt lat="45.021050786833065" lon="7.51689757051056"><ele>287.0</ele><time>2026-04-03T16:53:43Z</time></trkpt><trkpt lat="45.02109681708634" lon="7.517042863328955"><ele>287.0</ele><time>2026-04-03T16:53:44Z</time></trkpt><trkpt lat="45.021141269751425" lon="7.517186699718118"><ele>287.0</ele><time>2026-04-03T16:53:45Z</time></trkpt><trkpt lat="45.02114907845242" lon="7.517302898066254"><ele>287.0</ele><time>2026-04-03T16:53:46Z</time></trkpt><trkpt lat="45.021058320249445" lon="7.517469447892828"><ele>286.25</ele><time>2026-04-03T16:53:48Z</time></trkpt><trkpt lat="45.02098583886417" lon="7.517599484911261"><ele>285.5</ele><time>2026-04-03T16:53:49Z</time></trkpt><trkpt lat="45.02094258756017" lon="7.517784822403564"><ele>284.75</ele><time>2026-04-03T16:53:50Z</time></trkpt><trkpt lat="45.0208944536786" lon="7.517964874522749"><ele>284.0</ele><time>2026-04-03T16:53:51Z</time></trkpt><trkpt lat="45.02084723143803" lon="7.518099891179471"><ele>284.0</ele><time>2026-04-03T16:53:52Z</time></trkpt><trkpt lat="45.02076446399958" lon="7.518255613824396"><ele>284.0</ele><time>2026-04-03T16:53:53Z</time></trkpt><trkpt lat="45.020683332883266" lon="7.518424760535427"><ele>284.0</ele><time>2026-04-03T16:53:54Z</time></trkpt><trkpt lat="45.02060366045578" lon="7.518605644676234"><ele>284.0</ele><time>2026-04-03T16:53:55Z</time></trkpt><trkpt lat="45.0205373174752" lon="7.518759384979927"><ele>284.0</ele><time>2026-04-03T16:53:56Z</time></trkpt><trkpt lat="45.020482029223544" lon="7.518883378314551"><ele>284.0</ele><time>2026-04-03T16:53:57Z</time></trkpt><trkpt lat="45.02043792632945" lon="7.519016523583974"><ele>284.0</ele><time>2026-04-03T16:53:58Z</time></trkpt><trkpt lat="45.02040137214585" lon="7.519194361784943"><ele>284.0</ele><time>2026-04-03T16:53:59Z</time></trkpt><trkpt lat="45.02035743845132" lon="7.519391184806802"><ele>283.33333333333337</ele><time>2026-04-03T16:54:00Z</time></trkpt><trkpt lat="45.020318682142054" lon="7.519588076170199"><ele>282.6666666666667</ele><time>2026-04-03T16:54:01Z</time></trkpt><trkpt lat="45.02029891411136" lon="7.519806690169106"><ele>282.0</ele><time>2026-04-03T16:54:02Z</time></trkpt><trkpt lat="45.020280024516985" lon="7.520020830705749"><ele>282.0</ele><time>2026-04-03T16:54:03Z</time></trkpt><trkpt lat="45.020262069353116" lon="7.520214047186342"><ele>282.0</ele><time>2026-04-03T16:54:04Z</time></trkpt><trkpt lat="45.020246659264245" lon="7.520383273184219"><ele>282.0</ele><time>2026-04-03T16:54:05Z</time></trkpt><trkpt lat="45.02021617166129" lon="7.520545488387884"><ele>282.0</ele><time>2026-04-03T16:54:06Z</time></trkpt><trkpt lat="45.02018551420673" lon="7.520703594667149"><ele>282.0</ele><time>2026-04-03T16:54:07Z</time></trkpt><trkpt lat="45.02017357828279" lon="7.520879222394794"><ele>282.0</ele><time>2026-04-03T16:54:08Z</time></trkpt><trkpt lat="45.02017891858276" lon="7.52105861089563"><ele>282.0</ele><time>2026-04-03T16:54:09Z</time></trkpt><trkpt lat="45.02017022600268" lon="7.52121845868876"><ele>282.0</ele><time>2026-04-03T16:54:10Z</time></trkpt><trkpt lat="45.020161918378086" lon="7.521395014787869"><ele>282.0</ele><time>2026-04-03T16:54:11Z</time></trkpt><trkpt lat="45.02013242211553" lon="7.5215434979613365"><ele>282.0</ele><time>2026-04-03T16:54:12Z</time></trkpt><trkpt lat="45.02009772993983" lon="7.521671959623431"><ele>282.0</ele><time>2026-04-03T16:54:13Z</time></trkpt><trkpt lat="45.02006899220445" lon="7.5218351856447505"><ele>282.0</ele><time>2026-04-03T16:54:15Z</time></trkpt><trkpt lat="45.020064300173054" lon="7.5219293740210285"><ele>282.0</ele><time>2026-04-03T16:54:16Z</time></trkpt><trkpt lat="45.02003178189588" lon="7.522084755270789"><ele>281.6666666666667</ele><time>2026-04-03T16:54:18Z</time></trkpt><trkpt lat="45.020010416926226" lon="7.522210384242605"><ele>281.3333333333333</ele><time>2026-04-03T16:54:20Z</time></trkpt><trkpt lat="45.01998173695558" lon="7.522329364700151"><ele>281.0</ele><time>2026-04-03T16:54:22Z</time></trkpt><trkpt lat="45.01995607063199" lon="7.522419263392257"><ele>280.66666666666663</ele><time>2026-04-03T16:54:23Z</time></trkpt><trkpt lat="45.01992617053482" lon="7.522545731557085"><ele>280.3333333333333</ele><time>2026-04-03T16:54:24Z</time></trkpt><trkpt lat="45.01988124192262" lon="7.522678968114968"><ele>280.0</ele><time>2026-04-03T16:54:25Z</time></trkpt><trkpt lat="45.019837268498314" lon="7.522763623791523"><ele>280.0</ele><time>2026-04-03T16:54:26Z</time></trkpt><trkpt lat="45.01978583095874" lon="7.522840637160515"><ele>280.0</ele><time>2026-04-03T16:54:27.999Z</time></trkpt><trkpt lat="45.01984735487019" lon="7.5228755215298735"><ele>280.0</ele><time>2026-04-03T16:54:30.999Z</time></trkpt><trkpt lat="45.01986510918975" lon="7.522784230867442"><ele>280.0</ele><time>2026-04-03T16:54:32.999Z</time></trkpt><trkpt lat="45.01987115862175" lon="7.522678728453463"><ele>280.0</ele><time>2026-04-03T16:54:33.999Z</time></trkpt><trkpt lat="45.019892492424255" lon="7.522586190297082"><ele>280.0</ele><time>2026-04-03T16:54:34.999Z</time></trkpt><trkpt lat="45.01992761362162" lon="7.522474425578211"><ele>280.0</ele><time>2026-04-03T16:54:35.999Z</time></trkpt><trkpt lat="45.01995853633104" lon="7.522356226338783"><ele>279.8</ele><time>2026-04-03T16:54:36.999Z</time></trkpt><trkpt lat="45.02000577721387" lon="7.522209426921088"><ele>279.6</ele><time>2026-04-03T16:54:37.999Z</time></trkpt><trkpt lat="45.020040565941144" lon="7.522077997766041"><ele>279.4</ele><time>2026-04-03T16:54:38.999Z</time></trkpt><trkpt lat="45.02006157003395" lon="7.521950848777191"><ele>279.2</ele><time>2026-04-03T16:54:39.999Z</time></trkpt><trkpt lat="45.02006873428077" lon="7.521825641041134"><ele>279.0</ele><time>2026-04-03T16:54:40.999Z</time></trkpt><trkpt lat="45.02006653167782" lon="7.521724567349683"><ele>278.8</ele><time>2026-04-03T16:54:41.999Z</time></trkpt><trkpt lat="45.01998725835553" lon="7.521610673851411"><ele>278.59999999999997</ele><time>2026-04-03T16:54:43.999Z</time></trkpt><trkpt lat="45.01984539217783" lon="7.521558855135256"><ele>278.4</ele><time>2026-04-03T16:54:45.999Z</time></trkpt><trkpt lat="45.01976911329462" lon="7.5215390087924865"><ele>278.2</ele><time>2026-04-03T16:54:46.999Z</time></trkpt><trkpt lat="45.01969530030439" lon="7.5215292771588995"><ele>278.0</ele><time>2026-04-03T16:54:47.999Z</time></trkpt><trkpt lat="45.019606277633734" lon="7.521513024145374"><ele>278.0</ele><time>2026-04-03T16:54:48.999Z</time></trkpt><trkpt lat="45.01952275083687" lon="7.521485451094416"><ele>278.0</ele><time>2026-04-03T16:54:49.999Z</time></trkpt><trkpt lat="45.019423095134826" lon="7.521424222938102"><ele>278.0</ele><time>2026-04-03T16:54:50.999Z</time></trkpt><trkpt lat="45.019336499541716" lon="7.521381068030976"><ele>278.0</ele><time>2026-04-03T16:54:51.999Z</time></trkpt><trkpt lat="45.01924392385088" lon="7.521342605578727"><ele>278.0</ele><time>2026-04-03T16:54:52.999Z</time></trkpt><trkpt lat="45.019161553675026" lon="7.521296507440404"><ele>278.5</ele><time>2026-04-03T16:54:53.999Z</time></trkpt><trkpt lat="45.01908686141495" lon="7.5213046148396066"><ele>279.0</ele><time>2026-04-03T16:54:54.999Z</time></trkpt><trkpt lat="45.01900636359818" lon="7.521384515924478"><ele>279.5</ele><time>2026-04-03T16:54:56.999Z</time></trkpt><trkpt lat="45.01896041919512" lon="7.52147981726082"><ele>280.0</ele><time>2026-04-03T16:54:57.999Z</time></trkpt><trkpt lat="45.018904456700454" lon="7.521609863487229"><ele>280.5</ele><time>2026-04-03T16:54:58.999Z</time></trkpt><trkpt lat="45.018950417023895" lon="7.521698669015962"><ele>281.0</ele><time>2026-04-03T16:54:59.999Z</time></trkpt><trkpt lat="45.01903091706582" lon="7.521764842214165"><ele>281.0</ele><time>2026-04-03T16:55:00.999Z</time></trkpt><trkpt lat="45.01909027192025" lon="7.521805175425282"><ele>281.0</ele><time>2026-04-03T16:55:01.999Z</time></trkpt><trkpt lat="45.01914269522724" lon="7.521855963227048"><ele>281.0</ele><time>2026-04-03T16:55:02.999Z</time></trkpt><trkpt lat="45.019216756001946" lon="7.5219146569060005"><ele>281.0</ele><time>2026-04-03T16:55:03.999Z</time></trkpt><trkpt lat="45.01928774845125" lon="7.521917771222714"><ele>281.0</ele><time>2026-04-03T16:55:04.999Z</time></trkpt><trkpt lat="45.019365264313045" lon="7.5219133014315664"><ele>281.0</ele><time>2026-04-03T16:55:05.999Z</time></trkpt><trkpt lat="45.019449922291024" lon="7.521829032039992"><ele>280.5</ele><time>2026-04-03T16:55:07.999Z</time></trkpt><trkpt lat="45.01951802009568" lon="7.521800561123563"><ele>280.0</ele><time>2026-04-03T16:55:08.999Z</time></trkpt><trkpt lat="45.019581846780724" lon="7.5217630864908624"><ele>279.5</ele><time>2026-04-03T16:55:09.999Z</time></trkpt><trkpt lat="45.01964030250041" lon="7.521704912379758"><ele>279.0</ele><time>2026-04-03T16:55:10.999Z</time></trkpt><trkpt lat="45.01968683393664" lon="7.521589548783534"><ele>278.5</ele><time>2026-04-03T16:55:12.999Z</time></trkpt><trkpt lat="45.01966076350945" lon="7.521492956883837"><ele>278.0</ele><time>2026-04-03T16:55:14.999Z</time></trkpt><trkpt lat="45.01958447483919" lon="7.521460972951611"><ele>278.0</ele><time>2026-04-03T16:55:16.999Z</time></trkpt><trkpt lat="45.019490686717354" lon="7.521472160896604"><ele>278.0</ele><time>2026-04-03T16:55:17.999Z</time></trkpt><trkpt lat="45.01938910508284" lon="7.521435544268218"><ele>278.0</ele><time>2026-04-03T16:55:18.999Z</time></trkpt><trkpt lat="45.01927952286105" lon="7.521383246844123"><ele>278.0</ele><time>2026-04-03T16:55:19.999Z</time></trkpt><trkpt lat="45.01918353126589" lon="7.521325194788054"><ele>278.0</ele><time>2026-04-03T16:55:20.999Z</time></trkpt><trkpt lat="45.01911536845603" lon="7.521299072061299"><ele>278.6</ele><time>2026-04-03T16:55:21.999Z</time></trkpt><trkpt lat="45.01904051860493" lon="7.521307233013582"><ele>279.20000000000005</ele><time>2026-04-03T16:55:22.999Z</time></trkpt><trkpt lat="45.018952593424416" lon="7.521385113833473"><ele>279.8</ele><time>2026-04-03T16:55:24.998Z</time></trkpt><trkpt lat="45.018851552102554" lon="7.521449916692527"><ele>280.40000000000003</ele><time>2026-04-03T16:55:26.998Z</time></trkpt><trkpt lat="45.01875857178453" lon="7.521458762923109"><ele>281.0</ele><time>2026-04-03T16:55:28.998Z</time></trkpt><trkpt lat="45.018672093721484" lon="7.521415782620683"><ele>281.0</ele><time>2026-04-03T16:55:31.998Z</time></trkpt><trkpt lat="45.018592758474924" lon="7.521365543647065"><ele>281.0</ele><time>2026-04-03T16:55:36.998Z</time></trkpt><trkpt lat="45.018508908829375" lon="7.5212831526328054"><ele>281.0</ele><time>2026-04-03T16:55:38.998Z</time></trkpt><trkpt lat="45.01845223472945" lon="7.521151766377147"><ele>281.0</ele><time>2026-04-03T16:55:40.998Z</time></trkpt><trkpt lat="45.01839938483275" lon="7.521042056292188"><ele>281.0</ele><time>2026-04-03T16:55:42.998Z</time></trkpt><trkpt lat="45.01834260449266" lon="7.52108107641306"><ele>281.00000000000006</ele><time>2026-04-03T16:55:44.998Z</time></trkpt><trkpt lat="45.01835379100207" lon="7.5211927207860905"><ele>281.0</ele><time>2026-04-03T16:55:47.998Z</time></trkpt><trkpt lat="45.018442297305846" lon="7.521207356019167"><ele>281.0</ele><time>2026-04-03T16:55:50Z</time></trkpt><trkpt lat="45.018507968223204" lon="7.521173578443106"><ele>281.0</ele><time>2026-04-03T16:55:51Z</time></trkpt><trkpt lat="45.01857049695901" lon="7.521133510146555"><ele>281.0</ele><time>2026-04-03T16:55:52Z</time></trkpt><trkpt lat="45.01863721591225" lon="7.521100288989642"><ele>281.00000000000006</ele><time>2026-04-03T16:55:53Z</time></trkpt><trkpt lat="45.01869870689123" lon="7.5210643905140255"><ele>281.0</ele><time>2026-04-03T16:55:54Z</time></trkpt><trkpt lat="45.01879720207985" lon="7.5210641648298"><ele>281.0</ele><time>2026-04-03T16:55:56Z</time></trkpt><trkpt lat="45.01886959328269" lon="7.521122099269016"><ele>281.0</ele><time>2026-04-03T16:55:59Z</time></trkpt><trkpt lat="45.01893378186462" lon="7.521146331758589"><ele>281.0</ele><time>2026-04-03T16:56:02Z</time></trkpt><trkpt lat="45.01896555340948" lon="7.521223444309246"><ele>281.0</ele><time>2026-04-03T16:56:04Z</time></trkpt><trkpt lat="45.01896230291831" lon="7.521344085861509"><ele>281.0</ele><time>2026-04-03T16:56:06Z</time></trkpt><trkpt lat="45.01898130581172" lon="7.52151500920556"><ele>281.0</ele><time>2026-04-03T16:56:08Z</time></trkpt><trkpt lat="45.01899833483734" lon="7.521614492865081"><ele>281.0</ele><time>2026-04-03T16:56:09Z</time></trkpt><trkpt lat="45.019043523137576" lon="7.5216993140399495"><ele>281.0</ele><time>2026-04-03T16:56:10Z</time></trkpt><trkpt lat="45.019072444307135" lon="7.521788617098273"><ele>281.0</ele><time>2026-04-03T16:56:11Z</time></trkpt><trkpt lat="45.01913547848228" lon="7.521863725880293"><ele>281.0</ele><time>2026-04-03T16:56:12Z</time></trkpt><trkpt lat="45.01923646453094" lon="7.521919836691206"><ele>281.0</ele><time>2026-04-03T16:56:14Z</time></trkpt><trkpt lat="45.01934073927201" lon="7.521930319287172"><ele>281.0</ele><time>2026-04-03T16:56:16Z</time></trkpt><trkpt lat="45.01945602084969" lon="7.521870989082035"><ele>280.5</ele><time>2026-04-03T16:56:18Z</time></trkpt><trkpt lat="45.01951786923688" lon="7.52182814496508"><ele>280.0</ele><time>2026-04-03T16:56:19Z</time></trkpt><trkpt lat="45.019588403367706" lon="7.521784291168568"><ele>279.5</ele><time>2026-04-03T16:56:20Z</time></trkpt><trkpt lat="45.019663689258316" lon="7.521735941713155"><ele>279.0</ele><time>2026-04-03T16:56:21Z</time></trkpt><trkpt lat="45.01973064824544" lon="7.521693174291232"><ele>278.5</ele><time>2026-04-03T16:56:22Z</time></trkpt><trkpt lat="45.01980918442792" lon="7.521639652503154"><ele>278.0</ele><time>2026-04-03T16:56:23Z</time></trkpt><trkpt lat="45.01988564618899" lon="7.521605018973574"><ele>278.0</ele><time>2026-04-03T16:56:24Z</time></trkpt><trkpt lat="45.01997285942717" lon="7.521612838016259"><ele>278.0</ele><time>2026-04-03T16:56:25Z</time></trkpt><trkpt lat="45.020056005228476" lon="7.521628800549375"><ele>278.0</ele><time>2026-04-03T16:56:27Z</time></trkpt><trkpt lat="45.02009025096164" lon="7.521753400523839"><ele>278.0</ele><time>2026-04-03T16:56:29Z</time></trkpt><trkpt lat="45.020070244290594" lon="7.521931960845603"><ele>278.0</ele><time>2026-04-03T16:56:30.999Z</time></trkpt><trkpt lat="45.020053889699305" lon="7.5220259465044315"><ele>278.2</ele><time>2026-04-03T16:56:31.999Z</time></trkpt><trkpt lat="45.02002867783984" lon="7.5221232688353865"><ele>278.4</ele><time>2026-04-03T16:56:32.999Z</time></trkpt><trkpt lat="45.02001106456113" lon="7.522226782036432"><ele>278.59999999999997</ele><time>2026-04-03T16:56:33.999Z</time></trkpt><trkpt lat="45.01996300083704" lon="7.5224167492759735"><ele>278.8</ele><time>2026-04-03T16:56:35.999Z</time></trkpt><trkpt lat="45.01991230057558" lon="7.522577030627043"><ele>279.0</ele><time>2026-04-03T16:56:37.999Z</time></trkpt><trkpt lat="45.019855744451725" lon="7.522706927794228"><ele>279.2</ele><time>2026-04-03T16:56:39.999Z</time></trkpt><trkpt lat="45.01979272788194" lon="7.522837502178454"><ele>279.4</ele><time>2026-04-03T16:56:41.999Z</time></trkpt><trkpt lat="45.019694498643695" lon="7.522872459262228"><ele>279.6</ele><time>2026-04-03T16:56:43.999Z</time></trkpt><trkpt lat="45.01957971556629" lon="7.522809641613472"><ele>279.8</ele><time>2026-04-03T16:56:45.999Z</time></trkpt><trkpt lat="45.01950501880672" lon="7.522788601347226"><ele>280.0</ele><time>2026-04-03T16:56:46.999Z</time></trkpt><trkpt lat="45.019425838703725" lon="7.522763049197514"><ele>280.0</ele><time>2026-04-03T16:56:47.999Z</time></trkpt><trkpt lat="45.01935330734388" lon="7.52273431481724"><ele>280.0</ele><time>2026-04-03T16:56:48.999Z</time></trkpt><trkpt lat="45.01927705165758" lon="7.522707957999916"><ele>280.0</ele><time>2026-04-03T16:56:49.999Z</time></trkpt><trkpt lat="45.01919511722103" lon="7.5226742492104846"><ele>280.0</ele><time>2026-04-03T16:56:50.999Z</time></trkpt><trkpt lat="45.019103765077475" lon="7.522647442784363"><ele>280.0</ele><time>2026-04-03T16:56:51.999Z</time></trkpt><trkpt lat="45.019017845433616" lon="7.522626913398129"><ele>280.0</ele><time>2026-04-03T16:56:52.999Z</time></trkpt><trkpt lat="45.01892366675904" lon="7.522593300964363"><ele>280.16666666666663</ele><time>2026-04-03T16:56:53.999Z</time></trkpt><trkpt lat="45.01884297618311" lon="7.522570917788139"><ele>280.3333333333333</ele><time>2026-04-03T16:56:54.999Z</time></trkpt><trkpt lat="45.018749769329226" lon="7.522552952180925"><ele>280.5</ele><time>2026-04-03T16:56:55.999Z</time></trkpt><trkpt lat="45.01865988347394" lon="7.522536657166974"><ele>280.6666666666667</ele><time>2026-04-03T16:56:56.999Z</time></trkpt><trkpt lat="45.01856813883029" lon="7.522517457650118"><ele>280.83333333333337</ele><time>2026-04-03T16:56:57.999Z</time></trkpt><trkpt lat="45.01848475646548" lon="7.522494829531455"><ele>281.0</ele><time>2026-04-03T16:56:58.999Z</time></trkpt><trkpt lat="45.01840275766747" lon="7.522478598240497"><ele>281.0</ele><time>2026-04-03T16:56:59.999Z</time></trkpt><trkpt lat="45.018320367973615" lon="7.52245654810608"><ele>281.0</ele><time>2026-04-03T16:57:00.999Z</time></trkpt><trkpt lat="45.018228068259454" lon="7.522431936118034"><ele>281.0</ele><time>2026-04-03T16:57:01.999Z</time></trkpt><trkpt lat="45.01814144159811" lon="7.522409824732519"><ele>281.0</ele><time>2026-04-03T16:57:02.999Z</time></trkpt><trkpt lat="45.018056288959734" lon="7.522384004531226"><ele>281.0</ele><time>2026-04-03T16:57:03.999Z</time></trkpt><trkpt lat="45.01795936786462" lon="7.5223567587730695"><ele>281.6</ele><time>2026-04-03T16:57:04.999Z</time></trkpt><trkpt lat="45.01788941110536" lon="7.52225376158274"><ele>282.20000000000005</ele><time>2026-04-03T16:57:05.999Z</time></trkpt><trkpt lat="45.017802233360364" lon="7.5222257225785745"><ele>282.79999999999995</ele><time>2026-04-03T16:57:06.999Z</time></trkpt><trkpt lat="45.017728809421904" lon="7.522204131936035"><ele>283.4</ele><time>2026-04-03T16:57:07.999Z</time></trkpt><trkpt lat="45.01765098270162" lon="7.522184384818792"><ele>284.0</ele><time>2026-04-03T16:57:09.999Z</time></trkpt><trkpt lat="45.01760284151317" lon="7.522433196974455"><ele>284.0</ele><time>2026-04-03T16:57:11.999Z</time></trkpt><trkpt lat="45.01755176500797" lon="7.522530448866717"><ele>284.0</ele><time>2026-04-03T16:57:12.999Z</time></trkpt><trkpt lat="45.01750950786497" lon="7.522651677023305"><ele>284.0</ele><time>2026-04-03T16:57:13.999Z</time></trkpt><trkpt lat="45.017462669806044" lon="7.522793363209895"><ele>284.0</ele><time>2026-04-03T16:57:14.999Z</time></trkpt><trkpt lat="45.017417637850585" lon="7.522933469939038"><ele>284.0</ele><time>2026-04-03T16:57:15.999Z</time></trkpt><trkpt lat="45.01738012831836" lon="7.52310332740135"><ele>283.25</ele><time>2026-04-03T16:57:16.999Z</time></trkpt><trkpt lat="45.01731432074245" lon="7.523256005509829"><ele>282.5</ele><time>2026-04-03T16:57:17.999Z</time></trkpt><trkpt lat="45.01726314305386" lon="7.523416594227081"><ele>281.75</ele><time>2026-04-03T16:57:18.999Z</time></trkpt><trkpt lat="45.017230435897545" lon="7.523575790710878"><ele>281.0</ele><time>2026-04-03T16:57:19.999Z</time></trkpt><trkpt lat="45.01718913310162" lon="7.523706312379976"><ele>280.6666666666667</ele><time>2026-04-03T16:57:20.999Z</time></trkpt><trkpt lat="45.01715158810308" lon="7.523811802027848"><ele>280.33333333333337</ele><time>2026-04-03T16:57:21.999Z</time></trkpt><trkpt lat="45.017118943788645" lon="7.523904294559473"><ele>280.0</ele><time>2026-04-03T16:57:22.999Z</time></trkpt><trkpt lat="45.017084827994196" lon="7.524027351480428"><ele>279.6666666666667</ele><time>2026-04-03T16:57:24.998Z</time></trkpt><trkpt lat="45.0170397530836" lon="7.524132375147989"><ele>279.3333333333333</ele><time>2026-04-03T16:57:50.998Z</time></trkpt><trkpt lat="45.01701877786353" lon="7.52423287134477"><ele>279.0</ele><time>2026-04-03T16:57:53.998Z</time></trkpt><trkpt lat="45.01712413072439" lon="7.5243296771383985"><ele>279.0</ele><time>2026-04-03T16:57:57Z</time></trkpt><trkpt lat="45.017186646612785" lon="7.524414766454979"><ele>279.0</ele><time>2026-04-03T16:57:58Z</time></trkpt><trkpt lat="45.0172323550118" lon="7.5245065592258795"><ele>279.0</ele><time>2026-04-03T16:57:59Z</time></trkpt><trkpt lat="45.0172783991701" lon="7.524621978530691"><ele>279.0</ele><time>2026-04-03T16:58:00Z</time></trkpt><trkpt lat="45.01732507626028" lon="7.524742725606138"><ele>279.0</ele><time>2026-04-03T16:58:01Z</time></trkpt><trkpt lat="45.0173739831203" lon="7.5248761066864915"><ele>279.25</ele><time>2026-04-03T16:58:02Z</time></trkpt><trkpt lat="45.017414416894304" lon="7.525032580280317"><ele>279.5</ele><time>2026-04-03T16:58:03Z</time></trkpt><trkpt lat="45.01744637475" lon="7.52520189820903"><ele>279.75</ele><time>2026-04-03T16:58:04Z</time></trkpt><trkpt lat="45.017465224764244" lon="7.525379402854579"><ele>280.0</ele><time>2026-04-03T16:58:05Z</time></trkpt><trkpt lat="45.01748953690488" lon="7.5255661859650855"><ele>280.0</ele><time>2026-04-03T16:58:06Z</time></trkpt><trkpt lat="45.017523727732794" lon="7.525764322198295"><ele>280.0</ele><time>2026-04-03T16:58:07Z</time></trkpt><trkpt lat="45.01755494505621" lon="7.525959185618417"><ele>280.0</ele><time>2026-04-03T16:58:08Z</time></trkpt><trkpt lat="45.01758371969819" lon="7.526166472159587"><ele>280.0</ele><time>2026-04-03T16:58:09Z</time></trkpt><trkpt lat="45.01761900532888" lon="7.526372872751305"><ele>280.0</ele><time>2026-04-03T16:58:10Z</time></trkpt><trkpt lat="45.01765246116008" lon="7.526564466578217"><ele>280.0</ele><time>2026-04-03T16:58:11Z</time></trkpt><trkpt lat="45.01766579765842" lon="7.526755834278847"><ele>280.0</ele><time>2026-04-03T16:58:12Z</time></trkpt><trkpt lat="45.01766269037862" lon="7.526925772184185"><ele>280.0</ele><time>2026-04-03T16:58:13Z</time></trkpt><trkpt lat="45.01763096586167" lon="7.527075185534087"><ele>280.0</ele><time>2026-04-03T16:58:14Z</time></trkpt><trkpt lat="45.01754660177258" lon="7.527163728512049"><ele>280.0</ele><time>2026-04-03T16:58:15Z</time></trkpt><trkpt lat="45.01746493369298" lon="7.527248211982301"><ele>280.0</ele><time>2026-04-03T16:58:16Z</time></trkpt><trkpt lat="45.01736121929568" lon="7.527302948191814"><ele>280.0</ele><time>2026-04-03T16:58:17Z</time></trkpt><trkpt lat="45.01723759490275" lon="7.5273592686652275"><ele>280.0</ele><time>2026-04-03T16:58:18Z</time></trkpt><trkpt lat="45.01711360145248" lon="7.52741709324259"><ele>280.0</ele><time>2026-04-03T16:58:19Z</time></trkpt><trkpt lat="45.016977167943836" lon="7.52748258396891"><ele>280.0</ele><time>2026-04-03T16:58:20Z</time></trkpt><trkpt lat="45.01684614539177" lon="7.527558389468679"><ele>280.0</ele><time>2026-04-03T16:58:21Z</time></trkpt><trkpt lat="45.016707291286465" lon="7.527627330997736"><ele>280.0</ele><time>2026-04-03T16:58:22Z</time></trkpt><trkpt lat="45.0165613856378" lon="7.527698001201999"><ele>280.0</ele><time>2026-04-03T16:58:23Z</time></trkpt><trkpt lat="45.016415449581025" lon="7.527767958176321"><ele>280.0</ele><time>2026-04-03T16:58:24Z</time></trkpt><trkpt lat="45.01626624638831" lon="7.527843042826342"><ele>280.0</ele><time>2026-04-03T16:58:25Z</time></trkpt><trkpt lat="45.01611245546827" lon="7.527926778864664"><ele>280.0</ele><time>2026-04-03T16:58:26Z</time></trkpt><trkpt lat="45.01596115657906" lon="7.52800246010383"><ele>280.0</ele><time>2026-04-03T16:58:27Z</time></trkpt><trkpt lat="45.01579416565291" lon="7.5280618677279065"><ele>280.0</ele><time>2026-04-03T16:58:28Z</time></trkpt><trkpt lat="45.01564661575736" lon="7.528135744737771"><ele>280.0</ele><time>2026-04-03T16:58:29Z</time></trkpt><trkpt lat="45.01548373407832" lon="7.528217846288973"><ele>280.0</ele><time>2026-04-03T16:58:30Z</time></trkpt><trkpt lat="45.015329098552456" lon="7.528314608206951"><ele>280.0</ele><time>2026-04-03T16:58:31Z</time></trkpt><trkpt lat="45.015170288033495" lon="7.528393988196227"><ele>280.0</ele><time>2026-04-03T16:58:32Z</time></trkpt><trkpt lat="45.01500356825387" lon="7.5284582377904306"><ele>280.0</ele><time>2026-04-03T16:58:33Z</time></trkpt><trkpt lat="45.01484165170863" lon="7.528539179588176"><ele>280.0</ele><time>2026-04-03T16:58:33.999Z</time></trkpt><trkpt lat="45.01469054685065" lon="7.528636251138393"><ele>280.0</ele><time>2026-04-03T16:58:34.999Z</time></trkpt><trkpt lat="45.01452738137092" lon="7.528697002654793"><ele>280.0</ele><time>2026-04-03T16:58:35.999Z</time></trkpt><trkpt lat="45.01437787676489" lon="7.528772180418007"><ele>280.0</ele><time>2026-04-03T16:58:36.999Z</time></trkpt><trkpt lat="45.014243716850395" lon="7.528839642109548"><ele>280.0</ele><time>2026-04-03T16:58:37.999Z</time></trkpt><trkpt lat="45.0141323772825" lon="7.528925921029151"><ele>280.0</ele><time>2026-04-03T16:58:38.999Z</time></trkpt><trkpt lat="45.01403325151208" lon="7.528976785350969"><ele>280.0</ele><time>2026-04-03T16:58:39.999Z</time></trkpt><trkpt lat="45.01396575011522" lon="7.529014440121655"><ele>280.0</ele><time>2026-04-03T16:58:40.999Z</time></trkpt><trkpt lat="45.013881141552574" lon="7.529059539704487"><ele>280.0</ele><time>2026-04-03T16:58:42.999Z</time></trkpt><trkpt lat="45.01387535016286" lon="7.529268760347995"><ele>280.0</ele><time>2026-04-03T16:58:49.999Z</time></trkpt><trkpt lat="45.01387997283517" lon="7.529390218014893"><ele>280.0</ele><time>2026-04-03T16:58:50.999Z</time></trkpt><trkpt lat="45.0138702281362" lon="7.529525359359381"><ele>280.0</ele><time>2026-04-03T16:58:51.999Z</time></trkpt><trkpt lat="45.013849764158216" lon="7.529677173616559"><ele>280.0</ele><time>2026-04-03T16:58:52.999Z</time></trkpt><trkpt lat="45.01381312608505" lon="7.529837720283216"><ele>280.0</ele><time>2026-04-03T16:58:53.999Z</time></trkpt><trkpt lat="45.01377544922665" lon="7.5300085332856606"><ele>280.0</ele><time>2026-04-03T16:58:54.999Z</time></trkpt><trkpt lat="45.0137369459731" lon="7.530214591203636"><ele>280.0</ele><time>2026-04-03T16:58:55.999Z</time></trkpt><trkpt lat="45.01368684141375" lon="7.530469802397896"><ele>280.0</ele><time>2026-04-03T16:58:56.999Z</time></trkpt><trkpt lat="45.01363570271744" lon="7.530746478132442"><ele>280.0</ele><time>2026-04-03T16:58:57.999Z</time></trkpt><trkpt lat="45.01357628878439" lon="7.5310090956257545"><ele>280.0</ele><time>2026-04-03T16:58:58.999Z</time></trkpt><trkpt lat="45.01352612200051" lon="7.531267475802467"><ele>280.0</ele><time>2026-04-03T16:58:59.999Z</time></trkpt><trkpt lat="45.013478494673805" lon="7.531548238536087"><ele>279.66666666666663</ele><time>2026-04-03T16:59:00.999Z</time></trkpt><trkpt lat="45.01341049396992" lon="7.531821201789954"><ele>279.3333333333333</ele><time>2026-04-03T16:59:01.999Z</time></trkpt><trkpt lat="45.01336345876484" lon="7.532037194711573"><ele>279.0</ele><time>2026-04-03T16:59:02.999Z</time></trkpt><trkpt lat="45.01332410991419" lon="7.532230304013137"><ele>278.8</ele><time>2026-04-03T16:59:03.999Z</time></trkpt><trkpt lat="45.01328686912348" lon="7.532384039344091"><ele>278.59999999999997</ele><time>2026-04-03T16:59:04.999Z</time></trkpt><trkpt lat="45.01327390939791" lon="7.532497256627877"><ele>278.4</ele><time>2026-04-03T16:59:05.999Z</time></trkpt><trkpt lat="45.01323913600247" lon="7.532603400893923"><ele>278.2</ele><time>2026-04-03T16:59:07.999Z</time></trkpt><trkpt lat="45.013390017072986" lon="7.532705392046253"><ele>278.0</ele><time>2026-04-03T16:59:09.999Z</time></trkpt><trkpt lat="45.01348678039035" lon="7.532710178601215"><ele>278.0</ele><time>2026-04-03T16:59:10.999Z</time></trkpt><trkpt lat="45.01360794022016" lon="7.53273393689454"><ele>278.0</ele><time>2026-04-03T16:59:11.999Z</time></trkpt><trkpt lat="45.01372406371561" lon="7.532800274355925"><ele>278.0</ele><time>2026-04-03T16:59:12.999Z</time></trkpt><trkpt lat="45.01383732004306" lon="7.5328909453140875"><ele>278.0</ele><time>2026-04-03T16:59:13.999Z</time></trkpt><trkpt lat="45.01392889736741" lon="7.532976476158717"><ele>277.8</ele><time>2026-04-03T16:59:14.999Z</time></trkpt><trkpt lat="45.01398183303254" lon="7.533073060562578"><ele>277.6</ele><time>2026-04-03T16:59:15.999Z</time></trkpt><trkpt lat="45.013984358721615" lon="7.533168873237203"><ele>277.4</ele><time>2026-04-03T16:59:16.999Z</time></trkpt><trkpt lat="45.01395536795666" lon="7.53327442204426"><ele>277.2</ele><time>2026-04-03T16:59:17.999Z</time></trkpt><trkpt lat="45.013907610581015" lon="7.53339509529495"><ele>277.0</ele><time>2026-04-03T16:59:18.999Z</time></trkpt><trkpt lat="45.01379927027225" lon="7.533478295646311"><ele>277.0</ele><time>2026-04-03T16:59:19.999Z</time></trkpt><trkpt lat="45.01374279033701" lon="7.533636788262918"><ele>277.0</ele><time>2026-04-03T16:59:20.999Z</time></trkpt><trkpt lat="45.013690664029085" lon="7.533802566620192"><ele>277.0</ele><time>2026-04-03T16:59:21.999Z</time></trkpt><trkpt lat="45.01361181715484" lon="7.533986533474842"><ele>277.0</ele><time>2026-04-03T16:59:22.999Z</time></trkpt><trkpt lat="45.01350584065716" lon="7.534150489252962"><ele>276.66666666666663</ele><time>2026-04-03T16:59:23.999Z</time></trkpt><trkpt lat="45.0133816290479" lon="7.534244236959446"><ele>276.3333333333333</ele><time>2026-04-03T16:59:24.999Z</time></trkpt><trkpt lat="45.01323754268024" lon="7.5343412569957"><ele>276.0</ele><time>2026-04-03T16:59:25.999Z</time></trkpt><trkpt lat="45.01308478949974" lon="7.534436627960198"><ele>276.0</ele><time>2026-04-03T16:59:26.999Z</time></trkpt><trkpt lat="45.01291280823729" lon="7.534554590325446"><ele>276.0</ele><time>2026-04-03T16:59:27.998Z</time></trkpt><trkpt lat="45.01273473723308" lon="7.53462709377822"><ele>276.0</ele><time>2026-04-03T16:59:28.998Z</time></trkpt><trkpt lat="45.01255087694678" lon="7.534712781765216"><ele>275.3333333333333</ele><time>2026-04-03T16:59:29.998Z</time></trkpt><trkpt lat="45.01233794792467" lon="7.534811249530321"><ele>274.66666666666663</ele><time>2026-04-03T16:59:30.998Z</time></trkpt><trkpt lat="45.012145141516335" lon="7.534923940004269"><ele>274.0</ele><time>2026-04-03T16:59:31.998Z</time></trkpt><trkpt lat="45.01197338141982" lon="7.534977211697379"><ele>274.0</ele><time>2026-04-03T16:59:32.998Z</time></trkpt><trkpt lat="45.01183540693319" lon="7.535038102587806"><ele>274.0</ele><time>2026-04-03T16:59:33.998Z</time></trkpt><trkpt lat="45.011718852628086" lon="7.53511032336298"><ele>274.0</ele><time>2026-04-03T16:59:34.998Z</time></trkpt><trkpt lat="45.0116143308794" lon="7.535104331311203"><ele>274.0</ele><time>2026-04-03T16:59:35.998Z</time></trkpt><trkpt lat="45.01152983810998" lon="7.535108956356473"><ele>274.8</ele><time>2026-04-03T16:59:36.998Z</time></trkpt><trkpt lat="45.011424059128" lon="7.535113994133343"><ele>275.59999999999997</ele><time>2026-04-03T16:59:38.998Z</time></trkpt><trkpt lat="45.01133275505" lon="7.535064458397749"><ele>276.4</ele><time>2026-04-03T16:59:40.998Z</time></trkpt><trkpt lat="45.011283808387034" lon="7.535007754966517"><ele>277.2</ele><time>2026-04-03T16:59:41.998Z</time></trkpt><trkpt lat="45.0112260907859" lon="7.53512840415899"><ele>278.0</ele><time>2026-04-03T16:59:42.998Z</time></trkpt><trkpt lat="45.01124383931744" lon="7.53525423238253"><ele>278.0</ele><time>2026-04-03T16:59:43.998Z</time></trkpt><trkpt lat="45.01125368822073" lon="7.535344582239955"><ele>278.0</ele><time>2026-04-03T16:59:44.998Z</time></trkpt><trkpt lat="45.01124264106034" lon="7.53551183973525"><ele>278.0</ele><time>2026-04-03T16:59:46.998Z</time></trkpt><trkpt lat="45.01123194183803" lon="7.535633273652437"><ele>278.0</ele><time>2026-04-03T16:59:47.998Z</time></trkpt><trkpt lat="45.0112168288299" lon="7.535767261128204"><ele>278.0</ele><time>2026-04-03T16:59:48.998Z</time></trkpt><trkpt lat="45.011191545205044" lon="7.5359150839313065"><ele>277.75</ele><time>2026-04-03T16:59:49.998Z</time></trkpt><trkpt lat="45.01116171657061" lon="7.536065483783747"><ele>277.5</ele><time>2026-04-03T16:59:50.998Z</time></trkpt><trkpt lat="45.01112476762941" lon="7.536233985489573"><ele>277.25</ele><time>2026-04-03T16:59:51.998Z</time></trkpt><trkpt lat="45.01108981938971" lon="7.536406986875587"><ele>277.0</ele><time>2026-04-03T16:59:52.998Z</time></trkpt><trkpt lat="45.01105544231399" lon="7.536559714257676"><ele>276.0</ele><time>2026-04-03T16:59:53.998Z</time></trkpt><trkpt lat="45.01103270063537" lon="7.536688573460958"><ele>276.0</ele><time>2026-04-03T16:59:54.998Z</time></trkpt><trkpt lat="45.01100892747833" lon="7.536792543029362"><ele>276.0</ele><time>2026-04-03T16:59:55.998Z</time></trkpt><trkpt lat="45.010990481473506" lon="7.53689352001161"><ele>276.0</ele><time>2026-04-03T16:59:56.998Z</time></trkpt><trkpt lat="45.01096208592648" lon="7.537040855091387"><ele>276.0</ele><time>2026-04-03T16:59:58.998Z</time></trkpt><trkpt lat="45.010943465224564" lon="7.537125938002105"><ele>276.0</ele><time>2026-04-03T17:00:03Z</time></trkpt></trkseg></trk></gpx>